<?xml version="1.0" encoding="UTF-8" standalone="no" ?>
<gpx xmlns="http://www.topografix.com/GPX/1/1" xmlns:xsi="http://www.w3.org/2001/XMLSchema-instance" xsi:schemaLocation="http://www.topografix.com/GPX/1/1 http://www.topografix.com/GPX/1/1/gpx.xsd" version="1.1" creator="VisuGPX - https://www.visugpx.com">
  <metadata>
    <name>marche yoncq 2018</name>
    <desc><![CDATA[belle marche dominicale sa fait un moment que je voulais
]]></desc>
  </metadata>
  <trk>
    <name><![CDATA[Tracé actuel: 08 JUIL 2018 08:07]]></name>
    <trkseg>
      <trkpt lat="49.63448" lon="4.98048">
        <ele>190.48</ele>
        <time>2018-07-08T06:07:56Z</time>
      </trkpt>
      <trkpt lat="49.63448" lon="4.98046">
        <ele>190.48</ele>
        <time>2018-07-08T06:08:26Z</time>
      </trkpt>
      <trkpt lat="49.63446" lon="4.98051">
        <ele>190</ele>
        <time>2018-07-08T06:08:52Z</time>
      </trkpt>
      <trkpt lat="49.63457" lon="4.98052">
        <ele>187.11</ele>
        <time>2018-07-08T06:09:16Z</time>
      </trkpt>
      <trkpt lat="49.63451" lon="4.98055">
        <ele>185.19</ele>
        <time>2018-07-08T06:09:33Z</time>
      </trkpt>
      <trkpt lat="49.63447" lon="4.98062">
        <ele>187.59</ele>
        <time>2018-07-08T06:09:39Z</time>
      </trkpt>
      <trkpt lat="49.63456" lon="4.9807">
        <ele>183.27</ele>
        <time>2018-07-08T06:09:54Z</time>
      </trkpt>
      <trkpt lat="49.63458" lon="4.98075">
        <ele>182.31</ele>
        <time>2018-07-08T06:09:59Z</time>
      </trkpt>
      <trkpt lat="49.63462" lon="4.98084">
        <ele>181.35</ele>
        <time>2018-07-08T06:10:07Z</time>
      </trkpt>
      <trkpt lat="49.63477" lon="4.98099">
        <ele>181.35</ele>
        <time>2018-07-08T06:10:23Z</time>
      </trkpt>
      <trkpt lat="49.63486" lon="4.98111">
        <ele>181.83</ele>
        <time>2018-07-08T06:10:36Z</time>
      </trkpt>
      <trkpt lat="49.6349" lon="4.98117">
        <ele>182.79</ele>
        <time>2018-07-08T06:10:43Z</time>
      </trkpt>
      <trkpt lat="49.63492" lon="4.98139">
        <ele>185.19</ele>
        <time>2018-07-08T06:10:55Z</time>
      </trkpt>
      <trkpt lat="49.6349" lon="4.98142">
        <ele>185.67</ele>
        <time>2018-07-08T06:10:58Z</time>
      </trkpt>
      <trkpt lat="49.63482" lon="4.9816">
        <ele>187.11</ele>
        <time>2018-07-08T06:11:13Z</time>
      </trkpt>
      <trkpt lat="49.63475" lon="4.98179">
        <ele>189.04</ele>
        <time>2018-07-08T06:11:27Z</time>
      </trkpt>
      <trkpt lat="49.63471" lon="4.98193">
        <ele>190.48</ele>
        <time>2018-07-08T06:11:39Z</time>
      </trkpt>
      <trkpt lat="49.63472" lon="4.98199">
        <ele>190.48</ele>
        <time>2018-07-08T06:11:51Z</time>
      </trkpt>
      <trkpt lat="49.63472" lon="4.98199">
        <ele>190.48</ele>
        <time>2018-07-08T06:11:55Z</time>
      </trkpt>
      <trkpt lat="49.63469" lon="4.98207">
        <ele>190.96</ele>
        <time>2018-07-08T06:12:01Z</time>
      </trkpt>
      <trkpt lat="49.63463" lon="4.9822">
        <ele>193.36</ele>
        <time>2018-07-08T06:12:13Z</time>
      </trkpt>
      <trkpt lat="49.63453" lon="4.98232">
        <ele>196.25</ele>
        <time>2018-07-08T06:12:25Z</time>
      </trkpt>
      <trkpt lat="49.63448" lon="4.98247">
        <ele>200.09</ele>
        <time>2018-07-08T06:12:39Z</time>
      </trkpt>
      <trkpt lat="49.63448" lon="4.98252">
        <ele>197.21</ele>
        <time>2018-07-08T06:13:00Z</time>
      </trkpt>
      <trkpt lat="49.63449" lon="4.98253">
        <ele>195.77</ele>
        <time>2018-07-08T06:13:29Z</time>
      </trkpt>
      <trkpt lat="49.63449" lon="4.98256">
        <ele>193.36</ele>
        <time>2018-07-08T06:13:58Z</time>
      </trkpt>
      <trkpt lat="49.63448" lon="4.98257">
        <ele>191.92</ele>
        <time>2018-07-08T06:14:20Z</time>
      </trkpt>
      <trkpt lat="49.63448" lon="4.98258">
        <ele>191.44</ele>
        <time>2018-07-08T06:14:45Z</time>
      </trkpt>
      <trkpt lat="49.63448" lon="4.98257">
        <ele>191.92</ele>
        <time>2018-07-08T06:14:54Z</time>
      </trkpt>
      <trkpt lat="49.63446" lon="4.98258">
        <ele>191.92</ele>
        <time>2018-07-08T06:14:58Z</time>
      </trkpt>
      <trkpt lat="49.63435" lon="4.98265">
        <ele>192.4</ele>
        <time>2018-07-08T06:15:09Z</time>
      </trkpt>
      <trkpt lat="49.63429" lon="4.98273">
        <ele>194.8</ele>
        <time>2018-07-08T06:15:22Z</time>
      </trkpt>
      <trkpt lat="49.63426" lon="4.98276">
        <ele>196.25</ele>
        <time>2018-07-08T06:15:27Z</time>
      </trkpt>
      <trkpt lat="49.63416" lon="4.98291">
        <ele>201.05</ele>
        <time>2018-07-08T06:15:42Z</time>
      </trkpt>
      <trkpt lat="49.63405" lon="4.98304">
        <ele>203.94</ele>
        <time>2018-07-08T06:15:55Z</time>
      </trkpt>
      <trkpt lat="49.63399" lon="4.9831">
        <ele>204.42</ele>
        <time>2018-07-08T06:16:00Z</time>
      </trkpt>
      <trkpt lat="49.63396" lon="4.98312">
        <ele>204.42</ele>
        <time>2018-07-08T06:16:03Z</time>
      </trkpt>
      <trkpt lat="49.63385" lon="4.98323">
        <ele>205.86</ele>
        <time>2018-07-08T06:16:17Z</time>
      </trkpt>
      <trkpt lat="49.63374" lon="4.98332">
        <ele>206.82</ele>
        <time>2018-07-08T06:16:29Z</time>
      </trkpt>
      <trkpt lat="49.63362" lon="4.98338">
        <ele>208.74</ele>
        <time>2018-07-08T06:16:41Z</time>
      </trkpt>
      <trkpt lat="49.63349" lon="4.98344">
        <ele>211.15</ele>
        <time>2018-07-08T06:16:55Z</time>
      </trkpt>
      <trkpt lat="49.63343" lon="4.98346">
        <ele>212.59</ele>
        <time>2018-07-08T06:17:03Z</time>
      </trkpt>
      <trkpt lat="49.63333" lon="4.98345">
        <ele>214.51</ele>
        <time>2018-07-08T06:17:15Z</time>
      </trkpt>
      <trkpt lat="49.63323" lon="4.98344">
        <ele>215.47</ele>
        <time>2018-07-08T06:17:26Z</time>
      </trkpt>
      <trkpt lat="49.63309" lon="4.9834">
        <ele>215.95</ele>
        <time>2018-07-08T06:17:39Z</time>
      </trkpt>
      <trkpt lat="49.63302" lon="4.9834">
        <ele>215.95</ele>
        <time>2018-07-08T06:17:46Z</time>
      </trkpt>
      <trkpt lat="49.63289" lon="4.98339">
        <ele>218.36</ele>
        <time>2018-07-08T06:17:59Z</time>
      </trkpt>
      <trkpt lat="49.63282" lon="4.98341">
        <ele>218.36</ele>
        <time>2018-07-08T06:18:11Z</time>
      </trkpt>
      <trkpt lat="49.63267" lon="4.98341">
        <ele>217.4</ele>
        <time>2018-07-08T06:18:26Z</time>
      </trkpt>
      <trkpt lat="49.63252" lon="4.98341">
        <ele>216.43</ele>
        <time>2018-07-08T06:18:40Z</time>
      </trkpt>
      <trkpt lat="49.6324" lon="4.98341">
        <ele>216.91</ele>
        <time>2018-07-08T06:18:50Z</time>
      </trkpt>
      <trkpt lat="49.6323" lon="4.98339">
        <ele>217.88</ele>
        <time>2018-07-08T06:18:59Z</time>
      </trkpt>
      <trkpt lat="49.63227" lon="4.98337">
        <ele>218.84</ele>
        <time>2018-07-08T06:19:02Z</time>
      </trkpt>
      <trkpt lat="49.63212" lon="4.98332">
        <ele>221.24</ele>
        <time>2018-07-08T06:19:17Z</time>
      </trkpt>
      <trkpt lat="49.63195" lon="4.98331">
        <ele>221.72</ele>
        <time>2018-07-08T06:19:31Z</time>
      </trkpt>
      <trkpt lat="49.63184" lon="4.98326">
        <ele>222.68</ele>
        <time>2018-07-08T06:19:42Z</time>
      </trkpt>
      <trkpt lat="49.63168" lon="4.9832">
        <ele>225.57</ele>
        <time>2018-07-08T06:19:57Z</time>
      </trkpt>
      <trkpt lat="49.63156" lon="4.98318">
        <ele>227.01</ele>
        <time>2018-07-08T06:20:08Z</time>
      </trkpt>
      <trkpt lat="49.6314" lon="4.98318">
        <ele>227.97</ele>
        <time>2018-07-08T06:20:23Z</time>
      </trkpt>
      <trkpt lat="49.63124" lon="4.98321">
        <ele>229.41</ele>
        <time>2018-07-08T06:20:37Z</time>
      </trkpt>
      <trkpt lat="49.63106" lon="4.98322">
        <ele>227.97</ele>
        <time>2018-07-08T06:20:55Z</time>
      </trkpt>
      <trkpt lat="49.63105" lon="4.98322">
        <ele>228.45</ele>
        <time>2018-07-08T06:20:57Z</time>
      </trkpt>
      <trkpt lat="49.63097" lon="4.98321">
        <ele>228.93</ele>
        <time>2018-07-08T06:21:04Z</time>
      </trkpt>
      <trkpt lat="49.63079" lon="4.98317">
        <ele>229.89</ele>
        <time>2018-07-08T06:21:18Z</time>
      </trkpt>
      <trkpt lat="49.63065" lon="4.98317">
        <ele>229.89</ele>
        <time>2018-07-08T06:21:31Z</time>
      </trkpt>
      <trkpt lat="49.63062" lon="4.98318">
        <ele>229.89</ele>
        <time>2018-07-08T06:21:34Z</time>
      </trkpt>
      <trkpt lat="49.63047" lon="4.98318">
        <ele>230.37</ele>
        <time>2018-07-08T06:21:48Z</time>
      </trkpt>
      <trkpt lat="49.63047" lon="4.98319">
        <ele>230.37</ele>
        <time>2018-07-08T06:21:52Z</time>
      </trkpt>
      <trkpt lat="49.63032" lon="4.98313">
        <ele>230.37</ele>
        <time>2018-07-08T06:22:06Z</time>
      </trkpt>
      <trkpt lat="49.63026" lon="4.98312">
        <ele>231.33</ele>
        <time>2018-07-08T06:22:11Z</time>
      </trkpt>
      <trkpt lat="49.6301" lon="4.98312">
        <ele>233.74</ele>
        <time>2018-07-08T06:22:26Z</time>
      </trkpt>
      <trkpt lat="49.63003" lon="4.98312">
        <ele>234.22</ele>
        <time>2018-07-08T06:22:33Z</time>
      </trkpt>
      <trkpt lat="49.63001" lon="4.98312">
        <ele>234.22</ele>
        <time>2018-07-08T06:22:35Z</time>
      </trkpt>
      <trkpt lat="49.62986" lon="4.98309">
        <ele>235.66</ele>
        <time>2018-07-08T06:22:49Z</time>
      </trkpt>
      <trkpt lat="49.62972" lon="4.98307">
        <ele>238.06</ele>
        <time>2018-07-08T06:23:03Z</time>
      </trkpt>
      <trkpt lat="49.62958" lon="4.98307">
        <ele>239.02</ele>
        <time>2018-07-08T06:23:17Z</time>
      </trkpt>
      <trkpt lat="49.62955" lon="4.98311">
        <ele>235.66</ele>
        <time>2018-07-08T06:23:29Z</time>
      </trkpt>
      <trkpt lat="49.62953" lon="4.98312">
        <ele>234.7</ele>
        <time>2018-07-08T06:23:43Z</time>
      </trkpt>
      <trkpt lat="49.62947" lon="4.98312">
        <ele>234.7</ele>
        <time>2018-07-08T06:23:56Z</time>
      </trkpt>
      <trkpt lat="49.62946" lon="4.98312">
        <ele>234.22</ele>
        <time>2018-07-08T06:24:03Z</time>
      </trkpt>
      <trkpt lat="49.62932" lon="4.98314">
        <ele>234.7</ele>
        <time>2018-07-08T06:24:16Z</time>
      </trkpt>
      <trkpt lat="49.62925" lon="4.98315">
        <ele>236.62</ele>
        <time>2018-07-08T06:24:23Z</time>
      </trkpt>
      <trkpt lat="49.62909" lon="4.98324">
        <ele>237.58</ele>
        <time>2018-07-08T06:24:38Z</time>
      </trkpt>
      <trkpt lat="49.62907" lon="4.98325">
        <ele>237.1</ele>
        <time>2018-07-08T06:24:47Z</time>
      </trkpt>
      <trkpt lat="49.62897" lon="4.98331">
        <ele>237.1</ele>
        <time>2018-07-08T06:24:58Z</time>
      </trkpt>
      <trkpt lat="49.62895" lon="4.98332">
        <ele>237.58</ele>
        <time>2018-07-08T06:25:00Z</time>
      </trkpt>
      <trkpt lat="49.62886" lon="4.98333">
        <ele>238.54</ele>
        <time>2018-07-08T06:25:08Z</time>
      </trkpt>
      <trkpt lat="49.62872" lon="4.98332">
        <ele>241.43</ele>
        <time>2018-07-08T06:25:23Z</time>
      </trkpt>
      <trkpt lat="49.6286" lon="4.98338">
        <ele>244.79</ele>
        <time>2018-07-08T06:25:38Z</time>
      </trkpt>
      <trkpt lat="49.62854" lon="4.98342">
        <ele>244.31</ele>
        <time>2018-07-08T06:25:56Z</time>
      </trkpt>
      <trkpt lat="49.62845" lon="4.98345">
        <ele>243.83</ele>
        <time>2018-07-08T06:26:19Z</time>
      </trkpt>
      <trkpt lat="49.62832" lon="4.98358">
        <ele>242.87</ele>
        <time>2018-07-08T06:26:34Z</time>
      </trkpt>
      <trkpt lat="49.62821" lon="4.98367">
        <ele>242.39</ele>
        <time>2018-07-08T06:26:50Z</time>
      </trkpt>
      <trkpt lat="49.62812" lon="4.98374">
        <ele>240.95</ele>
        <time>2018-07-08T06:27:03Z</time>
      </trkpt>
      <trkpt lat="49.62796" lon="4.98388">
        <ele>239.51</ele>
        <time>2018-07-08T06:27:21Z</time>
      </trkpt>
      <trkpt lat="49.62789" lon="4.98392">
        <ele>239.02</ele>
        <time>2018-07-08T06:27:28Z</time>
      </trkpt>
      <trkpt lat="49.62769" lon="4.98406">
        <ele>238.06</ele>
        <time>2018-07-08T06:27:44Z</time>
      </trkpt>
      <trkpt lat="49.62756" lon="4.98416">
        <ele>239.02</ele>
        <time>2018-07-08T06:27:59Z</time>
      </trkpt>
      <trkpt lat="49.62743" lon="4.98428">
        <ele>242.39</ele>
        <time>2018-07-08T06:28:14Z</time>
      </trkpt>
      <trkpt lat="49.62729" lon="4.98439">
        <ele>242.87</ele>
        <time>2018-07-08T06:28:29Z</time>
      </trkpt>
      <trkpt lat="49.62714" lon="4.98454">
        <ele>246.72</ele>
        <time>2018-07-08T06:28:44Z</time>
      </trkpt>
      <trkpt lat="49.62713" lon="4.98455">
        <ele>246.72</ele>
        <time>2018-07-08T06:28:45Z</time>
      </trkpt>
      <trkpt lat="49.62712" lon="4.98457">
        <ele>246.72</ele>
        <time>2018-07-08T06:28:47Z</time>
      </trkpt>
      <trkpt lat="49.627" lon="4.98464">
        <ele>248.64</ele>
        <time>2018-07-08T06:29:00Z</time>
      </trkpt>
      <trkpt lat="49.6269" lon="4.98474">
        <ele>250.56</ele>
        <time>2018-07-08T06:29:13Z</time>
      </trkpt>
      <trkpt lat="49.62681" lon="4.98481">
        <ele>249.6</ele>
        <time>2018-07-08T06:29:27Z</time>
      </trkpt>
      <trkpt lat="49.62673" lon="4.98486">
        <ele>251.04</ele>
        <time>2018-07-08T06:29:45Z</time>
      </trkpt>
      <trkpt lat="49.62672" lon="4.98488">
        <ele>251.52</ele>
        <time>2018-07-08T06:29:52Z</time>
      </trkpt>
      <trkpt lat="49.62654" lon="4.98503">
        <ele>250.08</ele>
        <time>2018-07-08T06:30:08Z</time>
      </trkpt>
      <trkpt lat="49.62641" lon="4.98514">
        <ele>251.52</ele>
        <time>2018-07-08T06:30:23Z</time>
      </trkpt>
      <trkpt lat="49.62629" lon="4.98525">
        <ele>251.52</ele>
        <time>2018-07-08T06:30:38Z</time>
      </trkpt>
      <trkpt lat="49.62613" lon="4.98538">
        <ele>252.96</ele>
        <time>2018-07-08T06:30:54Z</time>
      </trkpt>
      <trkpt lat="49.62599" lon="4.9855">
        <ele>252.96</ele>
        <time>2018-07-08T06:31:11Z</time>
      </trkpt>
      <trkpt lat="49.62585" lon="4.98562">
        <ele>254.89</ele>
        <time>2018-07-08T06:31:25Z</time>
      </trkpt>
      <trkpt lat="49.62572" lon="4.98572">
        <ele>256.33</ele>
        <time>2018-07-08T06:31:43Z</time>
      </trkpt>
      <trkpt lat="49.62559" lon="4.98581">
        <ele>258.73</ele>
        <time>2018-07-08T06:31:57Z</time>
      </trkpt>
      <trkpt lat="49.62555" lon="4.98578">
        <ele>258.73</ele>
        <time>2018-07-08T06:32:12Z</time>
      </trkpt>
      <trkpt lat="49.62556" lon="4.98576">
        <ele>259.21</ele>
        <time>2018-07-08T06:32:21Z</time>
      </trkpt>
      <trkpt lat="49.62553" lon="4.98564">
        <ele>259.69</ele>
        <time>2018-07-08T06:32:34Z</time>
      </trkpt>
      <trkpt lat="49.62553" lon="4.98563">
        <ele>259.69</ele>
        <time>2018-07-08T06:32:35Z</time>
      </trkpt>
      <trkpt lat="49.6255" lon="4.98557">
        <ele>259.69</ele>
        <time>2018-07-08T06:32:49Z</time>
      </trkpt>
      <trkpt lat="49.62543" lon="4.98557">
        <ele>259.69</ele>
        <time>2018-07-08T06:33:03Z</time>
      </trkpt>
      <trkpt lat="49.62536" lon="4.98559">
        <ele>258.73</ele>
        <time>2018-07-08T06:33:11Z</time>
      </trkpt>
      <trkpt lat="49.62523" lon="4.98561">
        <ele>258.25</ele>
        <time>2018-07-08T06:33:23Z</time>
      </trkpt>
      <trkpt lat="49.62514" lon="4.98561">
        <ele>259.21</ele>
        <time>2018-07-08T06:33:32Z</time>
      </trkpt>
      <trkpt lat="49.62497" lon="4.9855">
        <ele>261.14</ele>
        <time>2018-07-08T06:33:48Z</time>
      </trkpt>
      <trkpt lat="49.62484" lon="4.98541">
        <ele>262.58</ele>
        <time>2018-07-08T06:34:02Z</time>
      </trkpt>
      <trkpt lat="49.62474" lon="4.98534">
        <ele>260.65</ele>
        <time>2018-07-08T06:34:16Z</time>
      </trkpt>
      <trkpt lat="49.62465" lon="4.98527">
        <ele>260.65</ele>
        <time>2018-07-08T06:34:29Z</time>
      </trkpt>
      <trkpt lat="49.62459" lon="4.98522">
        <ele>260.65</ele>
        <time>2018-07-08T06:34:34Z</time>
      </trkpt>
      <trkpt lat="49.62444" lon="4.98513">
        <ele>263.54</ele>
        <time>2018-07-08T06:34:49Z</time>
      </trkpt>
      <trkpt lat="49.6243" lon="4.98501">
        <ele>265.94</ele>
        <time>2018-07-08T06:35:03Z</time>
      </trkpt>
      <trkpt lat="49.62427" lon="4.985">
        <ele>266.42</ele>
        <time>2018-07-08T06:35:05Z</time>
      </trkpt>
      <trkpt lat="49.62424" lon="4.98497">
        <ele>266.42</ele>
        <time>2018-07-08T06:35:08Z</time>
      </trkpt>
      <trkpt lat="49.62416" lon="4.98492">
        <ele>265.46</ele>
        <time>2018-07-08T06:35:23Z</time>
      </trkpt>
      <trkpt lat="49.62414" lon="4.98489">
        <ele>263.54</ele>
        <time>2018-07-08T06:35:46Z</time>
      </trkpt>
      <trkpt lat="49.62407" lon="4.98485">
        <ele>263.06</ele>
        <time>2018-07-08T06:36:00Z</time>
      </trkpt>
      <trkpt lat="49.62396" lon="4.98477">
        <ele>265.46</ele>
        <time>2018-07-08T06:36:11Z</time>
      </trkpt>
      <trkpt lat="49.62382" lon="4.98467">
        <ele>265.46</ele>
        <time>2018-07-08T06:36:25Z</time>
      </trkpt>
      <trkpt lat="49.62365" lon="4.98458">
        <ele>264.5</ele>
        <time>2018-07-08T06:36:39Z</time>
      </trkpt>
      <trkpt lat="49.6235" lon="4.98449">
        <ele>265.46</ele>
        <time>2018-07-08T06:36:51Z</time>
      </trkpt>
      <trkpt lat="49.62336" lon="4.98438">
        <ele>266.42</ele>
        <time>2018-07-08T06:37:06Z</time>
      </trkpt>
      <trkpt lat="49.62323" lon="4.98428">
        <ele>266.42</ele>
        <time>2018-07-08T06:37:20Z</time>
      </trkpt>
      <trkpt lat="49.62315" lon="4.98419">
        <ele>266.9</ele>
        <time>2018-07-08T06:37:28Z</time>
      </trkpt>
      <trkpt lat="49.62305" lon="4.98405">
        <ele>268.35</ele>
        <time>2018-07-08T06:37:42Z</time>
      </trkpt>
      <trkpt lat="49.62304" lon="4.98402">
        <ele>268.83</ele>
        <time>2018-07-08T06:37:47Z</time>
      </trkpt>
      <trkpt lat="49.62291" lon="4.98385">
        <ele>269.31</ele>
        <time>2018-07-08T06:38:02Z</time>
      </trkpt>
      <trkpt lat="49.62285" lon="4.98377">
        <ele>269.31</ele>
        <time>2018-07-08T06:38:14Z</time>
      </trkpt>
      <trkpt lat="49.62274" lon="4.9836">
        <ele>270.75</ele>
        <time>2018-07-08T06:38:27Z</time>
      </trkpt>
      <trkpt lat="49.62261" lon="4.98339">
        <ele>271.23</ele>
        <time>2018-07-08T06:38:42Z</time>
      </trkpt>
      <trkpt lat="49.62257" lon="4.98334">
        <ele>271.23</ele>
        <time>2018-07-08T06:38:48Z</time>
      </trkpt>
      <trkpt lat="49.62255" lon="4.98328">
        <ele>270.75</ele>
        <time>2018-07-08T06:38:52Z</time>
      </trkpt>
      <trkpt lat="49.6225" lon="4.98319">
        <ele>270.27</ele>
        <time>2018-07-08T06:39:06Z</time>
      </trkpt>
      <trkpt lat="49.62242" lon="4.98312">
        <ele>270.75</ele>
        <time>2018-07-08T06:39:23Z</time>
      </trkpt>
      <trkpt lat="49.6223" lon="4.98301">
        <ele>272.19</ele>
        <time>2018-07-08T06:39:39Z</time>
      </trkpt>
      <trkpt lat="49.62209" lon="4.9829">
        <ele>273.15</ele>
        <time>2018-07-08T06:39:58Z</time>
      </trkpt>
      <trkpt lat="49.62194" lon="4.98285">
        <ele>273.15</ele>
        <time>2018-07-08T06:40:11Z</time>
      </trkpt>
      <trkpt lat="49.62176" lon="4.98281">
        <ele>273.63</ele>
        <time>2018-07-08T06:40:27Z</time>
      </trkpt>
      <trkpt lat="49.62148" lon="4.98275">
        <ele>275.56</ele>
        <time>2018-07-08T06:40:46Z</time>
      </trkpt>
      <trkpt lat="49.62133" lon="4.98273">
        <ele>275.56</ele>
        <time>2018-07-08T06:40:58Z</time>
      </trkpt>
      <trkpt lat="49.62126" lon="4.98269">
        <ele>271.23</ele>
        <time>2018-07-08T06:41:29Z</time>
      </trkpt>
      <trkpt lat="49.62123" lon="4.98264">
        <ele>271.71</ele>
        <time>2018-07-08T06:41:43Z</time>
      </trkpt>
      <trkpt lat="49.62117" lon="4.98257">
        <ele>272.67</ele>
        <time>2018-07-08T06:42:00Z</time>
      </trkpt>
      <trkpt lat="49.621" lon="4.98244">
        <ele>273.15</ele>
        <time>2018-07-08T06:42:16Z</time>
      </trkpt>
      <trkpt lat="49.62083" lon="4.98233">
        <ele>272.19</ele>
        <time>2018-07-08T06:42:31Z</time>
      </trkpt>
      <trkpt lat="49.62065" lon="4.98223">
        <ele>272.67</ele>
        <time>2018-07-08T06:42:44Z</time>
      </trkpt>
      <trkpt lat="49.6205" lon="4.98211">
        <ele>273.15</ele>
        <time>2018-07-08T06:43:00Z</time>
      </trkpt>
      <trkpt lat="49.62037" lon="4.98204">
        <ele>273.15</ele>
        <time>2018-07-08T06:43:13Z</time>
      </trkpt>
      <trkpt lat="49.62029" lon="4.98199">
        <ele>272.19</ele>
        <time>2018-07-08T06:43:25Z</time>
      </trkpt>
      <trkpt lat="49.62026" lon="4.98198">
        <ele>272.67</ele>
        <time>2018-07-08T06:43:29Z</time>
      </trkpt>
      <trkpt lat="49.62011" lon="4.98191">
        <ele>274.11</ele>
        <time>2018-07-08T06:43:42Z</time>
      </trkpt>
      <trkpt lat="49.62005" lon="4.98189">
        <ele>275.56</ele>
        <time>2018-07-08T06:43:55Z</time>
      </trkpt>
      <trkpt lat="49.61998" lon="4.98185">
        <ele>276.52</ele>
        <time>2018-07-08T06:44:10Z</time>
      </trkpt>
      <trkpt lat="49.61987" lon="4.9818">
        <ele>278.44</ele>
        <time>2018-07-08T06:44:23Z</time>
      </trkpt>
      <trkpt lat="49.61983" lon="4.98177">
        <ele>277.96</ele>
        <time>2018-07-08T06:44:34Z</time>
      </trkpt>
      <trkpt lat="49.61979" lon="4.98174">
        <ele>278.44</ele>
        <time>2018-07-08T06:44:40Z</time>
      </trkpt>
      <trkpt lat="49.61972" lon="4.98171">
        <ele>278.44</ele>
        <time>2018-07-08T06:44:50Z</time>
      </trkpt>
      <trkpt lat="49.61959" lon="4.98166">
        <ele>279.4</ele>
        <time>2018-07-08T06:45:05Z</time>
      </trkpt>
      <trkpt lat="49.61946" lon="4.98161">
        <ele>280.84</ele>
        <time>2018-07-08T06:45:22Z</time>
      </trkpt>
      <trkpt lat="49.61942" lon="4.9816">
        <ele>282.28</ele>
        <time>2018-07-08T06:45:43Z</time>
      </trkpt>
      <trkpt lat="49.61938" lon="4.98159">
        <ele>283.73</ele>
        <time>2018-07-08T06:46:02Z</time>
      </trkpt>
      <trkpt lat="49.61936" lon="4.98158">
        <ele>284.69</ele>
        <time>2018-07-08T06:46:20Z</time>
      </trkpt>
      <trkpt lat="49.61921" lon="4.98151">
        <ele>283.25</ele>
        <time>2018-07-08T06:46:36Z</time>
      </trkpt>
      <trkpt lat="49.61904" lon="4.98145">
        <ele>284.21</ele>
        <time>2018-07-08T06:46:52Z</time>
      </trkpt>
      <trkpt lat="49.61887" lon="4.98147">
        <ele>285.65</ele>
        <time>2018-07-08T06:47:08Z</time>
      </trkpt>
      <trkpt lat="49.61868" lon="4.98153">
        <ele>288.05</ele>
        <time>2018-07-08T06:47:25Z</time>
      </trkpt>
      <trkpt lat="49.61856" lon="4.98161">
        <ele>291.9</ele>
        <time>2018-07-08T06:47:39Z</time>
      </trkpt>
      <trkpt lat="49.61837" lon="4.98169">
        <ele>294.3</ele>
        <time>2018-07-08T06:47:56Z</time>
      </trkpt>
      <trkpt lat="49.61831" lon="4.98176">
        <ele>294.78</ele>
        <time>2018-07-08T06:48:14Z</time>
      </trkpt>
      <trkpt lat="49.61831" lon="4.98177">
        <ele>295.26</ele>
        <time>2018-07-08T06:48:18Z</time>
      </trkpt>
      <trkpt lat="49.61823" lon="4.98192">
        <ele>300.55</ele>
        <time>2018-07-08T06:48:31Z</time>
      </trkpt>
      <trkpt lat="49.61823" lon="4.98193">
        <ele>301.03</ele>
        <time>2018-07-08T06:48:32Z</time>
      </trkpt>
      <trkpt lat="49.6182" lon="4.98199">
        <ele>301.99</ele>
        <time>2018-07-08T06:48:46Z</time>
      </trkpt>
      <trkpt lat="49.61818" lon="4.98196">
        <ele>302.47</ele>
        <time>2018-07-08T06:49:03Z</time>
      </trkpt>
      <trkpt lat="49.61817" lon="4.98196">
        <ele>301.51</ele>
        <time>2018-07-08T06:49:12Z</time>
      </trkpt>
      <trkpt lat="49.61817" lon="4.98203">
        <ele>301.99</ele>
        <time>2018-07-08T06:49:21Z</time>
      </trkpt>
      <trkpt lat="49.61815" lon="4.9821">
        <ele>302.47</ele>
        <time>2018-07-08T06:49:25Z</time>
      </trkpt>
      <trkpt lat="49.61808" lon="4.9823">
        <ele>302.47</ele>
        <time>2018-07-08T06:49:40Z</time>
      </trkpt>
      <trkpt lat="49.61807" lon="4.98233">
        <ele>302.47</ele>
        <time>2018-07-08T06:49:42Z</time>
      </trkpt>
      <trkpt lat="49.61804" lon="4.98238">
        <ele>302.47</ele>
        <time>2018-07-08T06:49:45Z</time>
      </trkpt>
      <trkpt lat="49.61803" lon="4.98253">
        <ele>301.51</ele>
        <time>2018-07-08T06:49:54Z</time>
      </trkpt>
      <trkpt lat="49.61799" lon="4.98279">
        <ele>301.03</ele>
        <time>2018-07-08T06:50:08Z</time>
      </trkpt>
      <trkpt lat="49.61797" lon="4.98305">
        <ele>300.07</ele>
        <time>2018-07-08T06:50:24Z</time>
      </trkpt>
      <trkpt lat="49.61792" lon="4.98331">
        <ele>301.51</ele>
        <time>2018-07-08T06:50:39Z</time>
      </trkpt>
      <trkpt lat="49.61792" lon="4.98336">
        <ele>301.03</ele>
        <time>2018-07-08T06:50:45Z</time>
      </trkpt>
      <trkpt lat="49.61789" lon="4.98352">
        <ele>301.03</ele>
        <time>2018-07-08T06:50:54Z</time>
      </trkpt>
      <trkpt lat="49.61786" lon="4.98372">
        <ele>299.11</ele>
        <time>2018-07-08T06:51:07Z</time>
      </trkpt>
      <trkpt lat="49.61785" lon="4.98378">
        <ele>298.63</ele>
        <time>2018-07-08T06:51:10Z</time>
      </trkpt>
      <trkpt lat="49.61779" lon="4.98398">
        <ele>299.11</ele>
        <time>2018-07-08T06:51:20Z</time>
      </trkpt>
      <trkpt lat="49.6177" lon="4.98421">
        <ele>299.59</ele>
        <time>2018-07-08T06:51:34Z</time>
      </trkpt>
      <trkpt lat="49.61766" lon="4.98438">
        <ele>297.67</ele>
        <time>2018-07-08T06:51:46Z</time>
      </trkpt>
      <trkpt lat="49.61764" lon="4.98457">
        <ele>295.74</ele>
        <time>2018-07-08T06:51:55Z</time>
      </trkpt>
      <trkpt lat="49.61763" lon="4.9847">
        <ele>293.82</ele>
        <time>2018-07-08T06:52:01Z</time>
      </trkpt>
      <trkpt lat="49.61755" lon="4.98488">
        <ele>289.01</ele>
        <time>2018-07-08T06:52:16Z</time>
      </trkpt>
      <trkpt lat="49.61752" lon="4.98503">
        <ele>286.13</ele>
        <time>2018-07-08T06:52:24Z</time>
      </trkpt>
      <trkpt lat="49.61751" lon="4.98508">
        <ele>285.65</ele>
        <time>2018-07-08T06:52:27Z</time>
      </trkpt>
      <trkpt lat="49.61747" lon="4.98519">
        <ele>284.21</ele>
        <time>2018-07-08T06:52:33Z</time>
      </trkpt>
      <trkpt lat="49.61742" lon="4.98546">
        <ele>283.73</ele>
        <time>2018-07-08T06:52:50Z</time>
      </trkpt>
      <trkpt lat="49.61741" lon="4.98548">
        <ele>283.73</ele>
        <time>2018-07-08T06:52:51Z</time>
      </trkpt>
      <trkpt lat="49.61737" lon="4.98553">
        <ele>283.73</ele>
        <time>2018-07-08T06:52:54Z</time>
      </trkpt>
      <trkpt lat="49.6173" lon="4.98578">
        <ele>281.8</ele>
        <time>2018-07-08T06:53:09Z</time>
      </trkpt>
      <trkpt lat="49.61728" lon="4.98587">
        <ele>281.32</ele>
        <time>2018-07-08T06:53:14Z</time>
      </trkpt>
      <trkpt lat="49.61728" lon="4.98597">
        <ele>280.36</ele>
        <time>2018-07-08T06:53:19Z</time>
      </trkpt>
      <trkpt lat="49.61723" lon="4.98621">
        <ele>278.44</ele>
        <time>2018-07-08T06:53:34Z</time>
      </trkpt>
      <trkpt lat="49.6172" lon="4.98643">
        <ele>277.48</ele>
        <time>2018-07-08T06:53:45Z</time>
      </trkpt>
      <trkpt lat="49.61718" lon="4.98665">
        <ele>279.4</ele>
        <time>2018-07-08T06:53:59Z</time>
      </trkpt>
      <trkpt lat="49.61713" lon="4.98682">
        <ele>277</ele>
        <time>2018-07-08T06:54:10Z</time>
      </trkpt>
      <trkpt lat="49.61712" lon="4.98688">
        <ele>277</ele>
        <time>2018-07-08T06:54:14Z</time>
      </trkpt>
      <trkpt lat="49.61712" lon="4.98696">
        <ele>276.52</ele>
        <time>2018-07-08T06:54:18Z</time>
      </trkpt>
      <trkpt lat="49.61704" lon="4.9871">
        <ele>276.52</ele>
        <time>2018-07-08T06:54:29Z</time>
      </trkpt>
      <trkpt lat="49.61697" lon="4.98722">
        <ele>276.52</ele>
        <time>2018-07-08T06:54:37Z</time>
      </trkpt>
      <trkpt lat="49.61688" lon="4.98742">
        <ele>277.48</ele>
        <time>2018-07-08T06:54:52Z</time>
      </trkpt>
      <trkpt lat="49.61678" lon="4.98766">
        <ele>280.84</ele>
        <time>2018-07-08T06:55:07Z</time>
      </trkpt>
      <trkpt lat="49.61663" lon="4.98787">
        <ele>283.25</ele>
        <time>2018-07-08T06:55:25Z</time>
      </trkpt>
      <trkpt lat="49.6165" lon="4.98807">
        <ele>284.69</ele>
        <time>2018-07-08T06:55:41Z</time>
      </trkpt>
      <trkpt lat="49.61642" lon="4.98829">
        <ele>285.65</ele>
        <time>2018-07-08T06:55:55Z</time>
      </trkpt>
      <trkpt lat="49.61631" lon="4.98851">
        <ele>288.53</ele>
        <time>2018-07-08T06:56:12Z</time>
      </trkpt>
      <trkpt lat="49.61622" lon="4.98862">
        <ele>291.42</ele>
        <time>2018-07-08T06:56:28Z</time>
      </trkpt>
      <trkpt lat="49.61617" lon="4.98863">
        <ele>294.3</ele>
        <time>2018-07-08T06:56:47Z</time>
      </trkpt>
      <trkpt lat="49.61611" lon="4.9886">
        <ele>296.22</ele>
        <time>2018-07-08T06:57:04Z</time>
      </trkpt>
      <trkpt lat="49.61598" lon="4.98846">
        <ele>295.26</ele>
        <time>2018-07-08T06:57:21Z</time>
      </trkpt>
      <trkpt lat="49.61589" lon="4.98842">
        <ele>295.26</ele>
        <time>2018-07-08T06:57:37Z</time>
      </trkpt>
      <trkpt lat="49.61588" lon="4.98841">
        <ele>295.74</ele>
        <time>2018-07-08T06:57:54Z</time>
      </trkpt>
      <trkpt lat="49.61586" lon="4.98839">
        <ele>296.22</ele>
        <time>2018-07-08T06:58:02Z</time>
      </trkpt>
      <trkpt lat="49.61578" lon="4.98834">
        <ele>294.3</ele>
        <time>2018-07-08T06:58:14Z</time>
      </trkpt>
      <trkpt lat="49.61572" lon="4.98829">
        <ele>293.82</ele>
        <time>2018-07-08T06:58:34Z</time>
      </trkpt>
      <trkpt lat="49.61568" lon="4.98825">
        <ele>292.38</ele>
        <time>2018-07-08T06:58:47Z</time>
      </trkpt>
      <trkpt lat="49.61562" lon="4.9882">
        <ele>290.94</ele>
        <time>2018-07-08T06:58:52Z</time>
      </trkpt>
      <trkpt lat="49.61536" lon="4.98808">
        <ele>285.17</ele>
        <time>2018-07-08T06:59:08Z</time>
      </trkpt>
      <trkpt lat="49.61518" lon="4.988">
        <ele>285.65</ele>
        <time>2018-07-08T06:59:24Z</time>
      </trkpt>
      <trkpt lat="49.61509" lon="4.98799">
        <ele>286.13</ele>
        <time>2018-07-08T06:59:44Z</time>
      </trkpt>
      <trkpt lat="49.61497" lon="4.98801">
        <ele>284.21</ele>
        <time>2018-07-08T06:59:59Z</time>
      </trkpt>
      <trkpt lat="49.61481" lon="4.988">
        <ele>284.21</ele>
        <time>2018-07-08T07:00:15Z</time>
      </trkpt>
      <trkpt lat="49.61473" lon="4.988">
        <ele>285.17</ele>
        <time>2018-07-08T07:00:32Z</time>
      </trkpt>
      <trkpt lat="49.61459" lon="4.98788">
        <ele>286.61</ele>
        <time>2018-07-08T07:00:49Z</time>
      </trkpt>
      <trkpt lat="49.61452" lon="4.98782">
        <ele>288.05</ele>
        <time>2018-07-08T07:01:05Z</time>
      </trkpt>
      <trkpt lat="49.61449" lon="4.9878">
        <ele>287.57</ele>
        <time>2018-07-08T07:01:19Z</time>
      </trkpt>
      <trkpt lat="49.61442" lon="4.98762">
        <ele>283.25</ele>
        <time>2018-07-08T07:01:32Z</time>
      </trkpt>
      <trkpt lat="49.61434" lon="4.98748">
        <ele>282.77</ele>
        <time>2018-07-08T07:01:50Z</time>
      </trkpt>
      <trkpt lat="49.6143" lon="4.98739">
        <ele>281.8</ele>
        <time>2018-07-08T07:02:08Z</time>
      </trkpt>
      <trkpt lat="49.61422" lon="4.98724">
        <ele>278.92</ele>
        <time>2018-07-08T07:02:27Z</time>
      </trkpt>
      <trkpt lat="49.61408" lon="4.9869">
        <ele>273.63</ele>
        <time>2018-07-08T07:02:42Z</time>
      </trkpt>
      <trkpt lat="49.61393" lon="4.98668">
        <ele>273.15</ele>
        <time>2018-07-08T07:02:54Z</time>
      </trkpt>
      <trkpt lat="49.61383" lon="4.98651">
        <ele>275.07</ele>
        <time>2018-07-08T07:03:13Z</time>
      </trkpt>
      <trkpt lat="49.61371" lon="4.9863">
        <ele>274.59</ele>
        <time>2018-07-08T07:03:27Z</time>
      </trkpt>
      <trkpt lat="49.61363" lon="4.98615">
        <ele>272.67</ele>
        <time>2018-07-08T07:03:36Z</time>
      </trkpt>
      <trkpt lat="49.61349" lon="4.98593">
        <ele>273.63</ele>
        <time>2018-07-08T07:03:54Z</time>
      </trkpt>
      <trkpt lat="49.61343" lon="4.98578">
        <ele>279.88</ele>
        <time>2018-07-08T07:04:12Z</time>
      </trkpt>
      <trkpt lat="49.61339" lon="4.98571">
        <ele>280.84</ele>
        <time>2018-07-08T07:04:28Z</time>
      </trkpt>
      <trkpt lat="49.61335" lon="4.98566">
        <ele>281.32</ele>
        <time>2018-07-08T07:04:47Z</time>
      </trkpt>
      <trkpt lat="49.6133" lon="4.98556">
        <ele>281.32</ele>
        <time>2018-07-08T07:04:59Z</time>
      </trkpt>
      <trkpt lat="49.61323" lon="4.98547">
        <ele>282.77</ele>
        <time>2018-07-08T07:05:18Z</time>
      </trkpt>
      <trkpt lat="49.6131" lon="4.98529">
        <ele>279.4</ele>
        <time>2018-07-08T07:05:34Z</time>
      </trkpt>
      <trkpt lat="49.61294" lon="4.98511">
        <ele>277</ele>
        <time>2018-07-08T07:05:52Z</time>
      </trkpt>
      <trkpt lat="49.61285" lon="4.98493">
        <ele>281.32</ele>
        <time>2018-07-08T07:06:13Z</time>
      </trkpt>
      <trkpt lat="49.61272" lon="4.98469">
        <ele>287.09</ele>
        <time>2018-07-08T07:06:33Z</time>
      </trkpt>
      <trkpt lat="49.61258" lon="4.98446">
        <ele>288.53</ele>
        <time>2018-07-08T07:06:47Z</time>
      </trkpt>
      <trkpt lat="49.6125" lon="4.98434">
        <ele>290.46</ele>
        <time>2018-07-08T07:07:07Z</time>
      </trkpt>
      <trkpt lat="49.61249" lon="4.98432">
        <ele>290.94</ele>
        <time>2018-07-08T07:07:09Z</time>
      </trkpt>
      <trkpt lat="49.61229" lon="4.98411">
        <ele>295.26</ele>
        <time>2018-07-08T07:07:28Z</time>
      </trkpt>
      <trkpt lat="49.61215" lon="4.98398">
        <ele>297.18</ele>
        <time>2018-07-08T07:07:44Z</time>
      </trkpt>
      <trkpt lat="49.61207" lon="4.98392">
        <ele>297.18</ele>
        <time>2018-07-08T07:08:03Z</time>
      </trkpt>
      <trkpt lat="49.61193" lon="4.98371">
        <ele>298.15</ele>
        <time>2018-07-08T07:08:19Z</time>
      </trkpt>
      <trkpt lat="49.61192" lon="4.98366">
        <ele>298.63</ele>
        <time>2018-07-08T07:08:21Z</time>
      </trkpt>
      <trkpt lat="49.61182" lon="4.98346">
        <ele>301.99</ele>
        <time>2018-07-08T07:08:32Z</time>
      </trkpt>
      <trkpt lat="49.61177" lon="4.9834">
        <ele>303.43</ele>
        <time>2018-07-08T07:08:35Z</time>
      </trkpt>
      <trkpt lat="49.61161" lon="4.98326">
        <ele>306.8</ele>
        <time>2018-07-08T07:08:53Z</time>
      </trkpt>
      <trkpt lat="49.61154" lon="4.9831">
        <ele>307.76</ele>
        <time>2018-07-08T07:09:08Z</time>
      </trkpt>
      <trkpt lat="49.61141" lon="4.98285">
        <ele>304.39</ele>
        <time>2018-07-08T07:09:26Z</time>
      </trkpt>
      <trkpt lat="49.61136" lon="4.98276">
        <ele>302.95</ele>
        <time>2018-07-08T07:09:42Z</time>
      </trkpt>
      <trkpt lat="49.61128" lon="4.98262">
        <ele>303.43</ele>
        <time>2018-07-08T07:09:57Z</time>
      </trkpt>
      <trkpt lat="49.61121" lon="4.98246">
        <ele>303.91</ele>
        <time>2018-07-08T07:10:16Z</time>
      </trkpt>
      <trkpt lat="49.61108" lon="4.98215">
        <ele>307.28</ele>
        <time>2018-07-08T07:10:30Z</time>
      </trkpt>
      <trkpt lat="49.61097" lon="4.98199">
        <ele>309.68</ele>
        <time>2018-07-08T07:10:46Z</time>
      </trkpt>
      <trkpt lat="49.6109" lon="4.98183">
        <ele>309.68</ele>
        <time>2018-07-08T07:11:01Z</time>
      </trkpt>
      <trkpt lat="49.61082" lon="4.98172">
        <ele>310.16</ele>
        <time>2018-07-08T07:11:19Z</time>
      </trkpt>
      <trkpt lat="49.61065" lon="4.98155">
        <ele>312.57</ele>
        <time>2018-07-08T07:11:35Z</time>
      </trkpt>
      <trkpt lat="49.61045" lon="4.98136">
        <ele>317.85</ele>
        <time>2018-07-08T07:11:50Z</time>
      </trkpt>
      <trkpt lat="49.61036" lon="4.98124">
        <ele>317.85</ele>
        <time>2018-07-08T07:12:06Z</time>
      </trkpt>
      <trkpt lat="49.61033" lon="4.98119">
        <ele>317.85</ele>
        <time>2018-07-08T07:12:10Z</time>
      </trkpt>
      <trkpt lat="49.61028" lon="4.98103">
        <ele>317.37</ele>
        <time>2018-07-08T07:12:26Z</time>
      </trkpt>
      <trkpt lat="49.61021" lon="4.98101">
        <ele>313.53</ele>
        <time>2018-07-08T07:12:45Z</time>
      </trkpt>
      <trkpt lat="49.61016" lon="4.981">
        <ele>312.57</ele>
        <time>2018-07-08T07:13:04Z</time>
      </trkpt>
      <trkpt lat="49.61012" lon="4.98106">
        <ele>312.09</ele>
        <time>2018-07-08T07:13:24Z</time>
      </trkpt>
      <trkpt lat="49.61012" lon="4.98106">
        <ele>312.09</ele>
        <time>2018-07-08T07:13:25Z</time>
      </trkpt>
      <trkpt lat="49.6101" lon="4.98108">
        <ele>311.6</ele>
        <time>2018-07-08T07:13:27Z</time>
      </trkpt>
      <trkpt lat="49.61004" lon="4.98112">
        <ele>311.12</ele>
        <time>2018-07-08T07:13:38Z</time>
      </trkpt>
      <trkpt lat="49.61001" lon="4.98114">
        <ele>314.01</ele>
        <time>2018-07-08T07:13:49Z</time>
      </trkpt>
      <trkpt lat="49.60992" lon="4.98124">
        <ele>312.57</ele>
        <time>2018-07-08T07:14:03Z</time>
      </trkpt>
      <trkpt lat="49.60974" lon="4.98142">
        <ele>309.68</ele>
        <time>2018-07-08T07:14:18Z</time>
      </trkpt>
      <trkpt lat="49.60967" lon="4.98153">
        <ele>308.24</ele>
        <time>2018-07-08T07:14:35Z</time>
      </trkpt>
      <trkpt lat="49.60962" lon="4.9816">
        <ele>307.76</ele>
        <time>2018-07-08T07:14:53Z</time>
      </trkpt>
      <trkpt lat="49.60949" lon="4.98185">
        <ele>306.32</ele>
        <time>2018-07-08T07:15:11Z</time>
      </trkpt>
      <trkpt lat="49.60949" lon="4.98192">
        <ele>304.39</ele>
        <time>2018-07-08T07:15:38Z</time>
      </trkpt>
      <trkpt lat="49.60949" lon="4.98196">
        <ele>302.95</ele>
        <time>2018-07-08T07:16:14Z</time>
      </trkpt>
      <trkpt lat="49.60947" lon="4.98198">
        <ele>299.11</ele>
        <time>2018-07-08T07:16:45Z</time>
      </trkpt>
      <trkpt lat="49.60944" lon="4.98199">
        <ele>299.11</ele>
        <time>2018-07-08T07:17:08Z</time>
      </trkpt>
      <trkpt lat="49.60938" lon="4.98206">
        <ele>297.18</ele>
        <time>2018-07-08T07:17:26Z</time>
      </trkpt>
      <trkpt lat="49.60936" lon="4.98216">
        <ele>298.63</ele>
        <time>2018-07-08T07:17:41Z</time>
      </trkpt>
      <trkpt lat="49.60929" lon="4.98229">
        <ele>300.07</ele>
        <time>2018-07-08T07:17:55Z</time>
      </trkpt>
      <trkpt lat="49.60919" lon="4.98252">
        <ele>302.47</ele>
        <time>2018-07-08T07:18:13Z</time>
      </trkpt>
      <trkpt lat="49.60908" lon="4.98273">
        <ele>303.43</ele>
        <time>2018-07-08T07:18:29Z</time>
      </trkpt>
      <trkpt lat="49.60905" lon="4.98282">
        <ele>304.39</ele>
        <time>2018-07-08T07:18:47Z</time>
      </trkpt>
      <trkpt lat="49.60902" lon="4.98294">
        <ele>303.43</ele>
        <time>2018-07-08T07:19:04Z</time>
      </trkpt>
      <trkpt lat="49.60892" lon="4.9832">
        <ele>302.95</ele>
        <time>2018-07-08T07:19:20Z</time>
      </trkpt>
      <trkpt lat="49.60888" lon="4.98337">
        <ele>305.36</ele>
        <time>2018-07-08T07:19:38Z</time>
      </trkpt>
      <trkpt lat="49.60866" lon="4.98381">
        <ele>305.36</ele>
        <time>2018-07-08T07:19:55Z</time>
      </trkpt>
      <trkpt lat="49.60855" lon="4.9841">
        <ele>312.57</ele>
        <time>2018-07-08T07:20:10Z</time>
      </trkpt>
      <trkpt lat="49.6085" lon="4.98432">
        <ele>314.01</ele>
        <time>2018-07-08T07:20:27Z</time>
      </trkpt>
      <trkpt lat="49.60838" lon="4.98456">
        <ele>313.05</ele>
        <time>2018-07-08T07:20:40Z</time>
      </trkpt>
      <trkpt lat="49.60832" lon="4.9847">
        <ele>313.53</ele>
        <time>2018-07-08T07:20:54Z</time>
      </trkpt>
      <trkpt lat="49.60823" lon="4.98484">
        <ele>313.05</ele>
        <time>2018-07-08T07:21:06Z</time>
      </trkpt>
      <trkpt lat="49.60816" lon="4.98502">
        <ele>313.05</ele>
        <time>2018-07-08T07:21:20Z</time>
      </trkpt>
      <trkpt lat="49.60812" lon="4.98507">
        <ele>313.53</ele>
        <time>2018-07-08T07:21:37Z</time>
      </trkpt>
      <trkpt lat="49.60801" lon="4.98528">
        <ele>314.49</ele>
        <time>2018-07-08T07:21:55Z</time>
      </trkpt>
      <trkpt lat="49.608" lon="4.98535">
        <ele>314.49</ele>
        <time>2018-07-08T07:22:08Z</time>
      </trkpt>
      <trkpt lat="49.60798" lon="4.98541">
        <ele>314.49</ele>
        <time>2018-07-08T07:22:11Z</time>
      </trkpt>
      <trkpt lat="49.60789" lon="4.98562">
        <ele>314.97</ele>
        <time>2018-07-08T07:22:27Z</time>
      </trkpt>
      <trkpt lat="49.60777" lon="4.98579">
        <ele>316.89</ele>
        <time>2018-07-08T07:22:44Z</time>
      </trkpt>
      <trkpt lat="49.6077" lon="4.98593">
        <ele>315.93</ele>
        <time>2018-07-08T07:22:59Z</time>
      </trkpt>
      <trkpt lat="49.60768" lon="4.98599">
        <ele>315.93</ele>
        <time>2018-07-08T07:23:12Z</time>
      </trkpt>
      <trkpt lat="49.60761" lon="4.98611">
        <ele>317.37</ele>
        <time>2018-07-08T07:23:23Z</time>
      </trkpt>
      <trkpt lat="49.60759" lon="4.98614">
        <ele>317.37</ele>
        <time>2018-07-08T07:23:25Z</time>
      </trkpt>
      <trkpt lat="49.60745" lon="4.98638">
        <ele>319.78</ele>
        <time>2018-07-08T07:23:40Z</time>
      </trkpt>
      <trkpt lat="49.60738" lon="4.98656">
        <ele>319.78</ele>
        <time>2018-07-08T07:23:53Z</time>
      </trkpt>
      <trkpt lat="49.60728" lon="4.98677">
        <ele>317.85</ele>
        <time>2018-07-08T07:24:08Z</time>
      </trkpt>
      <trkpt lat="49.60721" lon="4.98696">
        <ele>320.26</ele>
        <time>2018-07-08T07:24:22Z</time>
      </trkpt>
      <trkpt lat="49.60713" lon="4.9872">
        <ele>317.85</ele>
        <time>2018-07-08T07:24:40Z</time>
      </trkpt>
      <trkpt lat="49.60706" lon="4.98738">
        <ele>316.41</ele>
        <time>2018-07-08T07:24:53Z</time>
      </trkpt>
      <trkpt lat="49.60701" lon="4.98751">
        <ele>316.41</ele>
        <time>2018-07-08T07:25:07Z</time>
      </trkpt>
      <trkpt lat="49.60686" lon="4.98771">
        <ele>319.3</ele>
        <time>2018-07-08T07:25:21Z</time>
      </trkpt>
      <trkpt lat="49.60678" lon="4.98783">
        <ele>322.18</ele>
        <time>2018-07-08T07:25:38Z</time>
      </trkpt>
      <trkpt lat="49.6067" lon="4.98804">
        <ele>326.5</ele>
        <time>2018-07-08T07:25:53Z</time>
      </trkpt>
      <trkpt lat="49.60662" lon="4.98822">
        <ele>326.5</ele>
        <time>2018-07-08T07:26:11Z</time>
      </trkpt>
      <trkpt lat="49.60654" lon="4.98844">
        <ele>329.87</ele>
        <time>2018-07-08T07:26:24Z</time>
      </trkpt>
      <trkpt lat="49.60642" lon="4.98876">
        <ele>329.87</ele>
        <time>2018-07-08T07:26:40Z</time>
      </trkpt>
      <trkpt lat="49.6063" lon="4.98892">
        <ele>329.39</ele>
        <time>2018-07-08T07:26:55Z</time>
      </trkpt>
      <trkpt lat="49.60628" lon="4.98897">
        <ele>329.39</ele>
        <time>2018-07-08T07:27:10Z</time>
      </trkpt>
      <trkpt lat="49.60625" lon="4.98898">
        <ele>330.35</ele>
        <time>2018-07-08T07:27:17Z</time>
      </trkpt>
      <trkpt lat="49.60612" lon="4.989">
        <ele>332.27</ele>
        <time>2018-07-08T07:27:30Z</time>
      </trkpt>
      <trkpt lat="49.60597" lon="4.989">
        <ele>334.2</ele>
        <time>2018-07-08T07:27:46Z</time>
      </trkpt>
      <trkpt lat="49.60577" lon="4.98903">
        <ele>335.16</ele>
        <time>2018-07-08T07:27:58Z</time>
      </trkpt>
      <trkpt lat="49.60557" lon="4.989">
        <ele>334.68</ele>
        <time>2018-07-08T07:28:16Z</time>
      </trkpt>
      <trkpt lat="49.60549" lon="4.98896">
        <ele>333.71</ele>
        <time>2018-07-08T07:28:29Z</time>
      </trkpt>
      <trkpt lat="49.60539" lon="4.98894">
        <ele>333.23</ele>
        <time>2018-07-08T07:28:42Z</time>
      </trkpt>
      <trkpt lat="49.60517" lon="4.98882">
        <ele>334.68</ele>
        <time>2018-07-08T07:28:56Z</time>
      </trkpt>
      <trkpt lat="49.60501" lon="4.98875">
        <ele>332.27</ele>
        <time>2018-07-08T07:29:11Z</time>
      </trkpt>
      <trkpt lat="49.6048" lon="4.98863">
        <ele>330.83</ele>
        <time>2018-07-08T07:29:25Z</time>
      </trkpt>
      <trkpt lat="49.60477" lon="4.98862">
        <ele>330.83</ele>
        <time>2018-07-08T07:29:27Z</time>
      </trkpt>
      <trkpt lat="49.60465" lon="4.98856">
        <ele>330.35</ele>
        <time>2018-07-08T07:29:40Z</time>
      </trkpt>
      <trkpt lat="49.60452" lon="4.98848">
        <ele>329.39</ele>
        <time>2018-07-08T07:29:57Z</time>
      </trkpt>
      <trkpt lat="49.60436" lon="4.98838">
        <ele>330.35</ele>
        <time>2018-07-08T07:30:11Z</time>
      </trkpt>
      <trkpt lat="49.60425" lon="4.98834">
        <ele>328.43</ele>
        <time>2018-07-08T07:30:24Z</time>
      </trkpt>
      <trkpt lat="49.60416" lon="4.98831">
        <ele>328.43</ele>
        <time>2018-07-08T07:30:36Z</time>
      </trkpt>
      <trkpt lat="49.60406" lon="4.98827">
        <ele>328.43</ele>
        <time>2018-07-08T07:30:51Z</time>
      </trkpt>
      <trkpt lat="49.60391" lon="4.9882">
        <ele>328.91</ele>
        <time>2018-07-08T07:31:06Z</time>
      </trkpt>
      <trkpt lat="49.60376" lon="4.98809">
        <ele>329.39</ele>
        <time>2018-07-08T07:31:22Z</time>
      </trkpt>
      <trkpt lat="49.60367" lon="4.98801">
        <ele>327.95</ele>
        <time>2018-07-08T07:31:38Z</time>
      </trkpt>
      <trkpt lat="49.60345" lon="4.9879">
        <ele>323.62</ele>
        <time>2018-07-08T07:31:51Z</time>
      </trkpt>
      <trkpt lat="49.6033" lon="4.98786">
        <ele>321.22</ele>
        <time>2018-07-08T07:32:06Z</time>
      </trkpt>
      <trkpt lat="49.60322" lon="4.98784">
        <ele>320.26</ele>
        <time>2018-07-08T07:32:20Z</time>
      </trkpt>
      <trkpt lat="49.60313" lon="4.98783">
        <ele>320.26</ele>
        <time>2018-07-08T07:32:40Z</time>
      </trkpt>
      <trkpt lat="49.60299" lon="4.9878">
        <ele>315.45</ele>
        <time>2018-07-08T07:32:59Z</time>
      </trkpt>
      <trkpt lat="49.60295" lon="4.98776">
        <ele>314.01</ele>
        <time>2018-07-08T07:33:14Z</time>
      </trkpt>
      <trkpt lat="49.60285" lon="4.98769">
        <ele>314.49</ele>
        <time>2018-07-08T07:33:28Z</time>
      </trkpt>
      <trkpt lat="49.60276" lon="4.98767">
        <ele>314.01</ele>
        <time>2018-07-08T07:33:35Z</time>
      </trkpt>
      <trkpt lat="49.60266" lon="4.98763">
        <ele>312.57</ele>
        <time>2018-07-08T07:33:47Z</time>
      </trkpt>
      <trkpt lat="49.60259" lon="4.98763">
        <ele>309.2</ele>
        <time>2018-07-08T07:34:04Z</time>
      </trkpt>
      <trkpt lat="49.60251" lon="4.9876">
        <ele>309.2</ele>
        <time>2018-07-08T07:34:16Z</time>
      </trkpt>
      <trkpt lat="49.60232" lon="4.98754">
        <ele>306.32</ele>
        <time>2018-07-08T07:34:29Z</time>
      </trkpt>
      <trkpt lat="49.60226" lon="4.98752">
        <ele>305.84</ele>
        <time>2018-07-08T07:34:34Z</time>
      </trkpt>
      <trkpt lat="49.60209" lon="4.98741">
        <ele>307.76</ele>
        <time>2018-07-08T07:34:46Z</time>
      </trkpt>
      <trkpt lat="49.60198" lon="4.9874">
        <ele>308.24</ele>
        <time>2018-07-08T07:34:59Z</time>
      </trkpt>
      <trkpt lat="49.60192" lon="4.98737">
        <ele>303.91</ele>
        <time>2018-07-08T07:35:16Z</time>
      </trkpt>
      <trkpt lat="49.60181" lon="4.98728">
        <ele>304.39</ele>
        <time>2018-07-08T07:35:30Z</time>
      </trkpt>
      <trkpt lat="49.60171" lon="4.98718">
        <ele>306.32</ele>
        <time>2018-07-08T07:35:41Z</time>
      </trkpt>
      <trkpt lat="49.60162" lon="4.98708">
        <ele>305.84</ele>
        <time>2018-07-08T07:35:53Z</time>
      </trkpt>
      <trkpt lat="49.60156" lon="4.98697">
        <ele>305.36</ele>
        <time>2018-07-08T07:36:00Z</time>
      </trkpt>
      <trkpt lat="49.60153" lon="4.98694">
        <ele>305.36</ele>
        <time>2018-07-08T07:36:03Z</time>
      </trkpt>
      <trkpt lat="49.60139" lon="4.98679">
        <ele>307.28</ele>
        <time>2018-07-08T07:36:18Z</time>
      </trkpt>
      <trkpt lat="49.60136" lon="4.98676">
        <ele>307.76</ele>
        <time>2018-07-08T07:36:21Z</time>
      </trkpt>
      <trkpt lat="49.60125" lon="4.98664">
        <ele>308.24</ele>
        <time>2018-07-08T07:36:29Z</time>
      </trkpt>
      <trkpt lat="49.60116" lon="4.98645">
        <ele>309.68</ele>
        <time>2018-07-08T07:36:44Z</time>
      </trkpt>
      <trkpt lat="49.60105" lon="4.98625">
        <ele>313.05</ele>
        <time>2018-07-08T07:36:59Z</time>
      </trkpt>
      <trkpt lat="49.60091" lon="4.98608">
        <ele>313.53</ele>
        <time>2018-07-08T07:37:14Z</time>
      </trkpt>
      <trkpt lat="49.60078" lon="4.98606">
        <ele>315.45</ele>
        <time>2018-07-08T07:37:28Z</time>
      </trkpt>
      <trkpt lat="49.60075" lon="4.98606">
        <ele>315.45</ele>
        <time>2018-07-08T07:37:34Z</time>
      </trkpt>
      <trkpt lat="49.60064" lon="4.98611">
        <ele>317.37</ele>
        <time>2018-07-08T07:37:48Z</time>
      </trkpt>
      <trkpt lat="49.60051" lon="4.98613">
        <ele>318.33</ele>
        <time>2018-07-08T07:38:03Z</time>
      </trkpt>
      <trkpt lat="49.60043" lon="4.9861">
        <ele>318.33</ele>
        <time>2018-07-08T07:38:09Z</time>
      </trkpt>
      <trkpt lat="49.60026" lon="4.98603">
        <ele>317.85</ele>
        <time>2018-07-08T07:38:24Z</time>
      </trkpt>
      <trkpt lat="49.60014" lon="4.98598">
        <ele>315.45</ele>
        <time>2018-07-08T07:38:38Z</time>
      </trkpt>
      <trkpt lat="49.6" lon="4.98587">
        <ele>314.49</ele>
        <time>2018-07-08T07:38:56Z</time>
      </trkpt>
      <trkpt lat="49.59994" lon="4.98582">
        <ele>314.97</ele>
        <time>2018-07-08T07:39:14Z</time>
      </trkpt>
      <trkpt lat="49.59994" lon="4.98581">
        <ele>314.97</ele>
        <time>2018-07-08T07:39:15Z</time>
      </trkpt>
      <trkpt lat="49.5998" lon="4.98574">
        <ele>314.97</ele>
        <time>2018-07-08T07:39:32Z</time>
      </trkpt>
      <trkpt lat="49.59977" lon="4.98573">
        <ele>314.97</ele>
        <time>2018-07-08T07:39:36Z</time>
      </trkpt>
      <trkpt lat="49.59961" lon="4.98564">
        <ele>314.49</ele>
        <time>2018-07-08T07:39:50Z</time>
      </trkpt>
      <trkpt lat="49.59949" lon="4.98557">
        <ele>314.49</ele>
        <time>2018-07-08T07:40:05Z</time>
      </trkpt>
      <trkpt lat="49.59931" lon="4.98537">
        <ele>317.37</ele>
        <time>2018-07-08T07:40:20Z</time>
      </trkpt>
      <trkpt lat="49.59917" lon="4.98509">
        <ele>316.89</ele>
        <time>2018-07-08T07:40:40Z</time>
      </trkpt>
      <trkpt lat="49.59906" lon="4.98479">
        <ele>320.74</ele>
        <time>2018-07-08T07:40:58Z</time>
      </trkpt>
      <trkpt lat="49.59895" lon="4.98453">
        <ele>322.18</ele>
        <time>2018-07-08T07:41:15Z</time>
      </trkpt>
      <trkpt lat="49.59889" lon="4.98438">
        <ele>321.7</ele>
        <time>2018-07-08T07:41:24Z</time>
      </trkpt>
      <trkpt lat="49.59874" lon="4.98404">
        <ele>320.74</ele>
        <time>2018-07-08T07:41:42Z</time>
      </trkpt>
      <trkpt lat="49.59864" lon="4.98381">
        <ele>315.93</ele>
        <time>2018-07-08T07:41:58Z</time>
      </trkpt>
      <trkpt lat="49.59856" lon="4.98359">
        <ele>314.97</ele>
        <time>2018-07-08T07:42:10Z</time>
      </trkpt>
      <trkpt lat="49.5985" lon="4.98331">
        <ele>310.64</ele>
        <time>2018-07-08T07:42:25Z</time>
      </trkpt>
      <trkpt lat="49.59843" lon="4.98322">
        <ele>309.2</ele>
        <time>2018-07-08T07:42:38Z</time>
      </trkpt>
      <trkpt lat="49.59841" lon="4.98318">
        <ele>308.72</ele>
        <time>2018-07-08T07:42:46Z</time>
      </trkpt>
      <trkpt lat="49.59833" lon="4.98289">
        <ele>309.2</ele>
        <time>2018-07-08T07:42:58Z</time>
      </trkpt>
      <trkpt lat="49.59826" lon="4.98276">
        <ele>310.64</ele>
        <time>2018-07-08T07:43:12Z</time>
      </trkpt>
      <trkpt lat="49.5982" lon="4.98248">
        <ele>312.09</ele>
        <time>2018-07-08T07:43:23Z</time>
      </trkpt>
      <trkpt lat="49.59815" lon="4.98242">
        <ele>311.6</ele>
        <time>2018-07-08T07:43:30Z</time>
      </trkpt>
      <trkpt lat="49.5981" lon="4.98227">
        <ele>310.64</ele>
        <time>2018-07-08T07:43:37Z</time>
      </trkpt>
      <trkpt lat="49.59805" lon="4.9822">
        <ele>309.68</ele>
        <time>2018-07-08T07:43:41Z</time>
      </trkpt>
      <trkpt lat="49.59801" lon="4.98212">
        <ele>309.2</ele>
        <time>2018-07-08T07:43:45Z</time>
      </trkpt>
      <trkpt lat="49.59797" lon="4.98197">
        <ele>309.68</ele>
        <time>2018-07-08T07:43:51Z</time>
      </trkpt>
      <trkpt lat="49.59795" lon="4.98193">
        <ele>308.72</ele>
        <time>2018-07-08T07:44:08Z</time>
      </trkpt>
      <trkpt lat="49.59791" lon="4.98191">
        <ele>308.24</ele>
        <time>2018-07-08T07:44:25Z</time>
      </trkpt>
      <trkpt lat="49.59789" lon="4.98184">
        <ele>308.72</ele>
        <time>2018-07-08T07:44:29Z</time>
      </trkpt>
      <trkpt lat="49.59786" lon="4.98176">
        <ele>309.2</ele>
        <time>2018-07-08T07:44:33Z</time>
      </trkpt>
      <trkpt lat="49.59783" lon="4.98165">
        <ele>309.68</ele>
        <time>2018-07-08T07:44:43Z</time>
      </trkpt>
      <trkpt lat="49.59778" lon="4.98159">
        <ele>308.72</ele>
        <time>2018-07-08T07:44:59Z</time>
      </trkpt>
      <trkpt lat="49.59776" lon="4.98153">
        <ele>308.24</ele>
        <time>2018-07-08T07:45:04Z</time>
      </trkpt>
      <trkpt lat="49.59772" lon="4.98132">
        <ele>309.68</ele>
        <time>2018-07-08T07:45:16Z</time>
      </trkpt>
      <trkpt lat="49.59771" lon="4.98131">
        <ele>310.16</ele>
        <time>2018-07-08T07:45:18Z</time>
      </trkpt>
      <trkpt lat="49.59769" lon="4.98127">
        <ele>309.68</ele>
        <time>2018-07-08T07:45:21Z</time>
      </trkpt>
      <trkpt lat="49.59766" lon="4.98118">
        <ele>310.64</ele>
        <time>2018-07-08T07:45:32Z</time>
      </trkpt>
      <trkpt lat="49.59767" lon="4.98116">
        <ele>310.64</ele>
        <time>2018-07-08T07:45:34Z</time>
      </trkpt>
      <trkpt lat="49.59764" lon="4.98107">
        <ele>310.16</ele>
        <time>2018-07-08T07:45:40Z</time>
      </trkpt>
      <trkpt lat="49.59759" lon="4.98099">
        <ele>309.2</ele>
        <time>2018-07-08T07:45:48Z</time>
      </trkpt>
      <trkpt lat="49.59753" lon="4.98086">
        <ele>309.2</ele>
        <time>2018-07-08T07:46:02Z</time>
      </trkpt>
      <trkpt lat="49.5975" lon="4.98076">
        <ele>308.24</ele>
        <time>2018-07-08T07:46:07Z</time>
      </trkpt>
      <trkpt lat="49.59742" lon="4.98061">
        <ele>306.8</ele>
        <time>2018-07-08T07:46:20Z</time>
      </trkpt>
      <trkpt lat="49.59731" lon="4.98036">
        <ele>307.28</ele>
        <time>2018-07-08T07:46:35Z</time>
      </trkpt>
      <trkpt lat="49.59731" lon="4.98035">
        <ele>307.28</ele>
        <time>2018-07-08T07:46:36Z</time>
      </trkpt>
      <trkpt lat="49.59723" lon="4.98021">
        <ele>306.8</ele>
        <time>2018-07-08T07:46:51Z</time>
      </trkpt>
      <trkpt lat="49.59716" lon="4.98009">
        <ele>305.36</ele>
        <time>2018-07-08T07:47:00Z</time>
      </trkpt>
      <trkpt lat="49.59708" lon="4.97992">
        <ele>302.95</ele>
        <time>2018-07-08T07:47:13Z</time>
      </trkpt>
      <trkpt lat="49.59697" lon="4.97963">
        <ele>300.07</ele>
        <time>2018-07-08T07:47:30Z</time>
      </trkpt>
      <trkpt lat="49.59687" lon="4.9794">
        <ele>298.63</ele>
        <time>2018-07-08T07:47:44Z</time>
      </trkpt>
      <trkpt lat="49.5968" lon="4.97933">
        <ele>296.7</ele>
        <time>2018-07-08T07:47:58Z</time>
      </trkpt>
      <trkpt lat="49.59671" lon="4.97915">
        <ele>296.22</ele>
        <time>2018-07-08T07:48:15Z</time>
      </trkpt>
      <trkpt lat="49.59664" lon="4.97901">
        <ele>294.3</ele>
        <time>2018-07-08T07:48:31Z</time>
      </trkpt>
      <trkpt lat="49.59662" lon="4.97898">
        <ele>293.82</ele>
        <time>2018-07-08T07:48:34Z</time>
      </trkpt>
      <trkpt lat="49.59658" lon="4.97887">
        <ele>293.82</ele>
        <time>2018-07-08T07:48:41Z</time>
      </trkpt>
      <trkpt lat="49.59646" lon="4.97861">
        <ele>294.3</ele>
        <time>2018-07-08T07:48:55Z</time>
      </trkpt>
      <trkpt lat="49.59643" lon="4.9785">
        <ele>295.26</ele>
        <time>2018-07-08T07:49:01Z</time>
      </trkpt>
      <trkpt lat="49.59638" lon="4.97843">
        <ele>296.22</ele>
        <time>2018-07-08T07:49:06Z</time>
      </trkpt>
      <trkpt lat="49.59632" lon="4.97826">
        <ele>299.59</ele>
        <time>2018-07-08T07:49:19Z</time>
      </trkpt>
      <trkpt lat="49.59631" lon="4.97824">
        <ele>299.59</ele>
        <time>2018-07-08T07:49:21Z</time>
      </trkpt>
      <trkpt lat="49.59626" lon="4.97813">
        <ele>299.59</ele>
        <time>2018-07-08T07:49:27Z</time>
      </trkpt>
      <trkpt lat="49.59619" lon="4.97799">
        <ele>301.51</ele>
        <time>2018-07-08T07:49:38Z</time>
      </trkpt>
      <trkpt lat="49.59615" lon="4.97795">
        <ele>301.03</ele>
        <time>2018-07-08T07:49:41Z</time>
      </trkpt>
      <trkpt lat="49.59609" lon="4.97784">
        <ele>300.55</ele>
        <time>2018-07-08T07:49:47Z</time>
      </trkpt>
      <trkpt lat="49.59607" lon="4.9778">
        <ele>300.55</ele>
        <time>2018-07-08T07:49:49Z</time>
      </trkpt>
      <trkpt lat="49.59603" lon="4.97763">
        <ele>302.95</ele>
        <time>2018-07-08T07:49:56Z</time>
      </trkpt>
      <trkpt lat="49.59597" lon="4.97746">
        <ele>306.32</ele>
        <time>2018-07-08T07:50:06Z</time>
      </trkpt>
      <trkpt lat="49.59591" lon="4.97744">
        <ele>306.8</ele>
        <time>2018-07-08T07:50:19Z</time>
      </trkpt>
      <trkpt lat="49.59586" lon="4.97732">
        <ele>305.36</ele>
        <time>2018-07-08T07:50:33Z</time>
      </trkpt>
      <trkpt lat="49.59584" lon="4.97729">
        <ele>304.88</ele>
        <time>2018-07-08T07:50:35Z</time>
      </trkpt>
      <trkpt lat="49.59581" lon="4.97718">
        <ele>305.36</ele>
        <time>2018-07-08T07:50:40Z</time>
      </trkpt>
      <trkpt lat="49.59568" lon="4.97705">
        <ele>302.47</ele>
        <time>2018-07-08T07:50:58Z</time>
      </trkpt>
      <trkpt lat="49.59557" lon="4.97688">
        <ele>301.51</ele>
        <time>2018-07-08T07:51:12Z</time>
      </trkpt>
      <trkpt lat="49.59551" lon="4.9768">
        <ele>300.55</ele>
        <time>2018-07-08T07:51:24Z</time>
      </trkpt>
      <trkpt lat="49.5954" lon="4.97658">
        <ele>300.07</ele>
        <time>2018-07-08T07:51:39Z</time>
      </trkpt>
      <trkpt lat="49.59529" lon="4.97639">
        <ele>298.15</ele>
        <time>2018-07-08T07:51:53Z</time>
      </trkpt>
      <trkpt lat="49.59519" lon="4.97621">
        <ele>297.18</ele>
        <time>2018-07-08T07:52:09Z</time>
      </trkpt>
      <trkpt lat="49.59505" lon="4.97596">
        <ele>298.63</ele>
        <time>2018-07-08T07:52:22Z</time>
      </trkpt>
      <trkpt lat="49.59498" lon="4.97586">
        <ele>298.15</ele>
        <time>2018-07-08T07:52:33Z</time>
      </trkpt>
      <trkpt lat="49.59492" lon="4.97574">
        <ele>298.15</ele>
        <time>2018-07-08T07:52:40Z</time>
      </trkpt>
      <trkpt lat="49.59487" lon="4.97566">
        <ele>298.15</ele>
        <time>2018-07-08T07:52:45Z</time>
      </trkpt>
      <trkpt lat="49.5948" lon="4.97555">
        <ele>297.18</ele>
        <time>2018-07-08T07:52:57Z</time>
      </trkpt>
      <trkpt lat="49.59469" lon="4.97536">
        <ele>296.7</ele>
        <time>2018-07-08T07:53:11Z</time>
      </trkpt>
      <trkpt lat="49.59456" lon="4.97513">
        <ele>295.26</ele>
        <time>2018-07-08T07:53:29Z</time>
      </trkpt>
      <trkpt lat="49.59444" lon="4.97492">
        <ele>295.74</ele>
        <time>2018-07-08T07:53:45Z</time>
      </trkpt>
      <trkpt lat="49.59443" lon="4.97489">
        <ele>294.78</ele>
        <time>2018-07-08T07:53:48Z</time>
      </trkpt>
      <trkpt lat="49.5944" lon="4.97481">
        <ele>293.82</ele>
        <time>2018-07-08T07:53:52Z</time>
      </trkpt>
      <trkpt lat="49.59424" lon="4.97455">
        <ele>294.78</ele>
        <time>2018-07-08T07:54:08Z</time>
      </trkpt>
      <trkpt lat="49.59419" lon="4.97442">
        <ele>296.22</ele>
        <time>2018-07-08T07:54:22Z</time>
      </trkpt>
      <trkpt lat="49.59404" lon="4.97432">
        <ele>296.22</ele>
        <time>2018-07-08T07:54:34Z</time>
      </trkpt>
      <trkpt lat="49.59404" lon="4.97432">
        <ele>296.22</ele>
        <time>2018-07-08T07:54:35Z</time>
      </trkpt>
      <trkpt lat="49.59394" lon="4.97453">
        <ele>295.74</ele>
        <time>2018-07-08T07:54:49Z</time>
      </trkpt>
      <trkpt lat="49.59382" lon="4.97472">
        <ele>297.18</ele>
        <time>2018-07-08T07:55:04Z</time>
      </trkpt>
      <trkpt lat="49.59369" lon="4.97495">
        <ele>300.07</ele>
        <time>2018-07-08T07:55:20Z</time>
      </trkpt>
      <trkpt lat="49.59353" lon="4.97516">
        <ele>301.99</ele>
        <time>2018-07-08T07:55:34Z</time>
      </trkpt>
      <trkpt lat="49.59344" lon="4.97531">
        <ele>302.47</ele>
        <time>2018-07-08T07:55:49Z</time>
      </trkpt>
      <trkpt lat="49.59326" lon="4.97554">
        <ele>304.88</ele>
        <time>2018-07-08T07:56:02Z</time>
      </trkpt>
      <trkpt lat="49.59319" lon="4.97567">
        <ele>304.88</ele>
        <time>2018-07-08T07:56:16Z</time>
      </trkpt>
      <trkpt lat="49.59304" lon="4.97588">
        <ele>305.84</ele>
        <time>2018-07-08T07:56:33Z</time>
      </trkpt>
      <trkpt lat="49.59293" lon="4.97603">
        <ele>307.28</ele>
        <time>2018-07-08T07:56:46Z</time>
      </trkpt>
      <trkpt lat="49.59275" lon="4.97624">
        <ele>310.64</ele>
        <time>2018-07-08T07:57:01Z</time>
      </trkpt>
      <trkpt lat="49.59264" lon="4.97641">
        <ele>310.64</ele>
        <time>2018-07-08T07:57:17Z</time>
      </trkpt>
      <trkpt lat="49.59258" lon="4.97647">
        <ele>309.2</ele>
        <time>2018-07-08T07:57:24Z</time>
      </trkpt>
      <trkpt lat="49.5924" lon="4.97669">
        <ele>309.68</ele>
        <time>2018-07-08T07:57:40Z</time>
      </trkpt>
      <trkpt lat="49.59221" lon="4.97692">
        <ele>316.89</ele>
        <time>2018-07-08T07:57:58Z</time>
      </trkpt>
      <trkpt lat="49.59207" lon="4.97709">
        <ele>326.02</ele>
        <time>2018-07-08T07:58:12Z</time>
      </trkpt>
      <trkpt lat="49.59194" lon="4.97727">
        <ele>330.35</ele>
        <time>2018-07-08T07:58:28Z</time>
      </trkpt>
      <trkpt lat="49.5918" lon="4.97742">
        <ele>338.52</ele>
        <time>2018-07-08T07:58:43Z</time>
      </trkpt>
      <trkpt lat="49.59167" lon="4.97753">
        <ele>336.6</ele>
        <time>2018-07-08T07:58:56Z</time>
      </trkpt>
      <trkpt lat="49.59158" lon="4.97761">
        <ele>331.31</ele>
        <time>2018-07-08T07:59:10Z</time>
      </trkpt>
      <trkpt lat="49.59145" lon="4.97766">
        <ele>323.62</ele>
        <time>2018-07-08T07:59:29Z</time>
      </trkpt>
      <trkpt lat="49.59127" lon="4.97782">
        <ele>317.85</ele>
        <time>2018-07-08T07:59:42Z</time>
      </trkpt>
      <trkpt lat="49.59106" lon="4.97798">
        <ele>312.09</ele>
        <time>2018-07-08T08:00:00Z</time>
      </trkpt>
      <trkpt lat="49.59098" lon="4.97803">
        <ele>311.12</ele>
        <time>2018-07-08T08:00:10Z</time>
      </trkpt>
      <trkpt lat="49.59077" lon="4.97819">
        <ele>314.97</ele>
        <time>2018-07-08T08:00:28Z</time>
      </trkpt>
      <trkpt lat="49.59065" lon="4.97829">
        <ele>315.93</ele>
        <time>2018-07-08T08:00:45Z</time>
      </trkpt>
      <trkpt lat="49.59055" lon="4.97836">
        <ele>311.6</ele>
        <time>2018-07-08T08:01:02Z</time>
      </trkpt>
      <trkpt lat="49.59036" lon="4.97852">
        <ele>305.84</ele>
        <time>2018-07-08T08:01:18Z</time>
      </trkpt>
      <trkpt lat="49.59031" lon="4.97856">
        <ele>305.36</ele>
        <time>2018-07-08T08:01:23Z</time>
      </trkpt>
      <trkpt lat="49.59025" lon="4.97861">
        <ele>304.39</ele>
        <time>2018-07-08T08:01:36Z</time>
      </trkpt>
      <trkpt lat="49.59012" lon="4.97872">
        <ele>302.47</ele>
        <time>2018-07-08T08:01:47Z</time>
      </trkpt>
      <trkpt lat="49.59007" lon="4.97877">
        <ele>301.03</ele>
        <time>2018-07-08T08:01:53Z</time>
      </trkpt>
      <trkpt lat="49.58993" lon="4.97892">
        <ele>300.07</ele>
        <time>2018-07-08T08:02:07Z</time>
      </trkpt>
      <trkpt lat="49.5898" lon="4.97907">
        <ele>296.22</ele>
        <time>2018-07-08T08:02:23Z</time>
      </trkpt>
      <trkpt lat="49.58967" lon="4.97921">
        <ele>293.82</ele>
        <time>2018-07-08T08:02:34Z</time>
      </trkpt>
      <trkpt lat="49.58965" lon="4.97924">
        <ele>293.34</ele>
        <time>2018-07-08T08:02:36Z</time>
      </trkpt>
      <trkpt lat="49.5896" lon="4.9793">
        <ele>292.38</ele>
        <time>2018-07-08T08:02:40Z</time>
      </trkpt>
      <trkpt lat="49.58944" lon="4.97944">
        <ele>290.46</ele>
        <time>2018-07-08T08:02:55Z</time>
      </trkpt>
      <trkpt lat="49.58942" lon="4.97946">
        <ele>289.97</ele>
        <time>2018-07-08T08:02:58Z</time>
      </trkpt>
      <trkpt lat="49.58933" lon="4.97957">
        <ele>289.49</ele>
        <time>2018-07-08T08:03:06Z</time>
      </trkpt>
      <trkpt lat="49.58917" lon="4.97973">
        <ele>288.53</ele>
        <time>2018-07-08T08:03:23Z</time>
      </trkpt>
      <trkpt lat="49.58904" lon="4.97986">
        <ele>289.97</ele>
        <time>2018-07-08T08:03:39Z</time>
      </trkpt>
      <trkpt lat="49.58881" lon="4.98011">
        <ele>287.57</ele>
        <time>2018-07-08T08:03:59Z</time>
      </trkpt>
      <trkpt lat="49.58865" lon="4.98025">
        <ele>287.09</ele>
        <time>2018-07-08T08:04:12Z</time>
      </trkpt>
      <trkpt lat="49.58854" lon="4.98039">
        <ele>289.49</ele>
        <time>2018-07-08T08:04:27Z</time>
      </trkpt>
      <trkpt lat="49.58842" lon="4.98064">
        <ele>289.01</ele>
        <time>2018-07-08T08:04:40Z</time>
      </trkpt>
      <trkpt lat="49.58836" lon="4.98086">
        <ele>288.53</ele>
        <time>2018-07-08T08:04:54Z</time>
      </trkpt>
      <trkpt lat="49.58828" lon="4.98117">
        <ele>287.09</ele>
        <time>2018-07-08T08:05:08Z</time>
      </trkpt>
      <trkpt lat="49.58827" lon="4.98121">
        <ele>287.09</ele>
        <time>2018-07-08T08:05:10Z</time>
      </trkpt>
      <trkpt lat="49.58822" lon="4.98144">
        <ele>288.05</ele>
        <time>2018-07-08T08:05:28Z</time>
      </trkpt>
      <trkpt lat="49.58814" lon="4.98176">
        <ele>291.9</ele>
        <time>2018-07-08T08:05:47Z</time>
      </trkpt>
      <trkpt lat="49.58801" lon="4.98205">
        <ele>292.86</ele>
        <time>2018-07-08T08:06:02Z</time>
      </trkpt>
      <trkpt lat="49.58793" lon="4.98226">
        <ele>297.67</ele>
        <time>2018-07-08T08:06:14Z</time>
      </trkpt>
      <trkpt lat="49.58782" lon="4.98242">
        <ele>299.59</ele>
        <time>2018-07-08T08:06:30Z</time>
      </trkpt>
      <trkpt lat="49.58764" lon="4.98264">
        <ele>299.59</ele>
        <time>2018-07-08T08:06:44Z</time>
      </trkpt>
      <trkpt lat="49.58763" lon="4.98265">
        <ele>300.07</ele>
        <time>2018-07-08T08:06:45Z</time>
      </trkpt>
      <trkpt lat="49.58748" lon="4.98279">
        <ele>302.47</ele>
        <time>2018-07-08T08:07:02Z</time>
      </trkpt>
      <trkpt lat="49.58735" lon="4.9829">
        <ele>301.03</ele>
        <time>2018-07-08T08:07:18Z</time>
      </trkpt>
      <trkpt lat="49.58719" lon="4.98304">
        <ele>301.51</ele>
        <time>2018-07-08T08:07:31Z</time>
      </trkpt>
      <trkpt lat="49.58717" lon="4.98305">
        <ele>301.99</ele>
        <time>2018-07-08T08:07:32Z</time>
      </trkpt>
      <trkpt lat="49.587" lon="4.98319">
        <ele>301.51</ele>
        <time>2018-07-08T08:07:50Z</time>
      </trkpt>
      <trkpt lat="49.58684" lon="4.9833">
        <ele>304.88</ele>
        <time>2018-07-08T08:08:04Z</time>
      </trkpt>
      <trkpt lat="49.58666" lon="4.98341">
        <ele>304.39</ele>
        <time>2018-07-08T08:08:20Z</time>
      </trkpt>
      <trkpt lat="49.58651" lon="4.98351">
        <ele>302.95</ele>
        <time>2018-07-08T08:08:36Z</time>
      </trkpt>
      <trkpt lat="49.58642" lon="4.98354">
        <ele>302.47</ele>
        <time>2018-07-08T08:08:43Z</time>
      </trkpt>
      <trkpt lat="49.58621" lon="4.9836">
        <ele>301.99</ele>
        <time>2018-07-08T08:08:58Z</time>
      </trkpt>
      <trkpt lat="49.58607" lon="4.98365">
        <ele>304.88</ele>
        <time>2018-07-08T08:09:11Z</time>
      </trkpt>
      <trkpt lat="49.58596" lon="4.98371">
        <ele>302.95</ele>
        <time>2018-07-08T08:09:22Z</time>
      </trkpt>
      <trkpt lat="49.58577" lon="4.98377">
        <ele>300.07</ele>
        <time>2018-07-08T08:09:40Z</time>
      </trkpt>
      <trkpt lat="49.58558" lon="4.98388">
        <ele>298.15</ele>
        <time>2018-07-08T08:09:55Z</time>
      </trkpt>
      <trkpt lat="49.5854" lon="4.98399">
        <ele>296.7</ele>
        <time>2018-07-08T08:10:12Z</time>
      </trkpt>
      <trkpt lat="49.58523" lon="4.98411">
        <ele>304.88</ele>
        <time>2018-07-08T08:10:27Z</time>
      </trkpt>
      <trkpt lat="49.58509" lon="4.98421">
        <ele>307.28</ele>
        <time>2018-07-08T08:10:42Z</time>
      </trkpt>
      <trkpt lat="49.58499" lon="4.98428">
        <ele>307.76</ele>
        <time>2018-07-08T08:10:55Z</time>
      </trkpt>
      <trkpt lat="49.58479" lon="4.98434">
        <ele>305.84</ele>
        <time>2018-07-08T08:11:08Z</time>
      </trkpt>
      <trkpt lat="49.58468" lon="4.9844">
        <ele>307.28</ele>
        <time>2018-07-08T08:11:24Z</time>
      </trkpt>
      <trkpt lat="49.58455" lon="4.98445">
        <ele>301.51</ele>
        <time>2018-07-08T08:11:33Z</time>
      </trkpt>
      <trkpt lat="49.58434" lon="4.98452">
        <ele>298.15</ele>
        <time>2018-07-08T08:11:50Z</time>
      </trkpt>
      <trkpt lat="49.58413" lon="4.98459">
        <ele>296.7</ele>
        <time>2018-07-08T08:12:06Z</time>
      </trkpt>
      <trkpt lat="49.58398" lon="4.98458">
        <ele>300.55</ele>
        <time>2018-07-08T08:12:21Z</time>
      </trkpt>
      <trkpt lat="49.58384" lon="4.98445">
        <ele>298.63</ele>
        <time>2018-07-08T08:12:37Z</time>
      </trkpt>
      <trkpt lat="49.58361" lon="4.98422">
        <ele>292.38</ele>
        <time>2018-07-08T08:12:55Z</time>
      </trkpt>
      <trkpt lat="49.58355" lon="4.98416">
        <ele>290.46</ele>
        <time>2018-07-08T08:13:08Z</time>
      </trkpt>
      <trkpt lat="49.58349" lon="4.98408">
        <ele>287.57</ele>
        <time>2018-07-08T08:13:22Z</time>
      </trkpt>
      <trkpt lat="49.58334" lon="4.98392">
        <ele>285.17</ele>
        <time>2018-07-08T08:13:37Z</time>
      </trkpt>
      <trkpt lat="49.58319" lon="4.98372">
        <ele>283.25</ele>
        <time>2018-07-08T08:13:55Z</time>
      </trkpt>
      <trkpt lat="49.58301" lon="4.98349">
        <ele>283.25</ele>
        <time>2018-07-08T08:14:09Z</time>
      </trkpt>
      <trkpt lat="49.58288" lon="4.98338">
        <ele>284.69</ele>
        <time>2018-07-08T08:14:22Z</time>
      </trkpt>
      <trkpt lat="49.58269" lon="4.98328">
        <ele>286.61</ele>
        <time>2018-07-08T08:14:37Z</time>
      </trkpt>
      <trkpt lat="49.58253" lon="4.98333">
        <ele>288.05</ele>
        <time>2018-07-08T08:14:51Z</time>
      </trkpt>
      <trkpt lat="49.58242" lon="4.98344">
        <ele>287.57</ele>
        <time>2018-07-08T08:15:06Z</time>
      </trkpt>
      <trkpt lat="49.58238" lon="4.9835">
        <ele>286.61</ele>
        <time>2018-07-08T08:15:13Z</time>
      </trkpt>
      <trkpt lat="49.58223" lon="4.98374">
        <ele>284.21</ele>
        <time>2018-07-08T08:15:29Z</time>
      </trkpt>
      <trkpt lat="49.5821" lon="4.98398">
        <ele>285.65</ele>
        <time>2018-07-08T08:15:47Z</time>
      </trkpt>
      <trkpt lat="49.58204" lon="4.98405">
        <ele>284.69</ele>
        <time>2018-07-08T08:16:00Z</time>
      </trkpt>
      <trkpt lat="49.58186" lon="4.98435">
        <ele>284.21</ele>
        <time>2018-07-08T08:16:19Z</time>
      </trkpt>
      <trkpt lat="49.58175" lon="4.98452">
        <ele>284.69</ele>
        <time>2018-07-08T08:16:32Z</time>
      </trkpt>
      <trkpt lat="49.58163" lon="4.98471">
        <ele>284.21</ele>
        <time>2018-07-08T08:16:48Z</time>
      </trkpt>
      <trkpt lat="49.58152" lon="4.98485">
        <ele>283.73</ele>
        <time>2018-07-08T08:17:03Z</time>
      </trkpt>
      <trkpt lat="49.58145" lon="4.98482">
        <ele>284.69</ele>
        <time>2018-07-08T08:17:08Z</time>
      </trkpt>
      <trkpt lat="49.58135" lon="4.98467">
        <ele>283.73</ele>
        <time>2018-07-08T08:17:20Z</time>
      </trkpt>
      <trkpt lat="49.58123" lon="4.98448">
        <ele>282.28</ele>
        <time>2018-07-08T08:17:33Z</time>
      </trkpt>
      <trkpt lat="49.58109" lon="4.98437">
        <ele>279.88</ele>
        <time>2018-07-08T08:17:51Z</time>
      </trkpt>
      <trkpt lat="49.58097" lon="4.98415">
        <ele>277.48</ele>
        <time>2018-07-08T08:18:10Z</time>
      </trkpt>
      <trkpt lat="49.58083" lon="4.98393">
        <ele>275.56</ele>
        <time>2018-07-08T08:18:27Z</time>
      </trkpt>
      <trkpt lat="49.58065" lon="4.98374">
        <ele>273.63</ele>
        <time>2018-07-08T08:18:41Z</time>
      </trkpt>
      <trkpt lat="49.58047" lon="4.98355">
        <ele>269.31</ele>
        <time>2018-07-08T08:18:54Z</time>
      </trkpt>
      <trkpt lat="49.58042" lon="4.98351">
        <ele>267.86</ele>
        <time>2018-07-08T08:18:58Z</time>
      </trkpt>
      <trkpt lat="49.5803" lon="4.98346">
        <ele>268.35</ele>
        <time>2018-07-08T08:19:13Z</time>
      </trkpt>
      <trkpt lat="49.58029" lon="4.98346">
        <ele>268.35</ele>
        <time>2018-07-08T08:19:14Z</time>
      </trkpt>
      <trkpt lat="49.58012" lon="4.9835">
        <ele>268.83</ele>
        <time>2018-07-08T08:19:28Z</time>
      </trkpt>
      <trkpt lat="49.58008" lon="4.98353">
        <ele>270.75</ele>
        <time>2018-07-08T08:19:33Z</time>
      </trkpt>
      <trkpt lat="49.57998" lon="4.98373">
        <ele>273.15</ele>
        <time>2018-07-08T08:19:48Z</time>
      </trkpt>
      <trkpt lat="49.57993" lon="4.98386">
        <ele>272.67</ele>
        <time>2018-07-08T08:19:56Z</time>
      </trkpt>
      <trkpt lat="49.5798" lon="4.98407">
        <ele>274.59</ele>
        <time>2018-07-08T08:20:13Z</time>
      </trkpt>
      <trkpt lat="49.57979" lon="4.98408">
        <ele>274.59</ele>
        <time>2018-07-08T08:20:14Z</time>
      </trkpt>
      <trkpt lat="49.57977" lon="4.98415">
        <ele>275.07</ele>
        <time>2018-07-08T08:20:17Z</time>
      </trkpt>
      <trkpt lat="49.57959" lon="4.98439">
        <ele>277.48</ele>
        <time>2018-07-08T08:20:31Z</time>
      </trkpt>
      <trkpt lat="49.57955" lon="4.98445">
        <ele>277</ele>
        <time>2018-07-08T08:20:35Z</time>
      </trkpt>
      <trkpt lat="49.57945" lon="4.98458">
        <ele>276.04</ele>
        <time>2018-07-08T08:20:49Z</time>
      </trkpt>
      <trkpt lat="49.57945" lon="4.98459">
        <ele>276.04</ele>
        <time>2018-07-08T08:20:50Z</time>
      </trkpt>
      <trkpt lat="49.57931" lon="4.98478">
        <ele>276.52</ele>
        <time>2018-07-08T08:21:01Z</time>
      </trkpt>
      <trkpt lat="49.5793" lon="4.9848">
        <ele>276.52</ele>
        <time>2018-07-08T08:21:03Z</time>
      </trkpt>
      <trkpt lat="49.57926" lon="4.98486">
        <ele>276.04</ele>
        <time>2018-07-08T08:21:07Z</time>
      </trkpt>
      <trkpt lat="49.57924" lon="4.98488">
        <ele>276.04</ele>
        <time>2018-07-08T08:21:09Z</time>
      </trkpt>
      <trkpt lat="49.57915" lon="4.98501">
        <ele>276.04</ele>
        <time>2018-07-08T08:21:21Z</time>
      </trkpt>
      <trkpt lat="49.5791" lon="4.9851">
        <ele>276.52</ele>
        <time>2018-07-08T08:21:27Z</time>
      </trkpt>
      <trkpt lat="49.57898" lon="4.98535">
        <ele>277</ele>
        <time>2018-07-08T08:21:45Z</time>
      </trkpt>
      <trkpt lat="49.57894" lon="4.98541">
        <ele>277</ele>
        <time>2018-07-08T08:21:49Z</time>
      </trkpt>
      <trkpt lat="49.57881" lon="4.98557">
        <ele>279.4</ele>
        <time>2018-07-08T08:21:58Z</time>
      </trkpt>
      <trkpt lat="49.57876" lon="4.98561">
        <ele>280.84</ele>
        <time>2018-07-08T08:22:01Z</time>
      </trkpt>
      <trkpt lat="49.57864" lon="4.98584">
        <ele>279.88</ele>
        <time>2018-07-08T08:22:16Z</time>
      </trkpt>
      <trkpt lat="49.57861" lon="4.9859">
        <ele>280.36</ele>
        <time>2018-07-08T08:22:20Z</time>
      </trkpt>
      <trkpt lat="49.57858" lon="4.98598">
        <ele>281.8</ele>
        <time>2018-07-08T08:22:27Z</time>
      </trkpt>
      <trkpt lat="49.57851" lon="4.98617">
        <ele>283.25</ele>
        <time>2018-07-08T08:22:42Z</time>
      </trkpt>
      <trkpt lat="49.57839" lon="4.98636">
        <ele>279.88</ele>
        <time>2018-07-08T08:22:56Z</time>
      </trkpt>
      <trkpt lat="49.57826" lon="4.98655">
        <ele>277.96</ele>
        <time>2018-07-08T08:23:08Z</time>
      </trkpt>
      <trkpt lat="49.57821" lon="4.98671">
        <ele>275.56</ele>
        <time>2018-07-08T08:23:20Z</time>
      </trkpt>
      <trkpt lat="49.57817" lon="4.98684">
        <ele>273.15</ele>
        <time>2018-07-08T08:23:31Z</time>
      </trkpt>
      <trkpt lat="49.57812" lon="4.98696">
        <ele>270.75</ele>
        <time>2018-07-08T08:23:38Z</time>
      </trkpt>
      <trkpt lat="49.57811" lon="4.98696">
        <ele>270.27</ele>
        <time>2018-07-08T08:23:44Z</time>
      </trkpt>
      <trkpt lat="49.57797" lon="4.98714">
        <ele>269.79</ele>
        <time>2018-07-08T08:23:56Z</time>
      </trkpt>
      <trkpt lat="49.57785" lon="4.98719">
        <ele>271.23</ele>
        <time>2018-07-08T08:24:07Z</time>
      </trkpt>
      <trkpt lat="49.57769" lon="4.98713">
        <ele>271.23</ele>
        <time>2018-07-08T08:24:20Z</time>
      </trkpt>
      <trkpt lat="49.57754" lon="4.98702">
        <ele>266.9</ele>
        <time>2018-07-08T08:24:36Z</time>
      </trkpt>
      <trkpt lat="49.57745" lon="4.98692">
        <ele>265.46</ele>
        <time>2018-07-08T08:24:49Z</time>
      </trkpt>
      <trkpt lat="49.57736" lon="4.98687">
        <ele>262.58</ele>
        <time>2018-07-08T08:24:55Z</time>
      </trkpt>
      <trkpt lat="49.5773" lon="4.98683">
        <ele>260.17</ele>
        <time>2018-07-08T08:24:59Z</time>
      </trkpt>
      <trkpt lat="49.57723" lon="4.98675">
        <ele>256.81</ele>
        <time>2018-07-08T08:25:05Z</time>
      </trkpt>
      <trkpt lat="49.57709" lon="4.98666">
        <ele>254.41</ele>
        <time>2018-07-08T08:25:19Z</time>
      </trkpt>
      <trkpt lat="49.57694" lon="4.98655">
        <ele>252</ele>
        <time>2018-07-08T08:25:35Z</time>
      </trkpt>
      <trkpt lat="49.57677" lon="4.98642">
        <ele>247.2</ele>
        <time>2018-07-08T08:25:50Z</time>
      </trkpt>
      <trkpt lat="49.57666" lon="4.98632">
        <ele>245.27</ele>
        <time>2018-07-08T08:26:03Z</time>
      </trkpt>
      <trkpt lat="49.57653" lon="4.98622">
        <ele>241.43</ele>
        <time>2018-07-08T08:26:16Z</time>
      </trkpt>
      <trkpt lat="49.5764" lon="4.98613">
        <ele>236.62</ele>
        <time>2018-07-08T08:26:29Z</time>
      </trkpt>
      <trkpt lat="49.57627" lon="4.98602">
        <ele>232.78</ele>
        <time>2018-07-08T08:26:42Z</time>
      </trkpt>
      <trkpt lat="49.57609" lon="4.98591">
        <ele>236.14</ele>
        <time>2018-07-08T08:27:00Z</time>
      </trkpt>
      <trkpt lat="49.57597" lon="4.98613">
        <ele>230.37</ele>
        <time>2018-07-08T08:27:12Z</time>
      </trkpt>
      <trkpt lat="49.57595" lon="4.98622">
        <ele>228.45</ele>
        <time>2018-07-08T08:27:17Z</time>
      </trkpt>
      <trkpt lat="49.57593" lon="4.98623">
        <ele>229.41</ele>
        <time>2018-07-08T08:27:31Z</time>
      </trkpt>
      <trkpt lat="49.57583" lon="4.98637">
        <ele>231.33</ele>
        <time>2018-07-08T08:27:45Z</time>
      </trkpt>
      <trkpt lat="49.57576" lon="4.98657">
        <ele>236.14</ele>
        <time>2018-07-08T08:28:00Z</time>
      </trkpt>
      <trkpt lat="49.57567" lon="4.98675">
        <ele>244.31</ele>
        <time>2018-07-08T08:28:13Z</time>
      </trkpt>
      <trkpt lat="49.57565" lon="4.98677">
        <ele>244.79</ele>
        <time>2018-07-08T08:28:15Z</time>
      </trkpt>
      <trkpt lat="49.57552" lon="4.98699">
        <ele>244.79</ele>
        <time>2018-07-08T08:28:32Z</time>
      </trkpt>
      <trkpt lat="49.57542" lon="4.98713">
        <ele>245.75</ele>
        <time>2018-07-08T08:28:41Z</time>
      </trkpt>
      <trkpt lat="49.57533" lon="4.98725">
        <ele>245.27</ele>
        <time>2018-07-08T08:28:56Z</time>
      </trkpt>
      <trkpt lat="49.57521" lon="4.98743">
        <ele>244.79</ele>
        <time>2018-07-08T08:29:08Z</time>
      </trkpt>
      <trkpt lat="49.57506" lon="4.98762">
        <ele>244.79</ele>
        <time>2018-07-08T08:29:22Z</time>
      </trkpt>
      <trkpt lat="49.57493" lon="4.98774">
        <ele>245.75</ele>
        <time>2018-07-08T08:29:32Z</time>
      </trkpt>
      <trkpt lat="49.57481" lon="4.9879">
        <ele>248.16</ele>
        <time>2018-07-08T08:29:44Z</time>
      </trkpt>
      <trkpt lat="49.57471" lon="4.98805">
        <ele>247.68</ele>
        <time>2018-07-08T08:29:54Z</time>
      </trkpt>
      <trkpt lat="49.57456" lon="4.98824">
        <ele>242.87</ele>
        <time>2018-07-08T08:30:06Z</time>
      </trkpt>
      <trkpt lat="49.57448" lon="4.98839">
        <ele>240.95</ele>
        <time>2018-07-08T08:30:15Z</time>
      </trkpt>
      <trkpt lat="49.57436" lon="4.98857">
        <ele>232.3</ele>
        <time>2018-07-08T08:30:31Z</time>
      </trkpt>
      <trkpt lat="49.5743" lon="4.98863">
        <ele>229.41</ele>
        <time>2018-07-08T08:30:39Z</time>
      </trkpt>
      <trkpt lat="49.57407" lon="4.98885">
        <ele>232.78</ele>
        <time>2018-07-08T08:30:57Z</time>
      </trkpt>
      <trkpt lat="49.57403" lon="4.98894">
        <ele>233.74</ele>
        <time>2018-07-08T08:31:02Z</time>
      </trkpt>
      <trkpt lat="49.57389" lon="4.98922">
        <ele>234.22</ele>
        <time>2018-07-08T08:31:19Z</time>
      </trkpt>
      <trkpt lat="49.57376" lon="4.98942">
        <ele>234.22</ele>
        <time>2018-07-08T08:31:37Z</time>
      </trkpt>
      <trkpt lat="49.5737" lon="4.98955">
        <ele>233.26</ele>
        <time>2018-07-08T08:31:47Z</time>
      </trkpt>
      <trkpt lat="49.57357" lon="4.98977">
        <ele>230.85</ele>
        <time>2018-07-08T08:32:03Z</time>
      </trkpt>
      <trkpt lat="49.57355" lon="4.9898">
        <ele>230.85</ele>
        <time>2018-07-08T08:32:05Z</time>
      </trkpt>
      <trkpt lat="49.57348" lon="4.98992">
        <ele>229.89</ele>
        <time>2018-07-08T08:32:13Z</time>
      </trkpt>
      <trkpt lat="49.57344" lon="4.99001">
        <ele>228.45</ele>
        <time>2018-07-08T08:32:19Z</time>
      </trkpt>
      <trkpt lat="49.57337" lon="4.99033">
        <ele>227.97</ele>
        <time>2018-07-08T08:32:36Z</time>
      </trkpt>
      <trkpt lat="49.57331" lon="4.9906">
        <ele>230.37</ele>
        <time>2018-07-08T08:32:50Z</time>
      </trkpt>
      <trkpt lat="49.57324" lon="4.99088">
        <ele>233.26</ele>
        <time>2018-07-08T08:33:04Z</time>
      </trkpt>
      <trkpt lat="49.57323" lon="4.99099">
        <ele>234.22</ele>
        <time>2018-07-08T08:33:16Z</time>
      </trkpt>
      <trkpt lat="49.5732" lon="4.99137">
        <ele>231.81</ele>
        <time>2018-07-08T08:33:38Z</time>
      </trkpt>
      <trkpt lat="49.5732" lon="4.99147">
        <ele>231.81</ele>
        <time>2018-07-08T08:33:45Z</time>
      </trkpt>
      <trkpt lat="49.57319" lon="4.99182">
        <ele>232.78</ele>
        <time>2018-07-08T08:34:01Z</time>
      </trkpt>
      <trkpt lat="49.57322" lon="4.9922">
        <ele>234.7</ele>
        <time>2018-07-08T08:34:19Z</time>
      </trkpt>
      <trkpt lat="49.57326" lon="4.99254">
        <ele>233.26</ele>
        <time>2018-07-08T08:34:36Z</time>
      </trkpt>
      <trkpt lat="49.5733" lon="4.99276">
        <ele>233.26</ele>
        <time>2018-07-08T08:34:48Z</time>
      </trkpt>
      <trkpt lat="49.57335" lon="4.99302">
        <ele>237.1</ele>
        <time>2018-07-08T08:35:02Z</time>
      </trkpt>
      <trkpt lat="49.5734" lon="4.99334">
        <ele>240.95</ele>
        <time>2018-07-08T08:35:16Z</time>
      </trkpt>
      <trkpt lat="49.57347" lon="4.99361">
        <ele>240.95</ele>
        <time>2018-07-08T08:35:30Z</time>
      </trkpt>
      <trkpt lat="49.57352" lon="4.99387">
        <ele>236.62</ele>
        <time>2018-07-08T08:35:44Z</time>
      </trkpt>
      <trkpt lat="49.57354" lon="4.99409">
        <ele>237.1</ele>
        <time>2018-07-08T08:35:55Z</time>
      </trkpt>
      <trkpt lat="49.57356" lon="4.9943">
        <ele>235.66</ele>
        <time>2018-07-08T08:36:03Z</time>
      </trkpt>
      <trkpt lat="49.5736" lon="4.99439">
        <ele>233.74</ele>
        <time>2018-07-08T08:36:09Z</time>
      </trkpt>
      <trkpt lat="49.57365" lon="4.99466">
        <ele>233.74</ele>
        <time>2018-07-08T08:36:24Z</time>
      </trkpt>
      <trkpt lat="49.57371" lon="4.99487">
        <ele>237.58</ele>
        <time>2018-07-08T08:36:36Z</time>
      </trkpt>
      <trkpt lat="49.57375" lon="4.99507">
        <ele>242.39</ele>
        <time>2018-07-08T08:36:48Z</time>
      </trkpt>
      <trkpt lat="49.5739" lon="4.99522">
        <ele>236.14</ele>
        <time>2018-07-08T08:37:04Z</time>
      </trkpt>
      <trkpt lat="49.574" lon="4.99546">
        <ele>227.97</ele>
        <time>2018-07-08T08:37:21Z</time>
      </trkpt>
      <trkpt lat="49.57409" lon="4.99581">
        <ele>223.16</ele>
        <time>2018-07-08T08:37:38Z</time>
      </trkpt>
      <trkpt lat="49.57417" lon="4.99609">
        <ele>224.12</ele>
        <time>2018-07-08T08:37:57Z</time>
      </trkpt>
      <trkpt lat="49.57426" lon="4.99637">
        <ele>225.09</ele>
        <time>2018-07-08T08:38:13Z</time>
      </trkpt>
      <trkpt lat="49.5743" lon="4.99647">
        <ele>225.57</ele>
        <time>2018-07-08T08:38:17Z</time>
      </trkpt>
      <trkpt lat="49.57432" lon="4.99659">
        <ele>225.57</ele>
        <time>2018-07-08T08:38:21Z</time>
      </trkpt>
      <trkpt lat="49.5744" lon="4.99689">
        <ele>230.85</ele>
        <time>2018-07-08T08:38:33Z</time>
      </trkpt>
      <trkpt lat="49.57441" lon="4.99691">
        <ele>231.33</ele>
        <time>2018-07-08T08:38:34Z</time>
      </trkpt>
      <trkpt lat="49.57446" lon="4.99707">
        <ele>234.22</ele>
        <time>2018-07-08T08:38:42Z</time>
      </trkpt>
      <trkpt lat="49.57448" lon="4.99723">
        <ele>230.37</ele>
        <time>2018-07-08T08:38:56Z</time>
      </trkpt>
      <trkpt lat="49.5745" lon="4.99741">
        <ele>225.09</ele>
        <time>2018-07-08T08:39:10Z</time>
      </trkpt>
      <trkpt lat="49.57455" lon="4.99769">
        <ele>220.28</ele>
        <time>2018-07-08T08:39:25Z</time>
      </trkpt>
      <trkpt lat="49.57455" lon="4.9977">
        <ele>220.28</ele>
        <time>2018-07-08T08:39:26Z</time>
      </trkpt>
      <trkpt lat="49.57456" lon="4.9978">
        <ele>219.32</ele>
        <time>2018-07-08T08:39:30Z</time>
      </trkpt>
      <trkpt lat="49.57455" lon="4.99801">
        <ele>221.24</ele>
        <time>2018-07-08T08:39:40Z</time>
      </trkpt>
      <trkpt lat="49.57454" lon="4.99819">
        <ele>223.16</ele>
        <time>2018-07-08T08:39:55Z</time>
      </trkpt>
      <trkpt lat="49.57451" lon="4.99832">
        <ele>223.16</ele>
        <time>2018-07-08T08:40:01Z</time>
      </trkpt>
      <trkpt lat="49.57447" lon="4.99849">
        <ele>223.16</ele>
        <time>2018-07-08T08:40:09Z</time>
      </trkpt>
      <trkpt lat="49.57442" lon="4.99883">
        <ele>226.05</ele>
        <time>2018-07-08T08:40:25Z</time>
      </trkpt>
      <trkpt lat="49.57439" lon="4.99891">
        <ele>226.53</ele>
        <time>2018-07-08T08:40:29Z</time>
      </trkpt>
      <trkpt lat="49.57434" lon="4.99911">
        <ele>228.93</ele>
        <time>2018-07-08T08:40:40Z</time>
      </trkpt>
      <trkpt lat="49.57432" lon="4.99944">
        <ele>227.97</ele>
        <time>2018-07-08T08:40:56Z</time>
      </trkpt>
      <trkpt lat="49.57429" lon="4.9997">
        <ele>225.57</ele>
        <time>2018-07-08T08:41:10Z</time>
      </trkpt>
      <trkpt lat="49.5743" lon="4.99982">
        <ele>220.76</ele>
        <time>2018-07-08T08:41:22Z</time>
      </trkpt>
      <trkpt lat="49.5743" lon="4.99993">
        <ele>218.36</ele>
        <time>2018-07-08T08:41:26Z</time>
      </trkpt>
      <trkpt lat="49.57432" lon="5.00004">
        <ele>214.99</ele>
        <time>2018-07-08T08:41:32Z</time>
      </trkpt>
      <trkpt lat="49.57432" lon="5.00041">
        <ele>206.34</ele>
        <time>2018-07-08T08:41:54Z</time>
      </trkpt>
      <trkpt lat="49.57429" lon="5.00073">
        <ele>202.49</ele>
        <time>2018-07-08T08:42:12Z</time>
      </trkpt>
      <trkpt lat="49.57417" lon="5.0011">
        <ele>208.26</ele>
        <time>2018-07-08T08:42:29Z</time>
      </trkpt>
      <trkpt lat="49.57399" lon="5.00144">
        <ele>216.43</ele>
        <time>2018-07-08T08:42:47Z</time>
      </trkpt>
      <trkpt lat="49.57386" lon="5.00166">
        <ele>215.95</ele>
        <time>2018-07-08T08:43:02Z</time>
      </trkpt>
      <trkpt lat="49.57376" lon="5.00185">
        <ele>215.47</ele>
        <time>2018-07-08T08:43:18Z</time>
      </trkpt>
      <trkpt lat="49.57362" lon="5.0021">
        <ele>212.11</ele>
        <time>2018-07-08T08:43:38Z</time>
      </trkpt>
      <trkpt lat="49.57344" lon="5.0024">
        <ele>206.82</ele>
        <time>2018-07-08T08:43:54Z</time>
      </trkpt>
      <trkpt lat="49.5734" lon="5.00247">
        <ele>206.34</ele>
        <time>2018-07-08T08:43:58Z</time>
      </trkpt>
      <trkpt lat="49.57335" lon="5.00251">
        <ele>206.34</ele>
        <time>2018-07-08T08:44:02Z</time>
      </trkpt>
      <trkpt lat="49.57319" lon="5.00269">
        <ele>206.34</ele>
        <time>2018-07-08T08:44:18Z</time>
      </trkpt>
      <trkpt lat="49.57306" lon="5.00289">
        <ele>206.82</ele>
        <time>2018-07-08T08:44:35Z</time>
      </trkpt>
      <trkpt lat="49.57289" lon="5.00317">
        <ele>205.38</ele>
        <time>2018-07-08T08:44:54Z</time>
      </trkpt>
      <trkpt lat="49.57266" lon="5.00346">
        <ele>202.98</ele>
        <time>2018-07-08T08:45:08Z</time>
      </trkpt>
      <trkpt lat="49.57251" lon="5.00361">
        <ele>202.98</ele>
        <time>2018-07-08T08:45:21Z</time>
      </trkpt>
      <trkpt lat="49.57238" lon="5.00381">
        <ele>204.42</ele>
        <time>2018-07-08T08:45:39Z</time>
      </trkpt>
      <trkpt lat="49.57218" lon="5.00408">
        <ele>203.94</ele>
        <time>2018-07-08T08:45:54Z</time>
      </trkpt>
      <trkpt lat="49.57205" lon="5.00427">
        <ele>206.34</ele>
        <time>2018-07-08T08:46:07Z</time>
      </trkpt>
      <trkpt lat="49.57204" lon="5.00441">
        <ele>206.82</ele>
        <time>2018-07-08T08:46:24Z</time>
      </trkpt>
      <trkpt lat="49.57202" lon="5.00449">
        <ele>205.86</ele>
        <time>2018-07-08T08:46:30Z</time>
      </trkpt>
      <trkpt lat="49.57198" lon="5.00474">
        <ele>205.38</ele>
        <time>2018-07-08T08:46:46Z</time>
      </trkpt>
      <trkpt lat="49.57196" lon="5.00492">
        <ele>204.42</ele>
        <time>2018-07-08T08:47:01Z</time>
      </trkpt>
      <trkpt lat="49.57192" lon="5.00516">
        <ele>203.94</ele>
        <time>2018-07-08T08:47:15Z</time>
      </trkpt>
      <trkpt lat="49.57185" lon="5.00536">
        <ele>202.49</ele>
        <time>2018-07-08T08:47:25Z</time>
      </trkpt>
      <trkpt lat="49.57178" lon="5.00556">
        <ele>200.09</ele>
        <time>2018-07-08T08:47:40Z</time>
      </trkpt>
      <trkpt lat="49.57174" lon="5.00567">
        <ele>200.09</ele>
        <time>2018-07-08T08:47:50Z</time>
      </trkpt>
      <trkpt lat="49.57169" lon="5.00581">
        <ele>197.21</ele>
        <time>2018-07-08T08:48:04Z</time>
      </trkpt>
      <trkpt lat="49.57161" lon="5.00597">
        <ele>198.17</ele>
        <time>2018-07-08T08:48:15Z</time>
      </trkpt>
      <trkpt lat="49.5715" lon="5.00621">
        <ele>199.13</ele>
        <time>2018-07-08T08:48:29Z</time>
      </trkpt>
      <trkpt lat="49.57145" lon="5.0063">
        <ele>201.05</ele>
        <time>2018-07-08T08:48:41Z</time>
      </trkpt>
      <trkpt lat="49.57147" lon="5.0063">
        <ele>201.53</ele>
        <time>2018-07-08T08:49:02Z</time>
      </trkpt>
      <trkpt lat="49.57143" lon="5.00639">
        <ele>201.53</ele>
        <time>2018-07-08T08:49:21Z</time>
      </trkpt>
      <trkpt lat="49.57138" lon="5.00655">
        <ele>201.53</ele>
        <time>2018-07-08T08:49:33Z</time>
      </trkpt>
      <trkpt lat="49.57135" lon="5.00663">
        <ele>201.53</ele>
        <time>2018-07-08T08:49:45Z</time>
      </trkpt>
      <trkpt lat="49.5713" lon="5.00687">
        <ele>202.01</ele>
        <time>2018-07-08T08:50:04Z</time>
      </trkpt>
      <trkpt lat="49.57121" lon="5.00716">
        <ele>202.01</ele>
        <time>2018-07-08T08:50:20Z</time>
      </trkpt>
      <trkpt lat="49.5712" lon="5.0072">
        <ele>201.53</ele>
        <time>2018-07-08T08:50:22Z</time>
      </trkpt>
      <trkpt lat="49.57117" lon="5.00744">
        <ele>199.13</ele>
        <time>2018-07-08T08:50:38Z</time>
      </trkpt>
      <trkpt lat="49.57113" lon="5.0077">
        <ele>198.17</ele>
        <time>2018-07-08T08:50:54Z</time>
      </trkpt>
      <trkpt lat="49.57106" lon="5.00809">
        <ele>196.25</ele>
        <time>2018-07-08T08:51:12Z</time>
      </trkpt>
      <trkpt lat="49.57101" lon="5.00837">
        <ele>195.28</ele>
        <time>2018-07-08T08:51:24Z</time>
      </trkpt>
      <trkpt lat="49.57095" lon="5.00863">
        <ele>190</ele>
        <time>2018-07-08T08:51:36Z</time>
      </trkpt>
      <trkpt lat="49.57091" lon="5.00885">
        <ele>186.15</ele>
        <time>2018-07-08T08:51:46Z</time>
      </trkpt>
      <trkpt lat="49.57088" lon="5.00891">
        <ele>185.19</ele>
        <time>2018-07-08T08:51:50Z</time>
      </trkpt>
      <trkpt lat="49.57082" lon="5.00913">
        <ele>182.79</ele>
        <time>2018-07-08T08:52:04Z</time>
      </trkpt>
      <trkpt lat="49.57077" lon="5.00936">
        <ele>184.23</ele>
        <time>2018-07-08T08:52:17Z</time>
      </trkpt>
      <trkpt lat="49.57077" lon="5.00938">
        <ele>186.15</ele>
        <time>2018-07-08T08:52:29Z</time>
      </trkpt>
      <trkpt lat="49.5707" lon="5.00967">
        <ele>190</ele>
        <time>2018-07-08T08:52:45Z</time>
      </trkpt>
      <trkpt lat="49.57068" lon="5.00972">
        <ele>190.96</ele>
        <time>2018-07-08T08:52:56Z</time>
      </trkpt>
      <trkpt lat="49.57068" lon="5.00973">
        <ele>190.96</ele>
        <time>2018-07-08T08:53:00Z</time>
      </trkpt>
      <trkpt lat="49.57057" lon="5.00999">
        <ele>191.44</ele>
        <time>2018-07-08T08:53:13Z</time>
      </trkpt>
      <trkpt lat="49.5704" lon="5.0102">
        <ele>190.48</ele>
        <time>2018-07-08T08:53:31Z</time>
      </trkpt>
      <trkpt lat="49.57027" lon="5.01039">
        <ele>189.04</ele>
        <time>2018-07-08T08:53:45Z</time>
      </trkpt>
      <trkpt lat="49.57011" lon="5.0106">
        <ele>186.63</ele>
        <time>2018-07-08T08:54:01Z</time>
      </trkpt>
      <trkpt lat="49.56999" lon="5.01078">
        <ele>181.83</ele>
        <time>2018-07-08T08:54:16Z</time>
      </trkpt>
      <trkpt lat="49.56996" lon="5.01082">
        <ele>180.87</ele>
        <time>2018-07-08T08:54:19Z</time>
      </trkpt>
      <trkpt lat="49.56989" lon="5.01098">
        <ele>177.98</ele>
        <time>2018-07-08T08:54:30Z</time>
      </trkpt>
      <trkpt lat="49.56979" lon="5.01111">
        <ele>174.62</ele>
        <time>2018-07-08T08:54:40Z</time>
      </trkpt>
      <trkpt lat="49.56976" lon="5.01119">
        <ele>175.1</ele>
        <time>2018-07-08T08:54:51Z</time>
      </trkpt>
      <trkpt lat="49.56972" lon="5.01123">
        <ele>175.58</ele>
        <time>2018-07-08T08:54:55Z</time>
      </trkpt>
      <trkpt lat="49.56962" lon="5.01135">
        <ele>176.54</ele>
        <time>2018-07-08T08:55:12Z</time>
      </trkpt>
      <trkpt lat="49.5696" lon="5.01137">
        <ele>176.54</ele>
        <time>2018-07-08T08:55:14Z</time>
      </trkpt>
      <trkpt lat="49.56954" lon="5.0114">
        <ele>176.54</ele>
        <time>2018-07-08T08:55:19Z</time>
      </trkpt>
      <trkpt lat="49.56935" lon="5.01155">
        <ele>176.54</ele>
        <time>2018-07-08T08:55:33Z</time>
      </trkpt>
      <trkpt lat="49.56918" lon="5.01176">
        <ele>178.46</ele>
        <time>2018-07-08T08:55:49Z</time>
      </trkpt>
      <trkpt lat="49.56906" lon="5.01195">
        <ele>181.83</ele>
        <time>2018-07-08T08:56:04Z</time>
      </trkpt>
      <trkpt lat="49.56893" lon="5.0122">
        <ele>181.83</ele>
        <time>2018-07-08T08:56:20Z</time>
      </trkpt>
      <trkpt lat="49.56887" lon="5.01244">
        <ele>181.83</ele>
        <time>2018-07-08T08:56:35Z</time>
      </trkpt>
      <trkpt lat="49.56875" lon="5.01275">
        <ele>181.83</ele>
        <time>2018-07-08T08:56:48Z</time>
      </trkpt>
      <trkpt lat="49.56874" lon="5.01277">
        <ele>181.35</ele>
        <time>2018-07-08T08:56:49Z</time>
      </trkpt>
      <trkpt lat="49.56871" lon="5.01284">
        <ele>179.9</ele>
        <time>2018-07-08T08:56:54Z</time>
      </trkpt>
      <trkpt lat="49.56869" lon="5.01289">
        <ele>179.9</ele>
        <time>2018-07-08T08:56:58Z</time>
      </trkpt>
      <trkpt lat="49.56869" lon="5.01291">
        <ele>179.42</ele>
        <time>2018-07-08T08:57:00Z</time>
      </trkpt>
      <trkpt lat="49.56869" lon="5.01294">
        <ele>179.9</ele>
        <time>2018-07-08T08:57:14Z</time>
      </trkpt>
      <trkpt lat="49.56866" lon="5.01303">
        <ele>179.9</ele>
        <time>2018-07-08T08:57:30Z</time>
      </trkpt>
      <trkpt lat="49.56859" lon="5.01322">
        <ele>181.35</ele>
        <time>2018-07-08T08:57:43Z</time>
      </trkpt>
      <trkpt lat="49.56854" lon="5.01339">
        <ele>181.35</ele>
        <time>2018-07-08T08:57:58Z</time>
      </trkpt>
      <trkpt lat="49.56855" lon="5.01342">
        <ele>180.87</ele>
        <time>2018-07-08T08:58:09Z</time>
      </trkpt>
      <trkpt lat="49.56853" lon="5.01351">
        <ele>179.42</ele>
        <time>2018-07-08T08:58:21Z</time>
      </trkpt>
      <trkpt lat="49.56846" lon="5.01373">
        <ele>177.02</ele>
        <time>2018-07-08T08:58:33Z</time>
      </trkpt>
      <trkpt lat="49.56838" lon="5.01396">
        <ele>172.69</ele>
        <time>2018-07-08T08:58:48Z</time>
      </trkpt>
      <trkpt lat="49.56831" lon="5.01415">
        <ele>173.66</ele>
        <time>2018-07-08T08:59:02Z</time>
      </trkpt>
      <trkpt lat="49.56822" lon="5.01439">
        <ele>175.58</ele>
        <time>2018-07-08T08:59:18Z</time>
      </trkpt>
      <trkpt lat="49.56813" lon="5.0146">
        <ele>175.58</ele>
        <time>2018-07-08T08:59:31Z</time>
      </trkpt>
      <trkpt lat="49.56809" lon="5.01472">
        <ele>175.58</ele>
        <time>2018-07-08T08:59:44Z</time>
      </trkpt>
      <trkpt lat="49.56804" lon="5.01486">
        <ele>176.06</ele>
        <time>2018-07-08T09:00:02Z</time>
      </trkpt>
      <trkpt lat="49.56793" lon="5.01515">
        <ele>175.1</ele>
        <time>2018-07-08T09:00:22Z</time>
      </trkpt>
      <trkpt lat="49.56775" lon="5.01538">
        <ele>177.02</ele>
        <time>2018-07-08T09:00:43Z</time>
      </trkpt>
      <trkpt lat="49.56761" lon="5.01544">
        <ele>174.14</ele>
        <time>2018-07-08T09:00:58Z</time>
      </trkpt>
      <trkpt lat="49.56759" lon="5.01542">
        <ele>172.69</ele>
        <time>2018-07-08T09:01:07Z</time>
      </trkpt>
      <trkpt lat="49.56748" lon="5.01549">
        <ele>174.14</ele>
        <time>2018-07-08T09:01:21Z</time>
      </trkpt>
      <trkpt lat="49.56747" lon="5.01552">
        <ele>173.66</ele>
        <time>2018-07-08T09:01:41Z</time>
      </trkpt>
      <trkpt lat="49.56745" lon="5.01553">
        <ele>174.14</ele>
        <time>2018-07-08T09:02:04Z</time>
      </trkpt>
      <trkpt lat="49.56745" lon="5.01552">
        <ele>174.14</ele>
        <time>2018-07-08T09:02:21Z</time>
      </trkpt>
      <trkpt lat="49.56745" lon="5.01552">
        <ele>175.1</ele>
        <time>2018-07-08T09:02:47Z</time>
      </trkpt>
      <trkpt lat="49.56744" lon="5.01551">
        <ele>175.1</ele>
        <time>2018-07-08T09:03:08Z</time>
      </trkpt>
      <trkpt lat="49.56744" lon="5.0155">
        <ele>175.1</ele>
        <time>2018-07-08T09:03:34Z</time>
      </trkpt>
      <trkpt lat="49.56744" lon="5.0155">
        <ele>175.1</ele>
        <time>2018-07-08T09:04:00Z</time>
      </trkpt>
      <trkpt lat="49.56744" lon="5.01549">
        <ele>175.58</ele>
        <time>2018-07-08T09:04:22Z</time>
      </trkpt>
      <trkpt lat="49.56745" lon="5.01549">
        <ele>175.1</ele>
        <time>2018-07-08T09:04:49Z</time>
      </trkpt>
      <trkpt lat="49.56745" lon="5.01549">
        <ele>175.1</ele>
        <time>2018-07-08T09:05:15Z</time>
      </trkpt>
      <trkpt lat="49.56745" lon="5.0155">
        <ele>175.1</ele>
        <time>2018-07-08T09:05:41Z</time>
      </trkpt>
      <trkpt lat="49.56746" lon="5.0155">
        <ele>174.14</ele>
        <time>2018-07-08T09:06:09Z</time>
      </trkpt>
      <trkpt lat="49.56747" lon="5.0155">
        <ele>173.66</ele>
        <time>2018-07-08T09:06:39Z</time>
      </trkpt>
      <trkpt lat="49.56747" lon="5.01551">
        <ele>173.66</ele>
        <time>2018-07-08T09:07:06Z</time>
      </trkpt>
      <trkpt lat="49.56746" lon="5.01551">
        <ele>174.14</ele>
        <time>2018-07-08T09:07:32Z</time>
      </trkpt>
      <trkpt lat="49.56746" lon="5.01552">
        <ele>175.1</ele>
        <time>2018-07-08T09:08:00Z</time>
      </trkpt>
      <trkpt lat="49.56745" lon="5.01553">
        <ele>176.06</ele>
        <time>2018-07-08T09:08:31Z</time>
      </trkpt>
      <trkpt lat="49.56745" lon="5.01552">
        <ele>176.06</ele>
        <time>2018-07-08T09:08:57Z</time>
      </trkpt>
      <trkpt lat="49.56744" lon="5.01553">
        <ele>176.06</ele>
        <time>2018-07-08T09:09:15Z</time>
      </trkpt>
      <trkpt lat="49.56743" lon="5.01553">
        <ele>176.54</ele>
        <time>2018-07-08T09:09:47Z</time>
      </trkpt>
      <trkpt lat="49.56743" lon="5.01553">
        <ele>176.54</ele>
        <time>2018-07-08T09:10:16Z</time>
      </trkpt>
      <trkpt lat="49.56743" lon="5.01553">
        <ele>177.02</ele>
        <time>2018-07-08T09:10:35Z</time>
      </trkpt>
      <trkpt lat="49.56744" lon="5.01552">
        <ele>176.54</ele>
        <time>2018-07-08T09:11:01Z</time>
      </trkpt>
      <trkpt lat="49.56744" lon="5.01552">
        <ele>176.06</ele>
        <time>2018-07-08T09:11:38Z</time>
      </trkpt>
      <trkpt lat="49.56744" lon="5.01552">
        <ele>176.06</ele>
        <time>2018-07-08T09:12:09Z</time>
      </trkpt>
      <trkpt lat="49.56743" lon="5.01552">
        <ele>175.1</ele>
        <time>2018-07-08T09:12:31Z</time>
      </trkpt>
      <trkpt lat="49.56742" lon="5.01552">
        <ele>173.66</ele>
        <time>2018-07-08T09:12:51Z</time>
      </trkpt>
      <trkpt lat="49.56743" lon="5.01552">
        <ele>173.17</ele>
        <time>2018-07-08T09:13:10Z</time>
      </trkpt>
      <trkpt lat="49.56739" lon="5.01552">
        <ele>173.17</ele>
        <time>2018-07-08T09:13:28Z</time>
      </trkpt>
      <trkpt lat="49.56737" lon="5.01555">
        <ele>174.62</ele>
        <time>2018-07-08T09:13:52Z</time>
      </trkpt>
      <trkpt lat="49.56736" lon="5.01555">
        <ele>175.1</ele>
        <time>2018-07-08T09:14:06Z</time>
      </trkpt>
      <trkpt lat="49.56737" lon="5.01555">
        <ele>175.1</ele>
        <time>2018-07-08T09:14:28Z</time>
      </trkpt>
      <trkpt lat="49.56736" lon="5.01555">
        <ele>175.1</ele>
        <time>2018-07-08T09:14:55Z</time>
      </trkpt>
      <trkpt lat="49.56733" lon="5.01553">
        <ele>175.1</ele>
        <time>2018-07-08T09:15:08Z</time>
      </trkpt>
      <trkpt lat="49.56734" lon="5.01553">
        <ele>175.1</ele>
        <time>2018-07-08T09:15:19Z</time>
      </trkpt>
      <trkpt lat="49.56739" lon="5.01552">
        <ele>175.58</ele>
        <time>2018-07-08T09:15:34Z</time>
      </trkpt>
      <trkpt lat="49.56738" lon="5.01552">
        <ele>176.06</ele>
        <time>2018-07-08T09:15:59Z</time>
      </trkpt>
      <trkpt lat="49.56741" lon="5.01553">
        <ele>175.1</ele>
        <time>2018-07-08T09:16:20Z</time>
      </trkpt>
      <trkpt lat="49.56744" lon="5.01553">
        <ele>175.1</ele>
        <time>2018-07-08T09:16:33Z</time>
      </trkpt>
      <trkpt lat="49.56744" lon="5.01553">
        <ele>175.1</ele>
        <time>2018-07-08T09:16:36Z</time>
      </trkpt>
      <trkpt lat="49.56757" lon="5.01553">
        <ele>173.17</ele>
        <time>2018-07-08T09:16:48Z</time>
      </trkpt>
      <trkpt lat="49.56769" lon="5.01546">
        <ele>173.66</ele>
        <time>2018-07-08T09:17:02Z</time>
      </trkpt>
      <trkpt lat="49.56786" lon="5.01524">
        <ele>173.17</ele>
        <time>2018-07-08T09:17:17Z</time>
      </trkpt>
      <trkpt lat="49.56796" lon="5.01502">
        <ele>175.1</ele>
        <time>2018-07-08T09:17:35Z</time>
      </trkpt>
      <trkpt lat="49.56805" lon="5.01485">
        <ele>174.62</ele>
        <time>2018-07-08T09:17:50Z</time>
      </trkpt>
      <trkpt lat="49.56812" lon="5.0147">
        <ele>174.14</ele>
        <time>2018-07-08T09:18:04Z</time>
      </trkpt>
      <trkpt lat="49.56829" lon="5.01434">
        <ele>175.58</ele>
        <time>2018-07-08T09:18:22Z</time>
      </trkpt>
      <trkpt lat="49.56837" lon="5.01411">
        <ele>177.02</ele>
        <time>2018-07-08T09:18:39Z</time>
      </trkpt>
      <trkpt lat="49.56846" lon="5.01396">
        <ele>177.5</ele>
        <time>2018-07-08T09:18:53Z</time>
      </trkpt>
      <trkpt lat="49.56847" lon="5.01395">
        <ele>177.5</ele>
        <time>2018-07-08T09:18:58Z</time>
      </trkpt>
      <trkpt lat="49.56853" lon="5.01415">
        <ele>178.46</ele>
        <time>2018-07-08T09:19:12Z</time>
      </trkpt>
      <trkpt lat="49.56859" lon="5.01445">
        <ele>181.35</ele>
        <time>2018-07-08T09:19:25Z</time>
      </trkpt>
      <trkpt lat="49.56867" lon="5.01464">
        <ele>181.83</ele>
        <time>2018-07-08T09:19:38Z</time>
      </trkpt>
      <trkpt lat="49.56877" lon="5.01487">
        <ele>183.27</ele>
        <time>2018-07-08T09:19:54Z</time>
      </trkpt>
      <trkpt lat="49.56889" lon="5.01518">
        <ele>184.71</ele>
        <time>2018-07-08T09:20:08Z</time>
      </trkpt>
      <trkpt lat="49.56897" lon="5.01531">
        <ele>183.75</ele>
        <time>2018-07-08T09:20:21Z</time>
      </trkpt>
      <trkpt lat="49.56898" lon="5.01534">
        <ele>183.75</ele>
        <time>2018-07-08T09:20:27Z</time>
      </trkpt>
      <trkpt lat="49.569" lon="5.01537">
        <ele>182.31</ele>
        <time>2018-07-08T09:20:42Z</time>
      </trkpt>
      <trkpt lat="49.56901" lon="5.01539">
        <ele>182.31</ele>
        <time>2018-07-08T09:21:05Z</time>
      </trkpt>
      <trkpt lat="49.56903" lon="5.01538">
        <ele>182.31</ele>
        <time>2018-07-08T09:21:13Z</time>
      </trkpt>
      <trkpt lat="49.56916" lon="5.01536">
        <ele>182.79</ele>
        <time>2018-07-08T09:21:23Z</time>
      </trkpt>
      <trkpt lat="49.56924" lon="5.01527">
        <ele>184.71</ele>
        <time>2018-07-08T09:21:32Z</time>
      </trkpt>
      <trkpt lat="49.56937" lon="5.01516">
        <ele>188.08</ele>
        <time>2018-07-08T09:21:43Z</time>
      </trkpt>
      <trkpt lat="49.56946" lon="5.01504">
        <ele>189.04</ele>
        <time>2018-07-08T09:21:54Z</time>
      </trkpt>
      <trkpt lat="49.56957" lon="5.0149">
        <ele>190.96</ele>
        <time>2018-07-08T09:22:07Z</time>
      </trkpt>
      <trkpt lat="49.56969" lon="5.01475">
        <ele>192.4</ele>
        <time>2018-07-08T09:22:19Z</time>
      </trkpt>
      <trkpt lat="49.56973" lon="5.01471">
        <ele>192.88</ele>
        <time>2018-07-08T09:22:25Z</time>
      </trkpt>
      <trkpt lat="49.56987" lon="5.01459">
        <ele>195.28</ele>
        <time>2018-07-08T09:22:38Z</time>
      </trkpt>
      <trkpt lat="49.56999" lon="5.01452">
        <ele>196.73</ele>
        <time>2018-07-08T09:22:50Z</time>
      </trkpt>
      <trkpt lat="49.57001" lon="5.01451">
        <ele>196.73</ele>
        <time>2018-07-08T09:22:52Z</time>
      </trkpt>
      <trkpt lat="49.57015" lon="5.01449">
        <ele>198.65</ele>
        <time>2018-07-08T09:23:04Z</time>
      </trkpt>
      <trkpt lat="49.57018" lon="5.01449">
        <ele>199.61</ele>
        <time>2018-07-08T09:23:17Z</time>
      </trkpt>
      <trkpt lat="49.5702" lon="5.01449">
        <ele>200.09</ele>
        <time>2018-07-08T09:23:21Z</time>
      </trkpt>
      <trkpt lat="49.57024" lon="5.01448">
        <ele>200.57</ele>
        <time>2018-07-08T09:23:34Z</time>
      </trkpt>
      <trkpt lat="49.57028" lon="5.01445">
        <ele>202.01</ele>
        <time>2018-07-08T09:23:46Z</time>
      </trkpt>
      <trkpt lat="49.5703" lon="5.01446">
        <ele>202.01</ele>
        <time>2018-07-08T09:24:02Z</time>
      </trkpt>
      <trkpt lat="49.57038" lon="5.01443">
        <ele>202.98</ele>
        <time>2018-07-08T09:24:13Z</time>
      </trkpt>
      <trkpt lat="49.57048" lon="5.0144">
        <ele>205.38</ele>
        <time>2018-07-08T09:24:22Z</time>
      </trkpt>
      <trkpt lat="49.5706" lon="5.01436">
        <ele>208.26</ele>
        <time>2018-07-08T09:24:33Z</time>
      </trkpt>
      <trkpt lat="49.57069" lon="5.01432">
        <ele>210.19</ele>
        <time>2018-07-08T09:24:44Z</time>
      </trkpt>
      <trkpt lat="49.5708" lon="5.01426">
        <ele>211.63</ele>
        <time>2018-07-08T09:24:54Z</time>
      </trkpt>
      <trkpt lat="49.57082" lon="5.01425">
        <ele>212.11</ele>
        <time>2018-07-08T09:24:57Z</time>
      </trkpt>
      <trkpt lat="49.57092" lon="5.01416">
        <ele>213.55</ele>
        <time>2018-07-08T09:25:07Z</time>
      </trkpt>
      <trkpt lat="49.571" lon="5.01411">
        <ele>214.99</ele>
        <time>2018-07-08T09:25:17Z</time>
      </trkpt>
      <trkpt lat="49.57108" lon="5.01405">
        <ele>215.95</ele>
        <time>2018-07-08T09:25:26Z</time>
      </trkpt>
      <trkpt lat="49.57116" lon="5.01399">
        <ele>217.88</ele>
        <time>2018-07-08T09:25:35Z</time>
      </trkpt>
      <trkpt lat="49.57126" lon="5.01393">
        <ele>220.76</ele>
        <time>2018-07-08T09:25:45Z</time>
      </trkpt>
      <trkpt lat="49.57133" lon="5.0139">
        <ele>222.2</ele>
        <time>2018-07-08T09:25:55Z</time>
      </trkpt>
      <trkpt lat="49.5714" lon="5.01385">
        <ele>222.68</ele>
        <time>2018-07-08T09:26:05Z</time>
      </trkpt>
      <trkpt lat="49.57147" lon="5.01378">
        <ele>224.61</ele>
        <time>2018-07-08T09:26:14Z</time>
      </trkpt>
      <trkpt lat="49.57157" lon="5.01372">
        <ele>226.53</ele>
        <time>2018-07-08T09:26:24Z</time>
      </trkpt>
      <trkpt lat="49.57167" lon="5.01364">
        <ele>227.49</ele>
        <time>2018-07-08T09:26:35Z</time>
      </trkpt>
      <trkpt lat="49.57173" lon="5.01359">
        <ele>229.41</ele>
        <time>2018-07-08T09:26:43Z</time>
      </trkpt>
      <trkpt lat="49.57177" lon="5.01358">
        <ele>230.37</ele>
        <time>2018-07-08T09:26:48Z</time>
      </trkpt>
      <trkpt lat="49.57184" lon="5.01349">
        <ele>233.74</ele>
        <time>2018-07-08T09:26:59Z</time>
      </trkpt>
      <trkpt lat="49.57185" lon="5.01347">
        <ele>234.22</ele>
        <time>2018-07-08T09:27:01Z</time>
      </trkpt>
      <trkpt lat="49.57193" lon="5.01338">
        <ele>234.7</ele>
        <time>2018-07-08T09:27:12Z</time>
      </trkpt>
      <trkpt lat="49.57195" lon="5.01337">
        <ele>234.7</ele>
        <time>2018-07-08T09:27:13Z</time>
      </trkpt>
      <trkpt lat="49.57204" lon="5.01323">
        <ele>234.7</ele>
        <time>2018-07-08T09:27:26Z</time>
      </trkpt>
      <trkpt lat="49.5721" lon="5.01316">
        <ele>235.18</ele>
        <time>2018-07-08T09:27:39Z</time>
      </trkpt>
      <trkpt lat="49.57219" lon="5.01305">
        <ele>235.18</ele>
        <time>2018-07-08T09:27:51Z</time>
      </trkpt>
      <trkpt lat="49.5723" lon="5.01294">
        <ele>236.14</ele>
        <time>2018-07-08T09:28:06Z</time>
      </trkpt>
      <trkpt lat="49.57242" lon="5.01285">
        <ele>237.1</ele>
        <time>2018-07-08T09:28:24Z</time>
      </trkpt>
      <trkpt lat="49.57256" lon="5.01274">
        <ele>239.02</ele>
        <time>2018-07-08T09:28:38Z</time>
      </trkpt>
      <trkpt lat="49.57269" lon="5.01263">
        <ele>241.43</ele>
        <time>2018-07-08T09:28:52Z</time>
      </trkpt>
      <trkpt lat="49.57281" lon="5.01258">
        <ele>250.08</ele>
        <time>2018-07-08T09:29:06Z</time>
      </trkpt>
      <trkpt lat="49.57287" lon="5.01257">
        <ele>252</ele>
        <time>2018-07-08T09:29:21Z</time>
      </trkpt>
      <trkpt lat="49.57299" lon="5.01266">
        <ele>253.44</ele>
        <time>2018-07-08T09:29:34Z</time>
      </trkpt>
      <trkpt lat="49.57302" lon="5.01267">
        <ele>254.89</ele>
        <time>2018-07-08T09:29:39Z</time>
      </trkpt>
      <trkpt lat="49.57317" lon="5.01276">
        <ele>256.81</ele>
        <time>2018-07-08T09:29:53Z</time>
      </trkpt>
      <trkpt lat="49.57322" lon="5.01278">
        <ele>257.77</ele>
        <time>2018-07-08T09:29:58Z</time>
      </trkpt>
      <trkpt lat="49.57335" lon="5.01289">
        <ele>261.14</ele>
        <time>2018-07-08T09:30:13Z</time>
      </trkpt>
      <trkpt lat="49.57347" lon="5.01301">
        <ele>265.94</ele>
        <time>2018-07-08T09:30:27Z</time>
      </trkpt>
      <trkpt lat="49.57359" lon="5.01312">
        <ele>268.83</ele>
        <time>2018-07-08T09:30:40Z</time>
      </trkpt>
      <trkpt lat="49.57372" lon="5.01325">
        <ele>267.86</ele>
        <time>2018-07-08T09:30:54Z</time>
      </trkpt>
      <trkpt lat="49.5738" lon="5.0134">
        <ele>270.27</ele>
        <time>2018-07-08T09:31:08Z</time>
      </trkpt>
      <trkpt lat="49.57382" lon="5.01345">
        <ele>271.71</ele>
        <time>2018-07-08T09:31:12Z</time>
      </trkpt>
      <trkpt lat="49.57386" lon="5.01356">
        <ele>272.67</ele>
        <time>2018-07-08T09:31:20Z</time>
      </trkpt>
      <trkpt lat="49.57388" lon="5.01361">
        <ele>272.67</ele>
        <time>2018-07-08T09:31:23Z</time>
      </trkpt>
      <trkpt lat="49.57399" lon="5.01386">
        <ele>273.63</ele>
        <time>2018-07-08T09:31:37Z</time>
      </trkpt>
      <trkpt lat="49.57401" lon="5.01397">
        <ele>273.63</ele>
        <time>2018-07-08T09:31:46Z</time>
      </trkpt>
      <trkpt lat="49.57403" lon="5.01403">
        <ele>274.11</ele>
        <time>2018-07-08T09:31:50Z</time>
      </trkpt>
      <trkpt lat="49.57407" lon="5.01423">
        <ele>278.44</ele>
        <time>2018-07-08T09:32:03Z</time>
      </trkpt>
      <trkpt lat="49.57409" lon="5.01427">
        <ele>279.4</ele>
        <time>2018-07-08T09:32:06Z</time>
      </trkpt>
      <trkpt lat="49.57414" lon="5.01445">
        <ele>281.8</ele>
        <time>2018-07-08T09:32:20Z</time>
      </trkpt>
      <trkpt lat="49.57422" lon="5.01454">
        <ele>281.32</ele>
        <time>2018-07-08T09:32:35Z</time>
      </trkpt>
      <trkpt lat="49.57433" lon="5.01468">
        <ele>280.36</ele>
        <time>2018-07-08T09:32:50Z</time>
      </trkpt>
      <trkpt lat="49.57451" lon="5.01489">
        <ele>275.56</ele>
        <time>2018-07-08T09:33:05Z</time>
      </trkpt>
      <trkpt lat="49.5747" lon="5.01505">
        <ele>270.75</ele>
        <time>2018-07-08T09:33:20Z</time>
      </trkpt>
      <trkpt lat="49.57478" lon="5.01512">
        <ele>268.83</ele>
        <time>2018-07-08T09:33:26Z</time>
      </trkpt>
      <trkpt lat="49.57495" lon="5.01528">
        <ele>267.86</ele>
        <time>2018-07-08T09:33:39Z</time>
      </trkpt>
      <trkpt lat="49.57503" lon="5.01527">
        <ele>268.35</ele>
        <time>2018-07-08T09:33:54Z</time>
      </trkpt>
      <trkpt lat="49.57505" lon="5.01528">
        <ele>269.79</ele>
        <time>2018-07-08T09:34:08Z</time>
      </trkpt>
      <trkpt lat="49.57506" lon="5.01529">
        <ele>270.75</ele>
        <time>2018-07-08T09:34:19Z</time>
      </trkpt>
      <trkpt lat="49.57509" lon="5.01513">
        <ele>271.71</ele>
        <time>2018-07-08T09:34:33Z</time>
      </trkpt>
      <trkpt lat="49.57516" lon="5.01498">
        <ele>275.56</ele>
        <time>2018-07-08T09:34:44Z</time>
      </trkpt>
      <trkpt lat="49.57521" lon="5.01483">
        <ele>276.52</ele>
        <time>2018-07-08T09:34:59Z</time>
      </trkpt>
      <trkpt lat="49.57522" lon="5.01475">
        <ele>276.04</ele>
        <time>2018-07-08T09:35:15Z</time>
      </trkpt>
      <trkpt lat="49.57529" lon="5.01454">
        <ele>277</ele>
        <time>2018-07-08T09:35:29Z</time>
      </trkpt>
      <trkpt lat="49.5754" lon="5.01427">
        <ele>279.88</ele>
        <time>2018-07-08T09:35:45Z</time>
      </trkpt>
      <trkpt lat="49.57543" lon="5.01423">
        <ele>280.36</ele>
        <time>2018-07-08T09:35:54Z</time>
      </trkpt>
      <trkpt lat="49.57563" lon="5.01412">
        <ele>282.28</ele>
        <time>2018-07-08T09:36:11Z</time>
      </trkpt>
      <trkpt lat="49.57566" lon="5.01408">
        <ele>282.28</ele>
        <time>2018-07-08T09:36:17Z</time>
      </trkpt>
      <trkpt lat="49.57584" lon="5.01388">
        <ele>280.36</ele>
        <time>2018-07-08T09:36:31Z</time>
      </trkpt>
      <trkpt lat="49.57596" lon="5.01374">
        <ele>280.36</ele>
        <time>2018-07-08T09:36:45Z</time>
      </trkpt>
      <trkpt lat="49.57608" lon="5.01359">
        <ele>279.88</ele>
        <time>2018-07-08T09:37:01Z</time>
      </trkpt>
      <trkpt lat="49.5762" lon="5.01332">
        <ele>280.36</ele>
        <time>2018-07-08T09:37:16Z</time>
      </trkpt>
      <trkpt lat="49.57626" lon="5.0132">
        <ele>281.8</ele>
        <time>2018-07-08T09:37:32Z</time>
      </trkpt>
      <trkpt lat="49.57638" lon="5.01294">
        <ele>286.61</ele>
        <time>2018-07-08T09:37:49Z</time>
      </trkpt>
      <trkpt lat="49.57648" lon="5.01271">
        <ele>289.97</ele>
        <time>2018-07-08T09:38:05Z</time>
      </trkpt>
      <trkpt lat="49.57654" lon="5.01242">
        <ele>289.01</ele>
        <time>2018-07-08T09:38:23Z</time>
      </trkpt>
      <trkpt lat="49.57662" lon="5.0122">
        <ele>287.57</ele>
        <time>2018-07-08T09:38:38Z</time>
      </trkpt>
      <trkpt lat="49.5767" lon="5.01197">
        <ele>288.53</ele>
        <time>2018-07-08T09:38:52Z</time>
      </trkpt>
      <trkpt lat="49.57678" lon="5.01174">
        <ele>289.97</ele>
        <time>2018-07-08T09:39:10Z</time>
      </trkpt>
      <trkpt lat="49.5769" lon="5.01143">
        <ele>289.49</ele>
        <time>2018-07-08T09:39:29Z</time>
      </trkpt>
      <trkpt lat="49.57702" lon="5.01117">
        <ele>289.49</ele>
        <time>2018-07-08T09:39:43Z</time>
      </trkpt>
      <trkpt lat="49.57712" lon="5.01096">
        <ele>289.01</ele>
        <time>2018-07-08T09:39:58Z</time>
      </trkpt>
      <trkpt lat="49.57718" lon="5.01078">
        <ele>287.57</ele>
        <time>2018-07-08T09:40:14Z</time>
      </trkpt>
      <trkpt lat="49.57723" lon="5.01056">
        <ele>286.13</ele>
        <time>2018-07-08T09:40:31Z</time>
      </trkpt>
      <trkpt lat="49.57729" lon="5.01041">
        <ele>286.13</ele>
        <time>2018-07-08T09:40:45Z</time>
      </trkpt>
      <trkpt lat="49.57736" lon="5.01018">
        <ele>284.21</ele>
        <time>2018-07-08T09:41:01Z</time>
      </trkpt>
      <trkpt lat="49.57745" lon="5.00993">
        <ele>284.69</ele>
        <time>2018-07-08T09:41:17Z</time>
      </trkpt>
      <trkpt lat="49.57757" lon="5.00967">
        <ele>282.77</ele>
        <time>2018-07-08T09:41:32Z</time>
      </trkpt>
      <trkpt lat="49.57763" lon="5.00953">
        <ele>282.28</ele>
        <time>2018-07-08T09:41:51Z</time>
      </trkpt>
      <trkpt lat="49.57764" lon="5.00951">
        <ele>282.28</ele>
        <time>2018-07-08T09:41:54Z</time>
      </trkpt>
      <trkpt lat="49.57779" lon="5.00916">
        <ele>280.84</ele>
        <time>2018-07-08T09:42:12Z</time>
      </trkpt>
      <trkpt lat="49.57797" lon="5.00882">
        <ele>279.4</ele>
        <time>2018-07-08T09:42:28Z</time>
      </trkpt>
      <trkpt lat="49.57807" lon="5.00859">
        <ele>281.32</ele>
        <time>2018-07-08T09:42:44Z</time>
      </trkpt>
      <trkpt lat="49.57814" lon="5.00848">
        <ele>280.84</ele>
        <time>2018-07-08T09:42:57Z</time>
      </trkpt>
      <trkpt lat="49.57824" lon="5.00832">
        <ele>280.36</ele>
        <time>2018-07-08T09:43:15Z</time>
      </trkpt>
      <trkpt lat="49.57833" lon="5.00806">
        <ele>279.88</ele>
        <time>2018-07-08T09:43:33Z</time>
      </trkpt>
      <trkpt lat="49.57843" lon="5.00776">
        <ele>281.32</ele>
        <time>2018-07-08T09:43:50Z</time>
      </trkpt>
      <trkpt lat="49.57852" lon="5.00753">
        <ele>282.28</ele>
        <time>2018-07-08T09:44:06Z</time>
      </trkpt>
      <trkpt lat="49.57859" lon="5.00735">
        <ele>281.8</ele>
        <time>2018-07-08T09:44:19Z</time>
      </trkpt>
      <trkpt lat="49.57865" lon="5.0072">
        <ele>282.77</ele>
        <time>2018-07-08T09:44:38Z</time>
      </trkpt>
      <trkpt lat="49.57879" lon="5.00694">
        <ele>284.69</ele>
        <time>2018-07-08T09:44:54Z</time>
      </trkpt>
      <trkpt lat="49.57885" lon="5.00682">
        <ele>283.73</ele>
        <time>2018-07-08T09:45:01Z</time>
      </trkpt>
      <trkpt lat="49.57886" lon="5.00678">
        <ele>283.73</ele>
        <time>2018-07-08T09:45:03Z</time>
      </trkpt>
      <trkpt lat="49.57894" lon="5.0065">
        <ele>282.77</ele>
        <time>2018-07-08T09:45:17Z</time>
      </trkpt>
      <trkpt lat="49.57899" lon="5.00628">
        <ele>284.21</ele>
        <time>2018-07-08T09:45:34Z</time>
      </trkpt>
      <trkpt lat="49.57901" lon="5.00621">
        <ele>284.69</ele>
        <time>2018-07-08T09:45:57Z</time>
      </trkpt>
      <trkpt lat="49.579" lon="5.0062">
        <ele>284.21</ele>
        <time>2018-07-08T09:46:20Z</time>
      </trkpt>
      <trkpt lat="49.57898" lon="5.00619">
        <ele>282.28</ele>
        <time>2018-07-08T09:46:39Z</time>
      </trkpt>
      <trkpt lat="49.57895" lon="5.00625">
        <ele>281.8</ele>
        <time>2018-07-08T09:46:49Z</time>
      </trkpt>
      <trkpt lat="49.57888" lon="5.00636">
        <ele>282.28</ele>
        <time>2018-07-08T09:46:58Z</time>
      </trkpt>
      <trkpt lat="49.57875" lon="5.00661">
        <ele>286.13</ele>
        <time>2018-07-08T09:47:11Z</time>
      </trkpt>
      <trkpt lat="49.57866" lon="5.00673">
        <ele>289.01</ele>
        <time>2018-07-08T09:47:26Z</time>
      </trkpt>
      <trkpt lat="49.57865" lon="5.00674">
        <ele>289.97</ele>
        <time>2018-07-08T09:47:32Z</time>
      </trkpt>
      <trkpt lat="49.57857" lon="5.00662">
        <ele>290.94</ele>
        <time>2018-07-08T09:47:49Z</time>
      </trkpt>
      <trkpt lat="49.57845" lon="5.00658">
        <ele>290.94</ele>
        <time>2018-07-08T09:48:00Z</time>
      </trkpt>
      <trkpt lat="49.57824" lon="5.00657">
        <ele>289.49</ele>
        <time>2018-07-08T09:48:17Z</time>
      </trkpt>
      <trkpt lat="49.57803" lon="5.00658">
        <ele>287.57</ele>
        <time>2018-07-08T09:48:34Z</time>
      </trkpt>
      <trkpt lat="49.57788" lon="5.00656">
        <ele>287.57</ele>
        <time>2018-07-08T09:48:48Z</time>
      </trkpt>
      <trkpt lat="49.57779" lon="5.00657">
        <ele>289.49</ele>
        <time>2018-07-08T09:48:59Z</time>
      </trkpt>
      <trkpt lat="49.57759" lon="5.00655">
        <ele>289.49</ele>
        <time>2018-07-08T09:49:13Z</time>
      </trkpt>
      <trkpt lat="49.5775" lon="5.00657">
        <ele>289.97</ele>
        <time>2018-07-08T09:49:28Z</time>
      </trkpt>
      <trkpt lat="49.57749" lon="5.00656">
        <ele>289.97</ele>
        <time>2018-07-08T09:49:48Z</time>
      </trkpt>
      <trkpt lat="49.57749" lon="5.00648">
        <ele>290.94</ele>
        <time>2018-07-08T09:50:03Z</time>
      </trkpt>
      <trkpt lat="49.57748" lon="5.00637">
        <ele>291.42</ele>
        <time>2018-07-08T09:50:22Z</time>
      </trkpt>
      <trkpt lat="49.57748" lon="5.00631">
        <ele>290.94</ele>
        <time>2018-07-08T09:50:29Z</time>
      </trkpt>
      <trkpt lat="49.57747" lon="5.0061">
        <ele>290.46</ele>
        <time>2018-07-08T09:50:43Z</time>
      </trkpt>
      <trkpt lat="49.57746" lon="5.00592">
        <ele>290.46</ele>
        <time>2018-07-08T09:50:57Z</time>
      </trkpt>
      <trkpt lat="49.57745" lon="5.00556">
        <ele>287.09</ele>
        <time>2018-07-08T09:51:14Z</time>
      </trkpt>
      <trkpt lat="49.57742" lon="5.00519">
        <ele>287.09</ele>
        <time>2018-07-08T09:51:30Z</time>
      </trkpt>
      <trkpt lat="49.57742" lon="5.00507">
        <ele>284.69</ele>
        <time>2018-07-08T09:51:53Z</time>
      </trkpt>
      <trkpt lat="49.57747" lon="5.00485">
        <ele>287.09</ele>
        <time>2018-07-08T09:52:11Z</time>
      </trkpt>
      <trkpt lat="49.5776" lon="5.00455">
        <ele>287.09</ele>
        <time>2018-07-08T09:52:26Z</time>
      </trkpt>
      <trkpt lat="49.57765" lon="5.0043">
        <ele>288.05</ele>
        <time>2018-07-08T09:52:44Z</time>
      </trkpt>
      <trkpt lat="49.57765" lon="5.00404">
        <ele>290.94</ele>
        <time>2018-07-08T09:52:57Z</time>
      </trkpt>
      <trkpt lat="49.57762" lon="5.00376">
        <ele>292.86</ele>
        <time>2018-07-08T09:53:12Z</time>
      </trkpt>
      <trkpt lat="49.57765" lon="5.00346">
        <ele>292.38</ele>
        <time>2018-07-08T09:53:31Z</time>
      </trkpt>
      <trkpt lat="49.57768" lon="5.00311">
        <ele>289.97</ele>
        <time>2018-07-08T09:53:46Z</time>
      </trkpt>
      <trkpt lat="49.57765" lon="5.00298">
        <ele>289.01</ele>
        <time>2018-07-08T09:54:01Z</time>
      </trkpt>
      <trkpt lat="49.57766" lon="5.00298">
        <ele>285.17</ele>
        <time>2018-07-08T09:54:22Z</time>
      </trkpt>
      <trkpt lat="49.57769" lon="5.00297">
        <ele>284.69</ele>
        <time>2018-07-08T09:54:26Z</time>
      </trkpt>
      <trkpt lat="49.5778" lon="5.00294">
        <ele>284.69</ele>
        <time>2018-07-08T09:54:40Z</time>
      </trkpt>
      <trkpt lat="49.57783" lon="5.00297">
        <ele>285.17</ele>
        <time>2018-07-08T09:54:43Z</time>
      </trkpt>
      <trkpt lat="49.57789" lon="5.00302">
        <ele>285.65</ele>
        <time>2018-07-08T09:54:51Z</time>
      </trkpt>
      <trkpt lat="49.57809" lon="5.00312">
        <ele>283.73</ele>
        <time>2018-07-08T09:55:07Z</time>
      </trkpt>
      <trkpt lat="49.5782" lon="5.00317">
        <ele>280.84</ele>
        <time>2018-07-08T09:55:24Z</time>
      </trkpt>
      <trkpt lat="49.57823" lon="5.00317">
        <ele>281.32</ele>
        <time>2018-07-08T09:55:34Z</time>
      </trkpt>
      <trkpt lat="49.57833" lon="5.00311">
        <ele>283.73</ele>
        <time>2018-07-08T09:55:46Z</time>
      </trkpt>
      <trkpt lat="49.57836" lon="5.00308">
        <ele>284.21</ele>
        <time>2018-07-08T09:55:49Z</time>
      </trkpt>
      <trkpt lat="49.57848" lon="5.003">
        <ele>286.13</ele>
        <time>2018-07-08T09:56:01Z</time>
      </trkpt>
      <trkpt lat="49.57849" lon="5.00295">
        <ele>287.09</ele>
        <time>2018-07-08T09:56:06Z</time>
      </trkpt>
      <trkpt lat="49.5785" lon="5.00293">
        <ele>287.09</ele>
        <time>2018-07-08T09:56:08Z</time>
      </trkpt>
      <trkpt lat="49.57859" lon="5.00286">
        <ele>287.09</ele>
        <time>2018-07-08T09:56:18Z</time>
      </trkpt>
      <trkpt lat="49.57863" lon="5.00283">
        <ele>288.05</ele>
        <time>2018-07-08T09:56:23Z</time>
      </trkpt>
      <trkpt lat="49.57874" lon="5.00268">
        <ele>288.05</ele>
        <time>2018-07-08T09:56:38Z</time>
      </trkpt>
      <trkpt lat="49.57877" lon="5.00263">
        <ele>288.05</ele>
        <time>2018-07-08T09:56:51Z</time>
      </trkpt>
      <trkpt lat="49.57879" lon="5.00261">
        <ele>288.05</ele>
        <time>2018-07-08T09:56:55Z</time>
      </trkpt>
      <trkpt lat="49.57882" lon="5.00258">
        <ele>288.53</ele>
        <time>2018-07-08T09:57:09Z</time>
      </trkpt>
      <trkpt lat="49.57887" lon="5.00254">
        <ele>289.01</ele>
        <time>2018-07-08T09:57:25Z</time>
      </trkpt>
      <trkpt lat="49.57891" lon="5.0025">
        <ele>289.01</ele>
        <time>2018-07-08T09:57:39Z</time>
      </trkpt>
      <trkpt lat="49.57892" lon="5.00249">
        <ele>289.01</ele>
        <time>2018-07-08T09:57:44Z</time>
      </trkpt>
      <trkpt lat="49.57906" lon="5.00237">
        <ele>289.01</ele>
        <time>2018-07-08T09:57:57Z</time>
      </trkpt>
      <trkpt lat="49.57918" lon="5.00224">
        <ele>290.46</ele>
        <time>2018-07-08T09:58:12Z</time>
      </trkpt>
      <trkpt lat="49.57928" lon="5.00213">
        <ele>291.42</ele>
        <time>2018-07-08T09:58:24Z</time>
      </trkpt>
      <trkpt lat="49.57939" lon="5.002">
        <ele>291.9</ele>
        <time>2018-07-08T09:58:37Z</time>
      </trkpt>
      <trkpt lat="49.57946" lon="5.00188">
        <ele>290.94</ele>
        <time>2018-07-08T09:58:51Z</time>
      </trkpt>
      <trkpt lat="49.57959" lon="5.00173">
        <ele>292.86</ele>
        <time>2018-07-08T09:59:07Z</time>
      </trkpt>
      <trkpt lat="49.57969" lon="5.00164">
        <ele>293.82</ele>
        <time>2018-07-08T09:59:23Z</time>
      </trkpt>
      <trkpt lat="49.57986" lon="5.00149">
        <ele>296.7</ele>
        <time>2018-07-08T09:59:35Z</time>
      </trkpt>
      <trkpt lat="49.57992" lon="5.00144">
        <ele>299.59</ele>
        <time>2018-07-08T09:59:47Z</time>
      </trkpt>
      <trkpt lat="49.57994" lon="5.00141">
        <ele>300.55</ele>
        <time>2018-07-08T09:59:54Z</time>
      </trkpt>
      <trkpt lat="49.58001" lon="5.00138">
        <ele>302.95</ele>
        <time>2018-07-08T10:00:00Z</time>
      </trkpt>
      <trkpt lat="49.58013" lon="5.00131">
        <ele>303.91</ele>
        <time>2018-07-08T10:00:10Z</time>
      </trkpt>
      <trkpt lat="49.58029" lon="5.00118">
        <ele>305.84</ele>
        <time>2018-07-08T10:00:22Z</time>
      </trkpt>
      <trkpt lat="49.58037" lon="5.0011">
        <ele>306.32</ele>
        <time>2018-07-08T10:00:35Z</time>
      </trkpt>
      <trkpt lat="49.58047" lon="5.00099">
        <ele>303.91</ele>
        <time>2018-07-08T10:00:48Z</time>
      </trkpt>
      <trkpt lat="49.58049" lon="5.00098">
        <ele>303.91</ele>
        <time>2018-07-08T10:00:49Z</time>
      </trkpt>
      <trkpt lat="49.58062" lon="5.00081">
        <ele>302.47</ele>
        <time>2018-07-08T10:01:04Z</time>
      </trkpt>
      <trkpt lat="49.58078" lon="5.00067">
        <ele>303.43</ele>
        <time>2018-07-08T10:01:21Z</time>
      </trkpt>
      <trkpt lat="49.58087" lon="5.00056">
        <ele>301.99</ele>
        <time>2018-07-08T10:01:35Z</time>
      </trkpt>
      <trkpt lat="49.581" lon="5.00043">
        <ele>301.99</ele>
        <time>2018-07-08T10:01:47Z</time>
      </trkpt>
      <trkpt lat="49.58109" lon="5.00034">
        <ele>301.99</ele>
        <time>2018-07-08T10:01:57Z</time>
      </trkpt>
      <trkpt lat="49.58121" lon="5.00021">
        <ele>303.43</ele>
        <time>2018-07-08T10:02:11Z</time>
      </trkpt>
      <trkpt lat="49.58129" lon="5.00002">
        <ele>305.84</ele>
        <time>2018-07-08T10:02:25Z</time>
      </trkpt>
      <trkpt lat="49.58139" lon="4.99984">
        <ele>307.28</ele>
        <time>2018-07-08T10:02:38Z</time>
      </trkpt>
      <trkpt lat="49.58155" lon="4.99974">
        <ele>310.64</ele>
        <time>2018-07-08T10:02:54Z</time>
      </trkpt>
      <trkpt lat="49.58172" lon="4.99955">
        <ele>310.16</ele>
        <time>2018-07-08T10:03:10Z</time>
      </trkpt>
      <trkpt lat="49.58182" lon="4.99944">
        <ele>309.68</ele>
        <time>2018-07-08T10:03:24Z</time>
      </trkpt>
      <trkpt lat="49.58183" lon="4.99942">
        <ele>309.2</ele>
        <time>2018-07-08T10:03:25Z</time>
      </trkpt>
      <trkpt lat="49.58191" lon="4.99931">
        <ele>309.68</ele>
        <time>2018-07-08T10:03:40Z</time>
      </trkpt>
      <trkpt lat="49.58193" lon="4.99929">
        <ele>309.2</ele>
        <time>2018-07-08T10:03:42Z</time>
      </trkpt>
      <trkpt lat="49.58206" lon="4.99912">
        <ele>307.76</ele>
        <time>2018-07-08T10:03:55Z</time>
      </trkpt>
      <trkpt lat="49.58212" lon="4.99904">
        <ele>307.28</ele>
        <time>2018-07-08T10:04:11Z</time>
      </trkpt>
      <trkpt lat="49.58224" lon="4.9989">
        <ele>310.64</ele>
        <time>2018-07-08T10:04:24Z</time>
      </trkpt>
      <trkpt lat="49.58226" lon="4.99886">
        <ele>310.16</ele>
        <time>2018-07-08T10:04:31Z</time>
      </trkpt>
      <trkpt lat="49.58239" lon="4.99871">
        <ele>311.6</ele>
        <time>2018-07-08T10:04:46Z</time>
      </trkpt>
      <trkpt lat="49.5825" lon="4.9986">
        <ele>312.57</ele>
        <time>2018-07-08T10:04:59Z</time>
      </trkpt>
      <trkpt lat="49.58257" lon="4.99852">
        <ele>312.09</ele>
        <time>2018-07-08T10:05:13Z</time>
      </trkpt>
      <trkpt lat="49.58263" lon="4.99846">
        <ele>312.09</ele>
        <time>2018-07-08T10:05:18Z</time>
      </trkpt>
      <trkpt lat="49.58279" lon="4.99833">
        <ele>312.09</ele>
        <time>2018-07-08T10:05:33Z</time>
      </trkpt>
      <trkpt lat="49.58297" lon="4.99817">
        <ele>309.68</ele>
        <time>2018-07-08T10:05:45Z</time>
      </trkpt>
      <trkpt lat="49.58306" lon="4.99807">
        <ele>307.76</ele>
        <time>2018-07-08T10:06:01Z</time>
      </trkpt>
      <trkpt lat="49.58322" lon="4.99796">
        <ele>307.28</ele>
        <time>2018-07-08T10:06:17Z</time>
      </trkpt>
      <trkpt lat="49.58324" lon="4.99794">
        <ele>307.28</ele>
        <time>2018-07-08T10:06:19Z</time>
      </trkpt>
      <trkpt lat="49.58335" lon="4.99784">
        <ele>308.72</ele>
        <time>2018-07-08T10:06:35Z</time>
      </trkpt>
      <trkpt lat="49.58339" lon="4.99776">
        <ele>309.2</ele>
        <time>2018-07-08T10:06:50Z</time>
      </trkpt>
      <trkpt lat="49.58342" lon="4.99771">
        <ele>309.2</ele>
        <time>2018-07-08T10:07:03Z</time>
      </trkpt>
      <trkpt lat="49.58344" lon="4.99767">
        <ele>309.2</ele>
        <time>2018-07-08T10:07:15Z</time>
      </trkpt>
      <trkpt lat="49.58347" lon="4.99764">
        <ele>310.16</ele>
        <time>2018-07-08T10:07:28Z</time>
      </trkpt>
      <trkpt lat="49.58348" lon="4.99763">
        <ele>311.12</ele>
        <time>2018-07-08T10:07:33Z</time>
      </trkpt>
      <trkpt lat="49.5835" lon="4.99761">
        <ele>311.6</ele>
        <time>2018-07-08T10:07:36Z</time>
      </trkpt>
      <trkpt lat="49.58358" lon="4.99751">
        <ele>314.97</ele>
        <time>2018-07-08T10:07:49Z</time>
      </trkpt>
      <trkpt lat="49.5836" lon="4.99749">
        <ele>316.41</ele>
        <time>2018-07-08T10:08:01Z</time>
      </trkpt>
      <trkpt lat="49.58368" lon="4.99742">
        <ele>317.85</ele>
        <time>2018-07-08T10:08:16Z</time>
      </trkpt>
      <trkpt lat="49.58375" lon="4.99736">
        <ele>319.78</ele>
        <time>2018-07-08T10:08:22Z</time>
      </trkpt>
      <trkpt lat="49.58389" lon="4.99716">
        <ele>322.66</ele>
        <time>2018-07-08T10:08:37Z</time>
      </trkpt>
      <trkpt lat="49.58398" lon="4.99709">
        <ele>324.58</ele>
        <time>2018-07-08T10:08:51Z</time>
      </trkpt>
      <trkpt lat="49.58403" lon="4.99704">
        <ele>325.54</ele>
        <time>2018-07-08T10:09:03Z</time>
      </trkpt>
      <trkpt lat="49.58415" lon="4.99686">
        <ele>328.43</ele>
        <time>2018-07-08T10:09:17Z</time>
      </trkpt>
      <trkpt lat="49.58429" lon="4.99667">
        <ele>326.02</ele>
        <time>2018-07-08T10:09:30Z</time>
      </trkpt>
      <trkpt lat="49.58436" lon="4.99658">
        <ele>324.58</ele>
        <time>2018-07-08T10:09:48Z</time>
      </trkpt>
      <trkpt lat="49.58445" lon="4.99647">
        <ele>324.1</ele>
        <time>2018-07-08T10:10:00Z</time>
      </trkpt>
      <trkpt lat="49.58452" lon="4.99633">
        <ele>322.66</ele>
        <time>2018-07-08T10:10:11Z</time>
      </trkpt>
      <trkpt lat="49.58458" lon="4.99627">
        <ele>324.58</ele>
        <time>2018-07-08T10:10:27Z</time>
      </trkpt>
      <trkpt lat="49.58467" lon="4.99608">
        <ele>319.3</ele>
        <time>2018-07-08T10:10:41Z</time>
      </trkpt>
      <trkpt lat="49.58485" lon="4.99581">
        <ele>311.12</ele>
        <time>2018-07-08T10:10:55Z</time>
      </trkpt>
      <trkpt lat="49.58493" lon="4.99566">
        <ele>304.39</ele>
        <time>2018-07-08T10:11:08Z</time>
      </trkpt>
      <trkpt lat="49.585" lon="4.99558">
        <ele>300.07</ele>
        <time>2018-07-08T10:11:21Z</time>
      </trkpt>
      <trkpt lat="49.58508" lon="4.99545">
        <ele>297.67</ele>
        <time>2018-07-08T10:11:33Z</time>
      </trkpt>
      <trkpt lat="49.58522" lon="4.99524">
        <ele>294.78</ele>
        <time>2018-07-08T10:11:47Z</time>
      </trkpt>
      <trkpt lat="49.58532" lon="4.99508">
        <ele>293.34</ele>
        <time>2018-07-08T10:11:58Z</time>
      </trkpt>
      <trkpt lat="49.58536" lon="4.99504">
        <ele>292.38</ele>
        <time>2018-07-08T10:12:02Z</time>
      </trkpt>
      <trkpt lat="49.58546" lon="4.99488">
        <ele>289.01</ele>
        <time>2018-07-08T10:12:14Z</time>
      </trkpt>
      <trkpt lat="49.58558" lon="4.99477">
        <ele>285.17</ele>
        <time>2018-07-08T10:12:25Z</time>
      </trkpt>
      <trkpt lat="49.58567" lon="4.99464">
        <ele>282.77</ele>
        <time>2018-07-08T10:12:40Z</time>
      </trkpt>
      <trkpt lat="49.58575" lon="4.99451">
        <ele>283.25</ele>
        <time>2018-07-08T10:12:49Z</time>
      </trkpt>
      <trkpt lat="49.58582" lon="4.99439">
        <ele>285.17</ele>
        <time>2018-07-08T10:13:00Z</time>
      </trkpt>
      <trkpt lat="49.58588" lon="4.99425">
        <ele>288.05</ele>
        <time>2018-07-08T10:13:12Z</time>
      </trkpt>
      <trkpt lat="49.58593" lon="4.99414">
        <ele>290.94</ele>
        <time>2018-07-08T10:13:26Z</time>
      </trkpt>
      <trkpt lat="49.58602" lon="4.99398">
        <ele>289.97</ele>
        <time>2018-07-08T10:13:42Z</time>
      </trkpt>
      <trkpt lat="49.58605" lon="4.99392">
        <ele>290.46</ele>
        <time>2018-07-08T10:13:46Z</time>
      </trkpt>
      <trkpt lat="49.58608" lon="4.99389">
        <ele>291.9</ele>
        <time>2018-07-08T10:13:49Z</time>
      </trkpt>
      <trkpt lat="49.58614" lon="4.99367">
        <ele>287.09</ele>
        <time>2018-07-08T10:14:02Z</time>
      </trkpt>
      <trkpt lat="49.58617" lon="4.99359">
        <ele>285.65</ele>
        <time>2018-07-08T10:14:07Z</time>
      </trkpt>
      <trkpt lat="49.58622" lon="4.99352">
        <ele>283.73</ele>
        <time>2018-07-08T10:14:19Z</time>
      </trkpt>
      <trkpt lat="49.58631" lon="4.99336">
        <ele>281.32</ele>
        <time>2018-07-08T10:14:31Z</time>
      </trkpt>
      <trkpt lat="49.58633" lon="4.99334">
        <ele>280.84</ele>
        <time>2018-07-08T10:14:33Z</time>
      </trkpt>
      <trkpt lat="49.58635" lon="4.99325">
        <ele>278.92</ele>
        <time>2018-07-08T10:14:39Z</time>
      </trkpt>
      <trkpt lat="49.58639" lon="4.99314">
        <ele>277.48</ele>
        <time>2018-07-08T10:14:47Z</time>
      </trkpt>
      <trkpt lat="49.58647" lon="4.99303">
        <ele>273.63</ele>
        <time>2018-07-08T10:14:57Z</time>
      </trkpt>
      <trkpt lat="49.58652" lon="4.99295">
        <ele>274.11</ele>
        <time>2018-07-08T10:15:02Z</time>
      </trkpt>
      <trkpt lat="49.58658" lon="4.99283">
        <ele>273.15</ele>
        <time>2018-07-08T10:15:13Z</time>
      </trkpt>
      <trkpt lat="49.58664" lon="4.99271">
        <ele>270.75</ele>
        <time>2018-07-08T10:15:23Z</time>
      </trkpt>
      <trkpt lat="49.58675" lon="4.99258">
        <ele>266.9</ele>
        <time>2018-07-08T10:15:35Z</time>
      </trkpt>
      <trkpt lat="49.58683" lon="4.99247">
        <ele>264.98</ele>
        <time>2018-07-08T10:15:47Z</time>
      </trkpt>
      <trkpt lat="49.58692" lon="4.9924">
        <ele>262.58</ele>
        <time>2018-07-08T10:15:58Z</time>
      </trkpt>
      <trkpt lat="49.58703" lon="4.99226">
        <ele>262.1</ele>
        <time>2018-07-08T10:16:10Z</time>
      </trkpt>
      <trkpt lat="49.58711" lon="4.99217">
        <ele>261.62</ele>
        <time>2018-07-08T10:16:23Z</time>
      </trkpt>
      <trkpt lat="49.58723" lon="4.99201">
        <ele>263.06</ele>
        <time>2018-07-08T10:16:33Z</time>
      </trkpt>
      <trkpt lat="49.58737" lon="4.99182">
        <ele>264.98</ele>
        <time>2018-07-08T10:16:47Z</time>
      </trkpt>
      <trkpt lat="49.58747" lon="4.99167">
        <ele>265.94</ele>
        <time>2018-07-08T10:17:00Z</time>
      </trkpt>
      <trkpt lat="49.58757" lon="4.99151">
        <ele>265.94</ele>
        <time>2018-07-08T10:17:12Z</time>
      </trkpt>
      <trkpt lat="49.5876" lon="4.99148">
        <ele>265.94</ele>
        <time>2018-07-08T10:17:14Z</time>
      </trkpt>
      <trkpt lat="49.58772" lon="4.99123">
        <ele>266.9</ele>
        <time>2018-07-08T10:17:28Z</time>
      </trkpt>
      <trkpt lat="49.58775" lon="4.99117">
        <ele>266.9</ele>
        <time>2018-07-08T10:17:31Z</time>
      </trkpt>
      <trkpt lat="49.58777" lon="4.9911">
        <ele>267.86</ele>
        <time>2018-07-08T10:17:37Z</time>
      </trkpt>
      <trkpt lat="49.58782" lon="4.99094">
        <ele>269.31</ele>
        <time>2018-07-08T10:17:47Z</time>
      </trkpt>
      <trkpt lat="49.58792" lon="4.99076">
        <ele>270.27</ele>
        <time>2018-07-08T10:17:59Z</time>
      </trkpt>
      <trkpt lat="49.58801" lon="4.99057">
        <ele>271.23</ele>
        <time>2018-07-08T10:18:12Z</time>
      </trkpt>
      <trkpt lat="49.5881" lon="4.99039">
        <ele>272.19</ele>
        <time>2018-07-08T10:18:25Z</time>
      </trkpt>
      <trkpt lat="49.58819" lon="4.99022">
        <ele>273.15</ele>
        <time>2018-07-08T10:18:37Z</time>
      </trkpt>
      <trkpt lat="49.5883" lon="4.99003">
        <ele>274.11</ele>
        <time>2018-07-08T10:18:50Z</time>
      </trkpt>
      <trkpt lat="49.58844" lon="4.9899">
        <ele>276.04</ele>
        <time>2018-07-08T10:19:03Z</time>
      </trkpt>
      <trkpt lat="49.58846" lon="4.98989">
        <ele>276.04</ele>
        <time>2018-07-08T10:19:04Z</time>
      </trkpt>
      <trkpt lat="49.58853" lon="4.98982">
        <ele>277.96</ele>
        <time>2018-07-08T10:19:16Z</time>
      </trkpt>
      <trkpt lat="49.58865" lon="4.98976">
        <ele>283.25</ele>
        <time>2018-07-08T10:19:25Z</time>
      </trkpt>
      <trkpt lat="49.58878" lon="4.98968">
        <ele>289.49</ele>
        <time>2018-07-08T10:19:39Z</time>
      </trkpt>
      <trkpt lat="49.58891" lon="4.98961">
        <ele>292.86</ele>
        <time>2018-07-08T10:19:51Z</time>
      </trkpt>
      <trkpt lat="49.58902" lon="4.98954">
        <ele>296.22</ele>
        <time>2018-07-08T10:20:04Z</time>
      </trkpt>
      <trkpt lat="49.58918" lon="4.98944">
        <ele>297.67</ele>
        <time>2018-07-08T10:20:17Z</time>
      </trkpt>
      <trkpt lat="49.58924" lon="4.9894">
        <ele>297.18</ele>
        <time>2018-07-08T10:20:25Z</time>
      </trkpt>
      <trkpt lat="49.58939" lon="4.98934">
        <ele>298.63</ele>
        <time>2018-07-08T10:20:37Z</time>
      </trkpt>
      <trkpt lat="49.58952" lon="4.98931">
        <ele>301.51</ele>
        <time>2018-07-08T10:20:50Z</time>
      </trkpt>
      <trkpt lat="49.58955" lon="4.98932">
        <ele>301.03</ele>
        <time>2018-07-08T10:21:06Z</time>
      </trkpt>
      <trkpt lat="49.58962" lon="4.98929">
        <ele>301.03</ele>
        <time>2018-07-08T10:21:19Z</time>
      </trkpt>
      <trkpt lat="49.58971" lon="4.98926">
        <ele>301.99</ele>
        <time>2018-07-08T10:21:33Z</time>
      </trkpt>
      <trkpt lat="49.58975" lon="4.98927">
        <ele>302.47</ele>
        <time>2018-07-08T10:21:36Z</time>
      </trkpt>
      <trkpt lat="49.5899" lon="4.98919">
        <ele>307.76</ele>
        <time>2018-07-08T10:21:49Z</time>
      </trkpt>
      <trkpt lat="49.59006" lon="4.98911">
        <ele>314.01</ele>
        <time>2018-07-08T10:22:07Z</time>
      </trkpt>
      <trkpt lat="49.59013" lon="4.98911">
        <ele>315.45</ele>
        <time>2018-07-08T10:22:18Z</time>
      </trkpt>
      <trkpt lat="49.59024" lon="4.98911">
        <ele>314.49</ele>
        <time>2018-07-08T10:22:32Z</time>
      </trkpt>
      <trkpt lat="49.59027" lon="4.98911">
        <ele>313.53</ele>
        <time>2018-07-08T10:22:37Z</time>
      </trkpt>
      <trkpt lat="49.59038" lon="4.98912">
        <ele>312.57</ele>
        <time>2018-07-08T10:22:44Z</time>
      </trkpt>
      <trkpt lat="49.59056" lon="4.98913">
        <ele>313.05</ele>
        <time>2018-07-08T10:22:59Z</time>
      </trkpt>
      <trkpt lat="49.5906" lon="4.98914">
        <ele>313.05</ele>
        <time>2018-07-08T10:23:17Z</time>
      </trkpt>
      <trkpt lat="49.5907" lon="4.98913">
        <ele>312.09</ele>
        <time>2018-07-08T10:23:30Z</time>
      </trkpt>
      <trkpt lat="49.59076" lon="4.98911">
        <ele>312.09</ele>
        <time>2018-07-08T10:23:36Z</time>
      </trkpt>
      <trkpt lat="49.59086" lon="4.9891">
        <ele>314.97</ele>
        <time>2018-07-08T10:23:49Z</time>
      </trkpt>
      <trkpt lat="49.59093" lon="4.9891">
        <ele>316.41</ele>
        <time>2018-07-08T10:24:01Z</time>
      </trkpt>
      <trkpt lat="49.59102" lon="4.98909">
        <ele>320.26</ele>
        <time>2018-07-08T10:24:08Z</time>
      </trkpt>
      <trkpt lat="49.59106" lon="4.98905">
        <ele>321.22</ele>
        <time>2018-07-08T10:24:11Z</time>
      </trkpt>
      <trkpt lat="49.59121" lon="4.98896">
        <ele>322.66</ele>
        <time>2018-07-08T10:24:27Z</time>
      </trkpt>
      <trkpt lat="49.59128" lon="4.98893">
        <ele>322.18</ele>
        <time>2018-07-08T10:24:39Z</time>
      </trkpt>
      <trkpt lat="49.59146" lon="4.98883">
        <ele>320.74</ele>
        <time>2018-07-08T10:24:53Z</time>
      </trkpt>
      <trkpt lat="49.59163" lon="4.98874">
        <ele>326.5</ele>
        <time>2018-07-08T10:25:08Z</time>
      </trkpt>
      <trkpt lat="49.59167" lon="4.98871">
        <ele>328.91</ele>
        <time>2018-07-08T10:25:11Z</time>
      </trkpt>
      <trkpt lat="49.59174" lon="4.98855">
        <ele>330.35</ele>
        <time>2018-07-08T10:25:23Z</time>
      </trkpt>
      <trkpt lat="49.59184" lon="4.98837">
        <ele>331.79</ele>
        <time>2018-07-08T10:25:40Z</time>
      </trkpt>
      <trkpt lat="49.59188" lon="4.9883">
        <ele>330.83</ele>
        <time>2018-07-08T10:25:55Z</time>
      </trkpt>
      <trkpt lat="49.59196" lon="4.98826">
        <ele>334.68</ele>
        <time>2018-07-08T10:26:07Z</time>
      </trkpt>
      <trkpt lat="49.592" lon="4.98823">
        <ele>335.16</ele>
        <time>2018-07-08T10:26:19Z</time>
      </trkpt>
      <trkpt lat="49.59203" lon="4.98823">
        <ele>334.68</ele>
        <time>2018-07-08T10:26:30Z</time>
      </trkpt>
      <trkpt lat="49.59203" lon="4.98824">
        <ele>334.68</ele>
        <time>2018-07-08T10:26:33Z</time>
      </trkpt>
      <trkpt lat="49.59204" lon="4.98834">
        <ele>334.68</ele>
        <time>2018-07-08T10:26:39Z</time>
      </trkpt>
      <trkpt lat="49.59208" lon="4.98849">
        <ele>335.64</ele>
        <time>2018-07-08T10:26:51Z</time>
      </trkpt>
      <trkpt lat="49.59213" lon="4.98856">
        <ele>337.56</ele>
        <time>2018-07-08T10:27:03Z</time>
      </trkpt>
      <trkpt lat="49.59213" lon="4.98858">
        <ele>337.56</ele>
        <time>2018-07-08T10:27:05Z</time>
      </trkpt>
      <trkpt lat="49.59213" lon="4.98862">
        <ele>338.04</ele>
        <time>2018-07-08T10:27:07Z</time>
      </trkpt>
      <trkpt lat="49.59216" lon="4.98878">
        <ele>338.52</ele>
        <time>2018-07-08T10:27:22Z</time>
      </trkpt>
      <trkpt lat="49.59219" lon="4.98879">
        <ele>336.6</ele>
        <time>2018-07-08T10:27:25Z</time>
      </trkpt>
      <trkpt lat="49.59221" lon="4.98887">
        <ele>336.6</ele>
        <time>2018-07-08T10:27:31Z</time>
      </trkpt>
      <trkpt lat="49.59223" lon="4.98891">
        <ele>335.64</ele>
        <time>2018-07-08T10:27:34Z</time>
      </trkpt>
      <trkpt lat="49.59226" lon="4.98907">
        <ele>332.27</ele>
        <time>2018-07-08T10:27:50Z</time>
      </trkpt>
      <trkpt lat="49.59229" lon="4.98916">
        <ele>331.31</ele>
        <time>2018-07-08T10:28:02Z</time>
      </trkpt>
      <trkpt lat="49.5923" lon="4.98917">
        <ele>329.39</ele>
        <time>2018-07-08T10:28:20Z</time>
      </trkpt>
      <trkpt lat="49.59231" lon="4.98921">
        <ele>328.91</ele>
        <time>2018-07-08T10:28:31Z</time>
      </trkpt>
      <trkpt lat="49.59231" lon="4.98933">
        <ele>327.47</ele>
        <time>2018-07-08T10:28:38Z</time>
      </trkpt>
      <trkpt lat="49.59232" lon="4.98944">
        <ele>326.99</ele>
        <time>2018-07-08T10:28:42Z</time>
      </trkpt>
      <trkpt lat="49.59233" lon="4.98975">
        <ele>325.54</ele>
        <time>2018-07-08T10:28:58Z</time>
      </trkpt>
      <trkpt lat="49.59235" lon="4.99001">
        <ele>326.5</ele>
        <time>2018-07-08T10:29:12Z</time>
      </trkpt>
      <trkpt lat="49.59235" lon="4.99016">
        <ele>325.54</ele>
        <time>2018-07-08T10:29:24Z</time>
      </trkpt>
      <trkpt lat="49.59236" lon="4.9902">
        <ele>325.54</ele>
        <time>2018-07-08T10:29:26Z</time>
      </trkpt>
      <trkpt lat="49.59239" lon="4.99036">
        <ele>326.02</ele>
        <time>2018-07-08T10:29:38Z</time>
      </trkpt>
      <trkpt lat="49.5924" lon="4.99054">
        <ele>326.5</ele>
        <time>2018-07-08T10:29:49Z</time>
      </trkpt>
      <trkpt lat="49.59243" lon="4.99076">
        <ele>324.58</ele>
        <time>2018-07-08T10:30:00Z</time>
      </trkpt>
      <trkpt lat="49.59243" lon="4.9908">
        <ele>324.58</ele>
        <time>2018-07-08T10:30:06Z</time>
      </trkpt>
      <trkpt lat="49.59242" lon="4.99092">
        <ele>324.1</ele>
        <time>2018-07-08T10:30:11Z</time>
      </trkpt>
      <trkpt lat="49.59244" lon="4.99108">
        <ele>324.58</ele>
        <time>2018-07-08T10:30:23Z</time>
      </trkpt>
      <trkpt lat="49.59244" lon="4.99127">
        <ele>324.1</ele>
        <time>2018-07-08T10:30:36Z</time>
      </trkpt>
      <trkpt lat="49.59247" lon="4.99145">
        <ele>326.5</ele>
        <time>2018-07-08T10:30:49Z</time>
      </trkpt>
      <trkpt lat="49.59248" lon="4.99155">
        <ele>328.43</ele>
        <time>2018-07-08T10:31:00Z</time>
      </trkpt>
      <trkpt lat="49.59251" lon="4.99171">
        <ele>329.39</ele>
        <time>2018-07-08T10:31:10Z</time>
      </trkpt>
      <trkpt lat="49.59252" lon="4.99175">
        <ele>329.87</ele>
        <time>2018-07-08T10:31:13Z</time>
      </trkpt>
      <trkpt lat="49.59257" lon="4.99193">
        <ele>329.87</ele>
        <time>2018-07-08T10:31:24Z</time>
      </trkpt>
      <trkpt lat="49.5926" lon="4.99206">
        <ele>328.91</ele>
        <time>2018-07-08T10:31:38Z</time>
      </trkpt>
      <trkpt lat="49.59262" lon="4.99214">
        <ele>328.43</ele>
        <time>2018-07-08T10:31:44Z</time>
      </trkpt>
      <trkpt lat="49.59262" lon="4.99231">
        <ele>329.39</ele>
        <time>2018-07-08T10:31:55Z</time>
      </trkpt>
      <trkpt lat="49.59262" lon="4.99233">
        <ele>329.39</ele>
        <time>2018-07-08T10:32:02Z</time>
      </trkpt>
      <trkpt lat="49.59267" lon="4.99252">
        <ele>329.87</ele>
        <time>2018-07-08T10:32:13Z</time>
      </trkpt>
      <trkpt lat="49.5927" lon="4.99273">
        <ele>329.39</ele>
        <time>2018-07-08T10:32:25Z</time>
      </trkpt>
      <trkpt lat="49.59273" lon="4.99291">
        <ele>328.91</ele>
        <time>2018-07-08T10:32:37Z</time>
      </trkpt>
      <trkpt lat="49.59276" lon="4.99314">
        <ele>328.91</ele>
        <time>2018-07-08T10:32:51Z</time>
      </trkpt>
      <trkpt lat="49.59276" lon="4.99321">
        <ele>328.91</ele>
        <time>2018-07-08T10:32:56Z</time>
      </trkpt>
      <trkpt lat="49.59277" lon="4.99338">
        <ele>329.87</ele>
        <time>2018-07-08T10:33:08Z</time>
      </trkpt>
      <trkpt lat="49.59278" lon="4.99339">
        <ele>329.87</ele>
        <time>2018-07-08T10:33:09Z</time>
      </trkpt>
      <trkpt lat="49.59281" lon="4.99361">
        <ele>330.35</ele>
        <time>2018-07-08T10:33:17Z</time>
      </trkpt>
      <trkpt lat="49.59282" lon="4.99375">
        <ele>328.91</ele>
        <time>2018-07-08T10:33:30Z</time>
      </trkpt>
      <trkpt lat="49.59282" lon="4.9941">
        <ele>326.99</ele>
        <time>2018-07-08T10:33:44Z</time>
      </trkpt>
      <trkpt lat="49.59284" lon="4.99424">
        <ele>326.99</ele>
        <time>2018-07-08T10:33:58Z</time>
      </trkpt>
      <trkpt lat="49.59286" lon="4.99457">
        <ele>327.95</ele>
        <time>2018-07-08T10:34:09Z</time>
      </trkpt>
      <trkpt lat="49.59285" lon="4.99466">
        <ele>327.47</ele>
        <time>2018-07-08T10:34:19Z</time>
      </trkpt>
      <trkpt lat="49.59286" lon="4.99483">
        <ele>328.43</ele>
        <time>2018-07-08T10:34:28Z</time>
      </trkpt>
      <trkpt lat="49.59287" lon="4.99497">
        <ele>328.43</ele>
        <time>2018-07-08T10:34:33Z</time>
      </trkpt>
      <trkpt lat="49.59288" lon="4.99514">
        <ele>327.47</ele>
        <time>2018-07-08T10:34:39Z</time>
      </trkpt>
      <trkpt lat="49.59288" lon="4.99525">
        <ele>326.02</ele>
        <time>2018-07-08T10:34:53Z</time>
      </trkpt>
      <trkpt lat="49.59286" lon="4.99529">
        <ele>325.54</ele>
        <time>2018-07-08T10:35:05Z</time>
      </trkpt>
      <trkpt lat="49.59286" lon="4.99532">
        <ele>324.1</ele>
        <time>2018-07-08T10:35:24Z</time>
      </trkpt>
      <trkpt lat="49.59285" lon="4.99536">
        <ele>322.18</ele>
        <time>2018-07-08T10:35:36Z</time>
      </trkpt>
      <trkpt lat="49.59287" lon="4.9954">
        <ele>314.97</ele>
        <time>2018-07-08T10:35:59Z</time>
      </trkpt>
      <trkpt lat="49.59289" lon="4.9954">
        <ele>305.84</ele>
        <time>2018-07-08T10:36:22Z</time>
      </trkpt>
      <trkpt lat="49.59289" lon="4.99539">
        <ele>302.47</ele>
        <time>2018-07-08T10:36:45Z</time>
      </trkpt>
      <trkpt lat="49.59289" lon="4.99541">
        <ele>299.59</ele>
        <time>2018-07-08T10:37:06Z</time>
      </trkpt>
      <trkpt lat="49.59289" lon="4.99542">
        <ele>299.11</ele>
        <time>2018-07-08T10:37:36Z</time>
      </trkpt>
      <trkpt lat="49.59291" lon="4.99543">
        <ele>299.59</ele>
        <time>2018-07-08T10:38:04Z</time>
      </trkpt>
      <trkpt lat="49.5929" lon="4.99544">
        <ele>298.63</ele>
        <time>2018-07-08T10:38:27Z</time>
      </trkpt>
      <trkpt lat="49.5929" lon="4.99546">
        <ele>299.11</ele>
        <time>2018-07-08T10:38:59Z</time>
      </trkpt>
      <trkpt lat="49.5929" lon="4.99547">
        <ele>299.11</ele>
        <time>2018-07-08T10:39:23Z</time>
      </trkpt>
      <trkpt lat="49.5929" lon="4.99548">
        <ele>299.11</ele>
        <time>2018-07-08T10:39:46Z</time>
      </trkpt>
      <trkpt lat="49.59289" lon="4.99548">
        <ele>299.59</ele>
        <time>2018-07-08T10:40:08Z</time>
      </trkpt>
      <trkpt lat="49.5929" lon="4.99549">
        <ele>299.11</ele>
        <time>2018-07-08T10:40:27Z</time>
      </trkpt>
      <trkpt lat="49.59292" lon="4.99548">
        <ele>299.11</ele>
        <time>2018-07-08T10:40:39Z</time>
      </trkpt>
      <trkpt lat="49.59298" lon="4.99547">
        <ele>299.11</ele>
        <time>2018-07-08T10:40:43Z</time>
      </trkpt>
      <trkpt lat="49.59304" lon="4.99542">
        <ele>300.55</ele>
        <time>2018-07-08T10:40:55Z</time>
      </trkpt>
      <trkpt lat="49.59311" lon="4.99537">
        <ele>302.47</ele>
        <time>2018-07-08T10:41:06Z</time>
      </trkpt>
      <trkpt lat="49.59323" lon="4.99522">
        <ele>302.95</ele>
        <time>2018-07-08T10:41:24Z</time>
      </trkpt>
      <trkpt lat="49.59325" lon="4.99519">
        <ele>303.43</ele>
        <time>2018-07-08T10:41:26Z</time>
      </trkpt>
      <trkpt lat="49.59338" lon="4.99504">
        <ele>295.26</ele>
        <time>2018-07-08T10:41:40Z</time>
      </trkpt>
      <trkpt lat="49.59347" lon="4.99497">
        <ele>294.3</ele>
        <time>2018-07-08T10:41:53Z</time>
      </trkpt>
      <trkpt lat="49.59354" lon="4.9949">
        <ele>293.82</ele>
        <time>2018-07-08T10:42:04Z</time>
      </trkpt>
      <trkpt lat="49.59364" lon="4.9948">
        <ele>296.22</ele>
        <time>2018-07-08T10:42:11Z</time>
      </trkpt>
      <trkpt lat="49.59374" lon="4.99468">
        <ele>297.67</ele>
        <time>2018-07-08T10:42:21Z</time>
      </trkpt>
      <trkpt lat="49.59391" lon="4.99451">
        <ele>297.18</ele>
        <time>2018-07-08T10:42:36Z</time>
      </trkpt>
      <trkpt lat="49.59402" lon="4.99442">
        <ele>299.11</ele>
        <time>2018-07-08T10:42:47Z</time>
      </trkpt>
      <trkpt lat="49.59418" lon="4.99422">
        <ele>300.07</ele>
        <time>2018-07-08T10:43:01Z</time>
      </trkpt>
      <trkpt lat="49.5942" lon="4.9942">
        <ele>300.55</ele>
        <time>2018-07-08T10:43:03Z</time>
      </trkpt>
      <trkpt lat="49.59431" lon="4.99407">
        <ele>302.95</ele>
        <time>2018-07-08T10:43:18Z</time>
      </trkpt>
      <trkpt lat="49.59441" lon="4.99393">
        <ele>303.91</ele>
        <time>2018-07-08T10:43:31Z</time>
      </trkpt>
      <trkpt lat="49.59457" lon="4.99371">
        <ele>305.84</ele>
        <time>2018-07-08T10:43:45Z</time>
      </trkpt>
      <trkpt lat="49.59464" lon="4.99359">
        <ele>305.84</ele>
        <time>2018-07-08T10:43:59Z</time>
      </trkpt>
      <trkpt lat="49.59469" lon="4.99349">
        <ele>306.32</ele>
        <time>2018-07-08T10:44:05Z</time>
      </trkpt>
      <trkpt lat="49.59485" lon="4.99329">
        <ele>307.28</ele>
        <time>2018-07-08T10:44:20Z</time>
      </trkpt>
      <trkpt lat="49.59498" lon="4.99311">
        <ele>308.24</ele>
        <time>2018-07-08T10:44:38Z</time>
      </trkpt>
      <trkpt lat="49.59507" lon="4.99302">
        <ele>307.76</ele>
        <time>2018-07-08T10:44:50Z</time>
      </trkpt>
      <trkpt lat="49.59522" lon="4.99284">
        <ele>306.8</ele>
        <time>2018-07-08T10:45:05Z</time>
      </trkpt>
      <trkpt lat="49.59526" lon="4.99279">
        <ele>306.8</ele>
        <time>2018-07-08T10:45:13Z</time>
      </trkpt>
      <trkpt lat="49.59533" lon="4.99271">
        <ele>306.8</ele>
        <time>2018-07-08T10:45:19Z</time>
      </trkpt>
      <trkpt lat="49.59544" lon="4.99261">
        <ele>304.88</ele>
        <time>2018-07-08T10:45:33Z</time>
      </trkpt>
      <trkpt lat="49.59552" lon="4.99253">
        <ele>304.88</ele>
        <time>2018-07-08T10:45:39Z</time>
      </trkpt>
      <trkpt lat="49.59559" lon="4.99245">
        <ele>305.84</ele>
        <time>2018-07-08T10:45:44Z</time>
      </trkpt>
      <trkpt lat="49.59566" lon="4.99238">
        <ele>306.32</ele>
        <time>2018-07-08T10:45:57Z</time>
      </trkpt>
      <trkpt lat="49.59568" lon="4.99237">
        <ele>306.32</ele>
        <time>2018-07-08T10:46:01Z</time>
      </trkpt>
      <trkpt lat="49.59573" lon="4.99234">
        <ele>306.8</ele>
        <time>2018-07-08T10:46:05Z</time>
      </trkpt>
      <trkpt lat="49.5959" lon="4.99219">
        <ele>305.36</ele>
        <time>2018-07-08T10:46:17Z</time>
      </trkpt>
      <trkpt lat="49.596" lon="4.99206">
        <ele>310.16</ele>
        <time>2018-07-08T10:46:31Z</time>
      </trkpt>
      <trkpt lat="49.59606" lon="4.99203">
        <ele>311.6</ele>
        <time>2018-07-08T10:46:35Z</time>
      </trkpt>
      <trkpt lat="49.59615" lon="4.99197">
        <ele>313.05</ele>
        <time>2018-07-08T10:46:47Z</time>
      </trkpt>
      <trkpt lat="49.59618" lon="4.99195">
        <ele>313.05</ele>
        <time>2018-07-08T10:46:50Z</time>
      </trkpt>
      <trkpt lat="49.59627" lon="4.99186">
        <ele>315.45</ele>
        <time>2018-07-08T10:47:04Z</time>
      </trkpt>
      <trkpt lat="49.59629" lon="4.99186">
        <ele>315.45</ele>
        <time>2018-07-08T10:47:06Z</time>
      </trkpt>
      <trkpt lat="49.59638" lon="4.99183">
        <ele>317.37</ele>
        <time>2018-07-08T10:47:14Z</time>
      </trkpt>
      <trkpt lat="49.59651" lon="4.99177">
        <ele>321.22</ele>
        <time>2018-07-08T10:47:27Z</time>
      </trkpt>
      <trkpt lat="49.59658" lon="4.99172">
        <ele>324.1</ele>
        <time>2018-07-08T10:47:39Z</time>
      </trkpt>
      <trkpt lat="49.59668" lon="4.99166">
        <ele>325.54</ele>
        <time>2018-07-08T10:47:53Z</time>
      </trkpt>
      <trkpt lat="49.59677" lon="4.99164">
        <ele>327.47</ele>
        <time>2018-07-08T10:48:04Z</time>
      </trkpt>
      <trkpt lat="49.59687" lon="4.99152">
        <ele>327.47</ele>
        <time>2018-07-08T10:48:17Z</time>
      </trkpt>
      <trkpt lat="49.59694" lon="4.99142">
        <ele>326.5</ele>
        <time>2018-07-08T10:48:33Z</time>
      </trkpt>
      <trkpt lat="49.59695" lon="4.99142">
        <ele>326.5</ele>
        <time>2018-07-08T10:48:34Z</time>
      </trkpt>
      <trkpt lat="49.59706" lon="4.99138">
        <ele>327.47</ele>
        <time>2018-07-08T10:48:47Z</time>
      </trkpt>
      <trkpt lat="49.59716" lon="4.99131">
        <ele>328.91</ele>
        <time>2018-07-08T10:48:59Z</time>
      </trkpt>
      <trkpt lat="49.59717" lon="4.9913">
        <ele>328.91</ele>
        <time>2018-07-08T10:49:00Z</time>
      </trkpt>
      <trkpt lat="49.59722" lon="4.9913">
        <ele>329.39</ele>
        <time>2018-07-08T10:49:04Z</time>
      </trkpt>
      <trkpt lat="49.59733" lon="4.99121">
        <ele>330.83</ele>
        <time>2018-07-08T10:49:17Z</time>
      </trkpt>
      <trkpt lat="49.5974" lon="4.99117">
        <ele>329.87</ele>
        <time>2018-07-08T10:49:31Z</time>
      </trkpt>
      <trkpt lat="49.59747" lon="4.9911">
        <ele>330.35</ele>
        <time>2018-07-08T10:49:46Z</time>
      </trkpt>
      <trkpt lat="49.59752" lon="4.99108">
        <ele>328.91</ele>
        <time>2018-07-08T10:50:04Z</time>
      </trkpt>
      <trkpt lat="49.59759" lon="4.99105">
        <ele>329.39</ele>
        <time>2018-07-08T10:50:16Z</time>
      </trkpt>
      <trkpt lat="49.59773" lon="4.99097">
        <ele>330.35</ele>
        <time>2018-07-08T10:50:32Z</time>
      </trkpt>
      <trkpt lat="49.59786" lon="4.99087">
        <ele>334.2</ele>
        <time>2018-07-08T10:50:45Z</time>
      </trkpt>
      <trkpt lat="49.59798" lon="4.99077">
        <ele>336.6</ele>
        <time>2018-07-08T10:51:00Z</time>
      </trkpt>
      <trkpt lat="49.59813" lon="4.99067">
        <ele>340.44</ele>
        <time>2018-07-08T10:51:17Z</time>
      </trkpt>
      <trkpt lat="49.59814" lon="4.99066">
        <ele>340.44</ele>
        <time>2018-07-08T10:51:18Z</time>
      </trkpt>
      <trkpt lat="49.59828" lon="4.99052">
        <ele>347.65</ele>
        <time>2018-07-08T10:51:31Z</time>
      </trkpt>
      <trkpt lat="49.59839" lon="4.99042">
        <ele>348.13</ele>
        <time>2018-07-08T10:51:47Z</time>
      </trkpt>
      <trkpt lat="49.59844" lon="4.99034">
        <ele>344.77</ele>
        <time>2018-07-08T10:52:01Z</time>
      </trkpt>
      <trkpt lat="49.59847" lon="4.9903">
        <ele>342.85</ele>
        <time>2018-07-08T10:52:15Z</time>
      </trkpt>
      <trkpt lat="49.59858" lon="4.99018">
        <ele>344.29</ele>
        <time>2018-07-08T10:52:29Z</time>
      </trkpt>
      <trkpt lat="49.59871" lon="4.99008">
        <ele>342.37</ele>
        <time>2018-07-08T10:52:45Z</time>
      </trkpt>
      <trkpt lat="49.59886" lon="4.98992">
        <ele>340.92</ele>
        <time>2018-07-08T10:52:58Z</time>
      </trkpt>
      <trkpt lat="49.59889" lon="4.98989">
        <ele>340.44</ele>
        <time>2018-07-08T10:53:00Z</time>
      </trkpt>
      <trkpt lat="49.59891" lon="4.98987">
        <ele>339.96</ele>
        <time>2018-07-08T10:53:02Z</time>
      </trkpt>
      <trkpt lat="49.599" lon="4.98976">
        <ele>339.96</ele>
        <time>2018-07-08T10:53:09Z</time>
      </trkpt>
      <trkpt lat="49.59915" lon="4.98958">
        <ele>337.08</ele>
        <time>2018-07-08T10:53:25Z</time>
      </trkpt>
      <trkpt lat="49.59927" lon="4.98944">
        <ele>334.68</ele>
        <time>2018-07-08T10:53:39Z</time>
      </trkpt>
      <trkpt lat="49.59936" lon="4.98929">
        <ele>331.79</ele>
        <time>2018-07-08T10:53:54Z</time>
      </trkpt>
      <trkpt lat="49.59939" lon="4.98924">
        <ele>331.79</ele>
        <time>2018-07-08T10:53:57Z</time>
      </trkpt>
      <trkpt lat="49.59949" lon="4.98906">
        <ele>327.95</ele>
        <time>2018-07-08T10:54:14Z</time>
      </trkpt>
      <trkpt lat="49.59949" lon="4.98905">
        <ele>327.95</ele>
        <time>2018-07-08T10:54:15Z</time>
      </trkpt>
      <trkpt lat="49.59957" lon="4.98891">
        <ele>326.99</ele>
        <time>2018-07-08T10:54:30Z</time>
      </trkpt>
      <trkpt lat="49.5996" lon="4.98885">
        <ele>326.99</ele>
        <time>2018-07-08T10:54:37Z</time>
      </trkpt>
      <trkpt lat="49.59962" lon="4.98882">
        <ele>326.99</ele>
        <time>2018-07-08T10:54:39Z</time>
      </trkpt>
      <trkpt lat="49.59973" lon="4.98867">
        <ele>327.95</ele>
        <time>2018-07-08T10:54:55Z</time>
      </trkpt>
      <trkpt lat="49.59983" lon="4.98848">
        <ele>328.91</ele>
        <time>2018-07-08T10:55:08Z</time>
      </trkpt>
      <trkpt lat="49.59986" lon="4.98842">
        <ele>327.95</ele>
        <time>2018-07-08T10:55:12Z</time>
      </trkpt>
      <trkpt lat="49.59999" lon="4.98814">
        <ele>328.91</ele>
        <time>2018-07-08T10:55:27Z</time>
      </trkpt>
      <trkpt lat="49.6001" lon="4.98791">
        <ele>330.35</ele>
        <time>2018-07-08T10:55:43Z</time>
      </trkpt>
      <trkpt lat="49.60013" lon="4.98786">
        <ele>331.31</ele>
        <time>2018-07-08T10:55:46Z</time>
      </trkpt>
      <trkpt lat="49.60019" lon="4.98773">
        <ele>333.71</ele>
        <time>2018-07-08T10:55:52Z</time>
      </trkpt>
      <trkpt lat="49.60028" lon="4.98749">
        <ele>337.08</ele>
        <time>2018-07-08T10:56:06Z</time>
      </trkpt>
      <trkpt lat="49.60039" lon="4.98722">
        <ele>335.64</ele>
        <time>2018-07-08T10:56:20Z</time>
      </trkpt>
      <trkpt lat="49.60045" lon="4.98704">
        <ele>335.64</ele>
        <time>2018-07-08T10:56:33Z</time>
      </trkpt>
      <trkpt lat="49.60052" lon="4.98681">
        <ele>339.48</ele>
        <time>2018-07-08T10:56:48Z</time>
      </trkpt>
      <trkpt lat="49.60056" lon="4.98665">
        <ele>343.33</ele>
        <time>2018-07-08T10:57:01Z</time>
      </trkpt>
      <trkpt lat="49.60061" lon="4.98641">
        <ele>343.81</ele>
        <time>2018-07-08T10:57:15Z</time>
      </trkpt>
      <trkpt lat="49.60064" lon="4.98627">
        <ele>339.96</ele>
        <time>2018-07-08T10:57:27Z</time>
      </trkpt>
      <trkpt lat="49.60065" lon="4.98623">
        <ele>338.52</ele>
        <time>2018-07-08T10:57:29Z</time>
      </trkpt>
      <trkpt lat="49.60069" lon="4.9862">
        <ele>337.08</ele>
        <time>2018-07-08T10:57:33Z</time>
      </trkpt>
      <trkpt lat="49.6008" lon="4.98614">
        <ele>336.12</ele>
        <time>2018-07-08T10:57:45Z</time>
      </trkpt>
      <trkpt lat="49.60081" lon="4.98613">
        <ele>335.64</ele>
        <time>2018-07-08T10:57:52Z</time>
      </trkpt>
      <trkpt lat="49.60083" lon="4.98614">
        <ele>331.79</ele>
        <time>2018-07-08T10:58:06Z</time>
      </trkpt>
      <trkpt lat="49.60091" lon="4.98615">
        <ele>328.91</ele>
        <time>2018-07-08T10:58:21Z</time>
      </trkpt>
      <trkpt lat="49.60097" lon="4.98621">
        <ele>328.91</ele>
        <time>2018-07-08T10:58:28Z</time>
      </trkpt>
      <trkpt lat="49.60105" lon="4.98638">
        <ele>325.54</ele>
        <time>2018-07-08T10:58:38Z</time>
      </trkpt>
      <trkpt lat="49.60108" lon="4.98646">
        <ele>323.14</ele>
        <time>2018-07-08T10:58:42Z</time>
      </trkpt>
      <trkpt lat="49.60117" lon="4.98658">
        <ele>320.26</ele>
        <time>2018-07-08T10:58:52Z</time>
      </trkpt>
      <trkpt lat="49.6012" lon="4.98662">
        <ele>319.78</ele>
        <time>2018-07-08T10:58:55Z</time>
      </trkpt>
      <trkpt lat="49.60132" lon="4.98678">
        <ele>321.7</ele>
        <time>2018-07-08T10:59:09Z</time>
      </trkpt>
      <trkpt lat="49.60139" lon="4.98687">
        <ele>326.02</ele>
        <time>2018-07-08T10:59:23Z</time>
      </trkpt>
      <trkpt lat="49.60149" lon="4.98697">
        <ele>326.02</ele>
        <time>2018-07-08T10:59:38Z</time>
      </trkpt>
      <trkpt lat="49.60156" lon="4.98707">
        <ele>324.58</ele>
        <time>2018-07-08T10:59:52Z</time>
      </trkpt>
      <trkpt lat="49.60167" lon="4.98721">
        <ele>326.5</ele>
        <time>2018-07-08T11:00:06Z</time>
      </trkpt>
      <trkpt lat="49.60177" lon="4.98731">
        <ele>327.95</ele>
        <time>2018-07-08T11:00:15Z</time>
      </trkpt>
      <trkpt lat="49.60198" lon="4.98742">
        <ele>329.87</ele>
        <time>2018-07-08T11:00:32Z</time>
      </trkpt>
      <trkpt lat="49.60207" lon="4.98742">
        <ele>330.35</ele>
        <time>2018-07-08T11:00:39Z</time>
      </trkpt>
      <trkpt lat="49.60224" lon="4.98746">
        <ele>333.23</ele>
        <time>2018-07-08T11:00:50Z</time>
      </trkpt>
      <trkpt lat="49.60237" lon="4.98744">
        <ele>336.6</ele>
        <time>2018-07-08T11:01:04Z</time>
      </trkpt>
      <trkpt lat="49.60254" lon="4.9876">
        <ele>334.68</ele>
        <time>2018-07-08T11:01:22Z</time>
      </trkpt>
      <trkpt lat="49.60264" lon="4.98768">
        <ele>333.71</ele>
        <time>2018-07-08T11:01:36Z</time>
      </trkpt>
      <trkpt lat="49.60277" lon="4.98776">
        <ele>333.23</ele>
        <time>2018-07-08T11:01:48Z</time>
      </trkpt>
      <trkpt lat="49.60288" lon="4.98781">
        <ele>334.68</ele>
        <time>2018-07-08T11:01:57Z</time>
      </trkpt>
      <trkpt lat="49.60297" lon="4.98782">
        <ele>338.04</ele>
        <time>2018-07-08T11:02:03Z</time>
      </trkpt>
      <trkpt lat="49.60307" lon="4.98786">
        <ele>340.92</ele>
        <time>2018-07-08T11:02:17Z</time>
      </trkpt>
      <trkpt lat="49.6031" lon="4.9879">
        <ele>340.44</ele>
        <time>2018-07-08T11:02:19Z</time>
      </trkpt>
      <trkpt lat="49.60322" lon="4.98798">
        <ele>341.41</ele>
        <time>2018-07-08T11:02:30Z</time>
      </trkpt>
      <trkpt lat="49.60325" lon="4.98801">
        <ele>337.56</ele>
        <time>2018-07-08T11:02:46Z</time>
      </trkpt>
      <trkpt lat="49.60329" lon="4.98802">
        <ele>335.64</ele>
        <time>2018-07-08T11:03:00Z</time>
      </trkpt>
      <trkpt lat="49.60339" lon="4.98807">
        <ele>333.71</ele>
        <time>2018-07-08T11:03:11Z</time>
      </trkpt>
      <trkpt lat="49.6035" lon="4.98813">
        <ele>333.71</ele>
        <time>2018-07-08T11:03:22Z</time>
      </trkpt>
      <trkpt lat="49.6037" lon="4.98815">
        <ele>339</ele>
        <time>2018-07-08T11:03:36Z</time>
      </trkpt>
      <trkpt lat="49.60386" lon="4.98817">
        <ele>338.52</ele>
        <time>2018-07-08T11:03:52Z</time>
      </trkpt>
      <trkpt lat="49.60396" lon="4.98824">
        <ele>338.04</ele>
        <time>2018-07-08T11:04:05Z</time>
      </trkpt>
      <trkpt lat="49.60402" lon="4.98827">
        <ele>338.04</ele>
        <time>2018-07-08T11:04:11Z</time>
      </trkpt>
      <trkpt lat="49.6041" lon="4.98829">
        <ele>339</ele>
        <time>2018-07-08T11:04:17Z</time>
      </trkpt>
      <trkpt lat="49.6042" lon="4.98833">
        <ele>341.41</ele>
        <time>2018-07-08T11:04:27Z</time>
      </trkpt>
      <trkpt lat="49.60429" lon="4.98837">
        <ele>342.37</ele>
        <time>2018-07-08T11:04:33Z</time>
      </trkpt>
      <trkpt lat="49.60441" lon="4.98842">
        <ele>344.29</ele>
        <time>2018-07-08T11:04:42Z</time>
      </trkpt>
      <trkpt lat="49.60453" lon="4.98847">
        <ele>344.29</ele>
        <time>2018-07-08T11:04:55Z</time>
      </trkpt>
      <trkpt lat="49.60467" lon="4.98859">
        <ele>343.81</ele>
        <time>2018-07-08T11:05:07Z</time>
      </trkpt>
      <trkpt lat="49.60481" lon="4.98869">
        <ele>345.73</ele>
        <time>2018-07-08T11:05:21Z</time>
      </trkpt>
      <trkpt lat="49.60489" lon="4.98871">
        <ele>344.29</ele>
        <time>2018-07-08T11:05:36Z</time>
      </trkpt>
      <trkpt lat="49.60489" lon="4.98872">
        <ele>344.29</ele>
        <time>2018-07-08T11:05:37Z</time>
      </trkpt>
      <trkpt lat="49.60493" lon="4.98874">
        <ele>344.77</ele>
        <time>2018-07-08T11:05:40Z</time>
      </trkpt>
      <trkpt lat="49.60508" lon="4.98882">
        <ele>344.77</ele>
        <time>2018-07-08T11:05:52Z</time>
      </trkpt>
      <trkpt lat="49.60522" lon="4.98883">
        <ele>346.69</ele>
        <time>2018-07-08T11:06:07Z</time>
      </trkpt>
      <trkpt lat="49.60532" lon="4.98894">
        <ele>339</ele>
        <time>2018-07-08T11:06:17Z</time>
      </trkpt>
      <trkpt lat="49.60543" lon="4.98901">
        <ele>333.71</ele>
        <time>2018-07-08T11:06:33Z</time>
      </trkpt>
      <trkpt lat="49.60545" lon="4.98901">
        <ele>331.79</ele>
        <time>2018-07-08T11:06:40Z</time>
      </trkpt>
      <trkpt lat="49.60557" lon="4.98905">
        <ele>329.87</ele>
        <time>2018-07-08T11:06:53Z</time>
      </trkpt>
      <trkpt lat="49.60567" lon="4.98909">
        <ele>327.95</ele>
        <time>2018-07-08T11:07:05Z</time>
      </trkpt>
      <trkpt lat="49.60571" lon="4.9891">
        <ele>325.54</ele>
        <time>2018-07-08T11:07:23Z</time>
      </trkpt>
      <trkpt lat="49.60582" lon="4.98913">
        <ele>326.99</ele>
        <time>2018-07-08T11:07:37Z</time>
      </trkpt>
      <trkpt lat="49.60596" lon="4.98918">
        <ele>328.91</ele>
        <time>2018-07-08T11:07:51Z</time>
      </trkpt>
      <trkpt lat="49.60598" lon="4.98918">
        <ele>327.95</ele>
        <time>2018-07-08T11:07:57Z</time>
      </trkpt>
      <trkpt lat="49.60602" lon="4.98918">
        <ele>327.95</ele>
        <time>2018-07-08T11:08:01Z</time>
      </trkpt>
      <trkpt lat="49.60611" lon="4.98919">
        <ele>326.5</ele>
        <time>2018-07-08T11:08:16Z</time>
      </trkpt>
      <trkpt lat="49.6062" lon="4.98914">
        <ele>325.54</ele>
        <time>2018-07-08T11:08:31Z</time>
      </trkpt>
      <trkpt lat="49.60629" lon="4.98906">
        <ele>324.1</ele>
        <time>2018-07-08T11:08:45Z</time>
      </trkpt>
      <trkpt lat="49.60637" lon="4.9889">
        <ele>324.58</ele>
        <time>2018-07-08T11:08:57Z</time>
      </trkpt>
      <trkpt lat="49.60638" lon="4.98888">
        <ele>323.62</ele>
        <time>2018-07-08T11:09:01Z</time>
      </trkpt>
      <trkpt lat="49.60647" lon="4.98868">
        <ele>322.18</ele>
        <time>2018-07-08T11:09:13Z</time>
      </trkpt>
      <trkpt lat="49.60654" lon="4.98855">
        <ele>320.74</ele>
        <time>2018-07-08T11:09:28Z</time>
      </trkpt>
      <trkpt lat="49.60664" lon="4.98842">
        <ele>317.85</ele>
        <time>2018-07-08T11:09:42Z</time>
      </trkpt>
      <trkpt lat="49.60671" lon="4.98826">
        <ele>316.89</ele>
        <time>2018-07-08T11:09:54Z</time>
      </trkpt>
      <trkpt lat="49.60678" lon="4.98813">
        <ele>317.37</ele>
        <time>2018-07-08T11:10:06Z</time>
      </trkpt>
      <trkpt lat="49.60681" lon="4.98806">
        <ele>315.93</ele>
        <time>2018-07-08T11:10:12Z</time>
      </trkpt>
      <trkpt lat="49.60688" lon="4.98791">
        <ele>314.49</ele>
        <time>2018-07-08T11:10:26Z</time>
      </trkpt>
      <trkpt lat="49.60693" lon="4.98784">
        <ele>314.49</ele>
        <time>2018-07-08T11:10:41Z</time>
      </trkpt>
      <trkpt lat="49.60695" lon="4.98781">
        <ele>314.01</ele>
        <time>2018-07-08T11:10:53Z</time>
      </trkpt>
      <trkpt lat="49.60703" lon="4.98763">
        <ele>312.09</ele>
        <time>2018-07-08T11:11:07Z</time>
      </trkpt>
      <trkpt lat="49.60712" lon="4.98744">
        <ele>313.05</ele>
        <time>2018-07-08T11:11:20Z</time>
      </trkpt>
      <trkpt lat="49.60718" lon="4.98728">
        <ele>314.97</ele>
        <time>2018-07-08T11:11:33Z</time>
      </trkpt>
      <trkpt lat="49.60723" lon="4.98715">
        <ele>315.93</ele>
        <time>2018-07-08T11:11:50Z</time>
      </trkpt>
      <trkpt lat="49.60729" lon="4.98699">
        <ele>315.93</ele>
        <time>2018-07-08T11:12:03Z</time>
      </trkpt>
      <trkpt lat="49.60733" lon="4.98688">
        <ele>314.97</ele>
        <time>2018-07-08T11:12:14Z</time>
      </trkpt>
      <trkpt lat="49.60735" lon="4.98685">
        <ele>314.97</ele>
        <time>2018-07-08T11:12:20Z</time>
      </trkpt>
      <trkpt lat="49.6075" lon="4.98654">
        <ele>311.6</ele>
        <time>2018-07-08T11:12:34Z</time>
      </trkpt>
      <trkpt lat="49.60758" lon="4.9864">
        <ele>309.2</ele>
        <time>2018-07-08T11:12:48Z</time>
      </trkpt>
      <trkpt lat="49.6076" lon="4.98637">
        <ele>309.68</ele>
        <time>2018-07-08T11:12:56Z</time>
      </trkpt>
      <trkpt lat="49.60763" lon="4.98631">
        <ele>309.2</ele>
        <time>2018-07-08T11:12:59Z</time>
      </trkpt>
      <trkpt lat="49.60772" lon="4.98616">
        <ele>310.16</ele>
        <time>2018-07-08T11:13:15Z</time>
      </trkpt>
      <trkpt lat="49.60781" lon="4.986">
        <ele>312.57</ele>
        <time>2018-07-08T11:13:26Z</time>
      </trkpt>
      <trkpt lat="49.60785" lon="4.98594">
        <ele>314.01</ele>
        <time>2018-07-08T11:13:31Z</time>
      </trkpt>
      <trkpt lat="49.60794" lon="4.9858">
        <ele>317.85</ele>
        <time>2018-07-08T11:13:44Z</time>
      </trkpt>
      <trkpt lat="49.60796" lon="4.98574">
        <ele>317.37</ele>
        <time>2018-07-08T11:13:48Z</time>
      </trkpt>
      <trkpt lat="49.60804" lon="4.98555">
        <ele>316.41</ele>
        <time>2018-07-08T11:14:04Z</time>
      </trkpt>
      <trkpt lat="49.60813" lon="4.98538">
        <ele>316.89</ele>
        <time>2018-07-08T11:14:18Z</time>
      </trkpt>
      <trkpt lat="49.60822" lon="4.98524">
        <ele>315.93</ele>
        <time>2018-07-08T11:14:30Z</time>
      </trkpt>
      <trkpt lat="49.60826" lon="4.98513">
        <ele>314.49</ele>
        <time>2018-07-08T11:14:46Z</time>
      </trkpt>
      <trkpt lat="49.60829" lon="4.98506">
        <ele>313.05</ele>
        <time>2018-07-08T11:14:50Z</time>
      </trkpt>
      <trkpt lat="49.6084" lon="4.98475">
        <ele>308.72</ele>
        <time>2018-07-08T11:15:05Z</time>
      </trkpt>
      <trkpt lat="49.60852" lon="4.98446">
        <ele>306.8</ele>
        <time>2018-07-08T11:15:17Z</time>
      </trkpt>
      <trkpt lat="49.60864" lon="4.98413">
        <ele>302.47</ele>
        <time>2018-07-08T11:15:31Z</time>
      </trkpt>
      <trkpt lat="49.60868" lon="4.98403">
        <ele>301.99</ele>
        <time>2018-07-08T11:15:35Z</time>
      </trkpt>
      <trkpt lat="49.6087" lon="4.98394">
        <ele>301.03</ele>
        <time>2018-07-08T11:15:40Z</time>
      </trkpt>
      <trkpt lat="49.60872" lon="4.98389">
        <ele>300.07</ele>
        <time>2018-07-08T11:15:43Z</time>
      </trkpt>
      <trkpt lat="49.60873" lon="4.98385">
        <ele>299.59</ele>
        <time>2018-07-08T11:15:45Z</time>
      </trkpt>
      <trkpt lat="49.60881" lon="4.98368">
        <ele>301.99</ele>
        <time>2018-07-08T11:15:59Z</time>
      </trkpt>
      <trkpt lat="49.60883" lon="4.98365">
        <ele>302.47</ele>
        <time>2018-07-08T11:16:03Z</time>
      </trkpt>
      <trkpt lat="49.60892" lon="4.98339">
        <ele>304.39</ele>
        <time>2018-07-08T11:16:21Z</time>
      </trkpt>
      <trkpt lat="49.609" lon="4.98319">
        <ele>303.91</ele>
        <time>2018-07-08T11:16:35Z</time>
      </trkpt>
      <trkpt lat="49.60905" lon="4.98303">
        <ele>305.84</ele>
        <time>2018-07-08T11:16:51Z</time>
      </trkpt>
      <trkpt lat="49.6091" lon="4.98292">
        <ele>306.32</ele>
        <time>2018-07-08T11:16:55Z</time>
      </trkpt>
      <trkpt lat="49.60918" lon="4.98267">
        <ele>308.72</ele>
        <time>2018-07-08T11:17:07Z</time>
      </trkpt>
      <trkpt lat="49.60922" lon="4.98259">
        <ele>311.6</ele>
        <time>2018-07-08T11:17:24Z</time>
      </trkpt>
      <trkpt lat="49.60921" lon="4.98256">
        <ele>311.6</ele>
        <time>2018-07-08T11:17:37Z</time>
      </trkpt>
      <trkpt lat="49.60921" lon="4.98255">
        <ele>312.09</ele>
        <time>2018-07-08T11:17:55Z</time>
      </trkpt>
      <trkpt lat="49.60922" lon="4.98253">
        <ele>313.53</ele>
        <time>2018-07-08T11:18:11Z</time>
      </trkpt>
      <trkpt lat="49.60922" lon="4.98254">
        <ele>314.49</ele>
        <time>2018-07-08T11:18:47Z</time>
      </trkpt>
      <trkpt lat="49.60923" lon="4.98254">
        <ele>314.49</ele>
        <time>2018-07-08T11:19:09Z</time>
      </trkpt>
      <trkpt lat="49.60924" lon="4.98251">
        <ele>315.45</ele>
        <time>2018-07-08T11:19:33Z</time>
      </trkpt>
      <trkpt lat="49.60924" lon="4.98252">
        <ele>315.45</ele>
        <time>2018-07-08T11:19:54Z</time>
      </trkpt>
      <trkpt lat="49.60924" lon="4.98252">
        <ele>314.97</ele>
        <time>2018-07-08T11:20:20Z</time>
      </trkpt>
      <trkpt lat="49.60924" lon="4.98249">
        <ele>314.97</ele>
        <time>2018-07-08T11:20:39Z</time>
      </trkpt>
      <trkpt lat="49.60927" lon="4.98245">
        <ele>314.97</ele>
        <time>2018-07-08T11:20:55Z</time>
      </trkpt>
      <trkpt lat="49.60929" lon="4.98241">
        <ele>314.97</ele>
        <time>2018-07-08T11:21:12Z</time>
      </trkpt>
      <trkpt lat="49.60937" lon="4.98221">
        <ele>314.97</ele>
        <time>2018-07-08T11:21:25Z</time>
      </trkpt>
      <trkpt lat="49.60944" lon="4.98205">
        <ele>316.89</ele>
        <time>2018-07-08T11:21:42Z</time>
      </trkpt>
      <trkpt lat="49.60953" lon="4.98194">
        <ele>317.37</ele>
        <time>2018-07-08T11:21:48Z</time>
      </trkpt>
      <trkpt lat="49.60966" lon="4.98171">
        <ele>316.41</ele>
        <time>2018-07-08T11:22:02Z</time>
      </trkpt>
      <trkpt lat="49.60973" lon="4.9816">
        <ele>316.41</ele>
        <time>2018-07-08T11:22:11Z</time>
      </trkpt>
      <trkpt lat="49.60976" lon="4.98155">
        <ele>315.93</ele>
        <time>2018-07-08T11:22:14Z</time>
      </trkpt>
      <trkpt lat="49.60985" lon="4.98133">
        <ele>314.49</ele>
        <time>2018-07-08T11:22:27Z</time>
      </trkpt>
      <trkpt lat="49.60994" lon="4.9812">
        <ele>313.05</ele>
        <time>2018-07-08T11:22:41Z</time>
      </trkpt>
      <trkpt lat="49.61003" lon="4.98114">
        <ele>311.6</ele>
        <time>2018-07-08T11:22:53Z</time>
      </trkpt>
      <trkpt lat="49.61005" lon="4.98113">
        <ele>311.12</ele>
        <time>2018-07-08T11:23:00Z</time>
      </trkpt>
      <trkpt lat="49.61015" lon="4.98128">
        <ele>310.16</ele>
        <time>2018-07-08T11:23:11Z</time>
      </trkpt>
      <trkpt lat="49.61023" lon="4.98136">
        <ele>311.6</ele>
        <time>2018-07-08T11:23:24Z</time>
      </trkpt>
      <trkpt lat="49.61036" lon="4.98145">
        <ele>311.12</ele>
        <time>2018-07-08T11:23:39Z</time>
      </trkpt>
      <trkpt lat="49.61043" lon="4.98152">
        <ele>311.6</ele>
        <time>2018-07-08T11:23:55Z</time>
      </trkpt>
      <trkpt lat="49.61049" lon="4.98163">
        <ele>311.12</ele>
        <time>2018-07-08T11:24:09Z</time>
      </trkpt>
      <trkpt lat="49.61064" lon="4.98182">
        <ele>309.68</ele>
        <time>2018-07-08T11:24:26Z</time>
      </trkpt>
      <trkpt lat="49.61084" lon="4.9821">
        <ele>309.68</ele>
        <time>2018-07-08T11:24:43Z</time>
      </trkpt>
      <trkpt lat="49.61086" lon="4.98212">
        <ele>310.16</ele>
        <time>2018-07-08T11:24:44Z</time>
      </trkpt>
      <trkpt lat="49.61093" lon="4.9823">
        <ele>310.64</ele>
        <time>2018-07-08T11:24:49Z</time>
      </trkpt>
      <trkpt lat="49.61096" lon="4.98234">
        <ele>311.12</ele>
        <time>2018-07-08T11:24:52Z</time>
      </trkpt>
      <trkpt lat="49.61107" lon="4.98257">
        <ele>311.12</ele>
        <time>2018-07-08T11:25:06Z</time>
      </trkpt>
      <trkpt lat="49.61116" lon="4.98279">
        <ele>312.09</ele>
        <time>2018-07-08T11:25:20Z</time>
      </trkpt>
      <trkpt lat="49.61124" lon="4.98291">
        <ele>312.09</ele>
        <time>2018-07-08T11:25:31Z</time>
      </trkpt>
      <trkpt lat="49.61128" lon="4.983">
        <ele>310.64</ele>
        <time>2018-07-08T11:25:48Z</time>
      </trkpt>
      <trkpt lat="49.61135" lon="4.98312">
        <ele>307.76</ele>
        <time>2018-07-08T11:26:09Z</time>
      </trkpt>
      <trkpt lat="49.61138" lon="4.98321">
        <ele>305.84</ele>
        <time>2018-07-08T11:26:31Z</time>
      </trkpt>
      <trkpt lat="49.61144" lon="4.98325">
        <ele>305.84</ele>
        <time>2018-07-08T11:26:48Z</time>
      </trkpt>
      <trkpt lat="49.61154" lon="4.98344">
        <ele>306.32</ele>
        <time>2018-07-08T11:27:05Z</time>
      </trkpt>
      <trkpt lat="49.61162" lon="4.98359">
        <ele>305.84</ele>
        <time>2018-07-08T11:27:19Z</time>
      </trkpt>
      <trkpt lat="49.61166" lon="4.98363">
        <ele>306.32</ele>
        <time>2018-07-08T11:27:25Z</time>
      </trkpt>
      <trkpt lat="49.61178" lon="4.98383">
        <ele>309.2</ele>
        <time>2018-07-08T11:27:42Z</time>
      </trkpt>
      <trkpt lat="49.61192" lon="4.98402">
        <ele>310.64</ele>
        <time>2018-07-08T11:27:58Z</time>
      </trkpt>
      <trkpt lat="49.61195" lon="4.98406">
        <ele>310.64</ele>
        <time>2018-07-08T11:28:02Z</time>
      </trkpt>
      <trkpt lat="49.6121" lon="4.98427">
        <ele>310.64</ele>
        <time>2018-07-08T11:28:17Z</time>
      </trkpt>
      <trkpt lat="49.6122" lon="4.98439">
        <ele>310.64</ele>
        <time>2018-07-08T11:28:32Z</time>
      </trkpt>
      <trkpt lat="49.61226" lon="4.98446">
        <ele>311.12</ele>
        <time>2018-07-08T11:28:50Z</time>
      </trkpt>
      <trkpt lat="49.61241" lon="4.98471">
        <ele>310.64</ele>
        <time>2018-07-08T11:29:06Z</time>
      </trkpt>
      <trkpt lat="49.61255" lon="4.98488">
        <ele>310.16</ele>
        <time>2018-07-08T11:29:23Z</time>
      </trkpt>
      <trkpt lat="49.61261" lon="4.98496">
        <ele>310.16</ele>
        <time>2018-07-08T11:29:33Z</time>
      </trkpt>
      <trkpt lat="49.61269" lon="4.98503">
        <ele>310.64</ele>
        <time>2018-07-08T11:29:40Z</time>
      </trkpt>
      <trkpt lat="49.61285" lon="4.98521">
        <ele>309.68</ele>
        <time>2018-07-08T11:29:55Z</time>
      </trkpt>
      <trkpt lat="49.61295" lon="4.9853">
        <ele>308.24</ele>
        <time>2018-07-08T11:30:11Z</time>
      </trkpt>
      <trkpt lat="49.61303" lon="4.98542">
        <ele>308.24</ele>
        <time>2018-07-08T11:30:25Z</time>
      </trkpt>
      <trkpt lat="49.61317" lon="4.9857">
        <ele>306.8</ele>
        <time>2018-07-08T11:30:39Z</time>
      </trkpt>
      <trkpt lat="49.61322" lon="4.98581">
        <ele>305.84</ele>
        <time>2018-07-08T11:30:53Z</time>
      </trkpt>
      <trkpt lat="49.6133" lon="4.98598">
        <ele>306.32</ele>
        <time>2018-07-08T11:31:07Z</time>
      </trkpt>
      <trkpt lat="49.61342" lon="4.98618">
        <ele>307.28</ele>
        <time>2018-07-08T11:31:23Z</time>
      </trkpt>
      <trkpt lat="49.61347" lon="4.98634">
        <ele>304.88</ele>
        <time>2018-07-08T11:31:32Z</time>
      </trkpt>
      <trkpt lat="49.61365" lon="4.98668">
        <ele>302.47</ele>
        <time>2018-07-08T11:31:46Z</time>
      </trkpt>
      <trkpt lat="49.61376" lon="4.98681">
        <ele>301.51</ele>
        <time>2018-07-08T11:31:58Z</time>
      </trkpt>
      <trkpt lat="49.6138" lon="4.98688">
        <ele>301.99</ele>
        <time>2018-07-08T11:32:14Z</time>
      </trkpt>
      <trkpt lat="49.61393" lon="4.98709">
        <ele>301.03</ele>
        <time>2018-07-08T11:32:29Z</time>
      </trkpt>
      <trkpt lat="49.61403" lon="4.98733">
        <ele>301.51</ele>
        <time>2018-07-08T11:32:35Z</time>
      </trkpt>
      <trkpt lat="49.61411" lon="4.9876">
        <ele>301.51</ele>
        <time>2018-07-08T11:32:49Z</time>
      </trkpt>
      <trkpt lat="49.61421" lon="4.98777">
        <ele>301.51</ele>
        <time>2018-07-08T11:33:01Z</time>
      </trkpt>
      <trkpt lat="49.61428" lon="4.98788">
        <ele>301.99</ele>
        <time>2018-07-08T11:33:08Z</time>
      </trkpt>
      <trkpt lat="49.61442" lon="4.98795">
        <ele>304.88</ele>
        <time>2018-07-08T11:33:22Z</time>
      </trkpt>
      <trkpt lat="49.6145" lon="4.98797">
        <ele>305.36</ele>
        <time>2018-07-08T11:33:36Z</time>
      </trkpt>
      <trkpt lat="49.6147" lon="4.98798">
        <ele>306.32</ele>
        <time>2018-07-08T11:33:53Z</time>
      </trkpt>
      <trkpt lat="49.61482" lon="4.98798">
        <ele>308.24</ele>
        <time>2018-07-08T11:34:07Z</time>
      </trkpt>
      <trkpt lat="49.61502" lon="4.98804">
        <ele>306.8</ele>
        <time>2018-07-08T11:34:24Z</time>
      </trkpt>
      <trkpt lat="49.61517" lon="4.98807">
        <ele>305.84</ele>
        <time>2018-07-08T11:34:38Z</time>
      </trkpt>
      <trkpt lat="49.61543" lon="4.98823">
        <ele>309.2</ele>
        <time>2018-07-08T11:34:55Z</time>
      </trkpt>
      <trkpt lat="49.61563" lon="4.98834">
        <ele>312.57</ele>
        <time>2018-07-08T11:35:11Z</time>
      </trkpt>
      <trkpt lat="49.6158" lon="4.98855">
        <ele>314.01</ele>
        <time>2018-07-08T11:35:27Z</time>
      </trkpt>
      <trkpt lat="49.61591" lon="4.98862">
        <ele>314.49</ele>
        <time>2018-07-08T11:35:41Z</time>
      </trkpt>
      <trkpt lat="49.61602" lon="4.98866">
        <ele>313.53</ele>
        <time>2018-07-08T11:35:55Z</time>
      </trkpt>
      <trkpt lat="49.61618" lon="4.98867">
        <ele>310.64</ele>
        <time>2018-07-08T11:36:06Z</time>
      </trkpt>
      <trkpt lat="49.61629" lon="4.98856">
        <ele>309.2</ele>
        <time>2018-07-08T11:36:14Z</time>
      </trkpt>
      <trkpt lat="49.61638" lon="4.98845">
        <ele>308.72</ele>
        <time>2018-07-08T11:36:21Z</time>
      </trkpt>
      <trkpt lat="49.61655" lon="4.98818">
        <ele>306.8</ele>
        <time>2018-07-08T11:36:35Z</time>
      </trkpt>
      <trkpt lat="49.61665" lon="4.98804">
        <ele>306.8</ele>
        <time>2018-07-08T11:36:46Z</time>
      </trkpt>
      <trkpt lat="49.61677" lon="4.98785">
        <ele>306.32</ele>
        <time>2018-07-08T11:37:00Z</time>
      </trkpt>
      <trkpt lat="49.61686" lon="4.98774">
        <ele>305.36</ele>
        <time>2018-07-08T11:37:08Z</time>
      </trkpt>
      <trkpt lat="49.61697" lon="4.98756">
        <ele>302.95</ele>
        <time>2018-07-08T11:37:23Z</time>
      </trkpt>
      <trkpt lat="49.61705" lon="4.98739">
        <ele>299.11</ele>
        <time>2018-07-08T11:37:37Z</time>
      </trkpt>
      <trkpt lat="49.61715" lon="4.98712">
        <ele>296.22</ele>
        <time>2018-07-08T11:37:53Z</time>
      </trkpt>
      <trkpt lat="49.61721" lon="4.98699">
        <ele>296.22</ele>
        <time>2018-07-08T11:37:58Z</time>
      </trkpt>
      <trkpt lat="49.61736" lon="4.98674">
        <ele>295.74</ele>
        <time>2018-07-08T11:38:11Z</time>
      </trkpt>
      <trkpt lat="49.61737" lon="4.98659">
        <ele>295.26</ele>
        <time>2018-07-08T11:38:24Z</time>
      </trkpt>
      <trkpt lat="49.61739" lon="4.98643">
        <ele>295.26</ele>
        <time>2018-07-08T11:38:33Z</time>
      </trkpt>
      <trkpt lat="49.61739" lon="4.98632">
        <ele>295.74</ele>
        <time>2018-07-08T11:38:46Z</time>
      </trkpt>
      <trkpt lat="49.61739" lon="4.98632">
        <ele>296.22</ele>
        <time>2018-07-08T11:39:05Z</time>
      </trkpt>
      <trkpt lat="49.61743" lon="4.98615">
        <ele>295.26</ele>
        <time>2018-07-08T11:39:24Z</time>
      </trkpt>
      <trkpt lat="49.61743" lon="4.986">
        <ele>294.3</ele>
        <time>2018-07-08T11:39:37Z</time>
      </trkpt>
      <trkpt lat="49.61745" lon="4.98583">
        <ele>294.3</ele>
        <time>2018-07-08T11:39:54Z</time>
      </trkpt>
      <trkpt lat="49.61751" lon="4.98548">
        <ele>294.3</ele>
        <time>2018-07-08T11:40:07Z</time>
      </trkpt>
      <trkpt lat="49.61755" lon="4.98518">
        <ele>294.78</ele>
        <time>2018-07-08T11:40:21Z</time>
      </trkpt>
      <trkpt lat="49.61766" lon="4.98479">
        <ele>294.3</ele>
        <time>2018-07-08T11:40:37Z</time>
      </trkpt>
      <trkpt lat="49.6177" lon="4.98458">
        <ele>295.26</ele>
        <time>2018-07-08T11:40:49Z</time>
      </trkpt>
      <trkpt lat="49.61772" lon="4.98443">
        <ele>298.63</ele>
        <time>2018-07-08T11:41:01Z</time>
      </trkpt>
      <trkpt lat="49.61774" lon="4.98427">
        <ele>300.07</ele>
        <time>2018-07-08T11:41:16Z</time>
      </trkpt>
      <trkpt lat="49.61777" lon="4.98417">
        <ele>301.03</ele>
        <time>2018-07-08T11:41:31Z</time>
      </trkpt>
      <trkpt lat="49.61785" lon="4.98387">
        <ele>301.51</ele>
        <time>2018-07-08T11:41:49Z</time>
      </trkpt>
      <trkpt lat="49.61795" lon="4.98364">
        <ele>300.07</ele>
        <time>2018-07-08T11:42:07Z</time>
      </trkpt>
      <trkpt lat="49.61803" lon="4.98321">
        <ele>297.18</ele>
        <time>2018-07-08T11:42:24Z</time>
      </trkpt>
      <trkpt lat="49.61808" lon="4.98288">
        <ele>295.74</ele>
        <time>2018-07-08T11:42:39Z</time>
      </trkpt>
      <trkpt lat="49.61813" lon="4.98248">
        <ele>293.34</ele>
        <time>2018-07-08T11:42:57Z</time>
      </trkpt>
      <trkpt lat="49.61816" lon="4.98224">
        <ele>295.26</ele>
        <time>2018-07-08T11:43:13Z</time>
      </trkpt>
      <trkpt lat="49.61821" lon="4.98207">
        <ele>295.26</ele>
        <time>2018-07-08T11:43:31Z</time>
      </trkpt>
      <trkpt lat="49.61834" lon="4.98189">
        <ele>292.38</ele>
        <time>2018-07-08T11:43:46Z</time>
      </trkpt>
      <trkpt lat="49.61851" lon="4.98175">
        <ele>289.49</ele>
        <time>2018-07-08T11:44:03Z</time>
      </trkpt>
      <trkpt lat="49.61872" lon="4.98164">
        <ele>290.94</ele>
        <time>2018-07-08T11:44:19Z</time>
      </trkpt>
      <trkpt lat="49.61882" lon="4.98159">
        <ele>291.9</ele>
        <time>2018-07-08T11:44:32Z</time>
      </trkpt>
      <trkpt lat="49.61892" lon="4.98159">
        <ele>291.9</ele>
        <time>2018-07-08T11:44:39Z</time>
      </trkpt>
      <trkpt lat="49.61905" lon="4.98159">
        <ele>291.9</ele>
        <time>2018-07-08T11:44:51Z</time>
      </trkpt>
      <trkpt lat="49.6192" lon="4.98163">
        <ele>290.46</ele>
        <time>2018-07-08T11:45:06Z</time>
      </trkpt>
      <trkpt lat="49.61936" lon="4.98167">
        <ele>291.42</ele>
        <time>2018-07-08T11:45:23Z</time>
      </trkpt>
      <trkpt lat="49.61945" lon="4.98168">
        <ele>291.9</ele>
        <time>2018-07-08T11:45:39Z</time>
      </trkpt>
      <trkpt lat="49.61951" lon="4.98174">
        <ele>290.94</ele>
        <time>2018-07-08T11:45:54Z</time>
      </trkpt>
      <trkpt lat="49.61962" lon="4.98182">
        <ele>289.49</ele>
        <time>2018-07-08T11:46:05Z</time>
      </trkpt>
      <trkpt lat="49.61965" lon="4.98183">
        <ele>289.49</ele>
        <time>2018-07-08T11:46:07Z</time>
      </trkpt>
      <trkpt lat="49.61997" lon="4.98189">
        <ele>290.46</ele>
        <time>2018-07-08T11:46:24Z</time>
      </trkpt>
      <trkpt lat="49.62016" lon="4.98198">
        <ele>286.13</ele>
        <time>2018-07-08T11:46:38Z</time>
      </trkpt>
      <trkpt lat="49.62023" lon="4.98201">
        <ele>285.17</ele>
        <time>2018-07-08T11:46:43Z</time>
      </trkpt>
      <trkpt lat="49.62028" lon="4.98206">
        <ele>283.25</ele>
        <time>2018-07-08T11:46:47Z</time>
      </trkpt>
      <trkpt lat="49.62044" lon="4.98214">
        <ele>279.88</ele>
        <time>2018-07-08T11:47:01Z</time>
      </trkpt>
      <trkpt lat="49.62057" lon="4.98218">
        <ele>277.48</ele>
        <time>2018-07-08T11:47:14Z</time>
      </trkpt>
      <trkpt lat="49.62057" lon="4.9822">
        <ele>276.52</ele>
        <time>2018-07-08T11:47:24Z</time>
      </trkpt>
      <trkpt lat="49.62074" lon="4.98231">
        <ele>273.15</ele>
        <time>2018-07-08T11:47:39Z</time>
      </trkpt>
      <trkpt lat="49.62082" lon="4.98235">
        <ele>272.19</ele>
        <time>2018-07-08T11:47:46Z</time>
      </trkpt>
      <trkpt lat="49.62087" lon="4.98237">
        <ele>271.71</ele>
        <time>2018-07-08T11:47:52Z</time>
      </trkpt>
      <trkpt lat="49.6209" lon="4.98236">
        <ele>271.23</ele>
        <time>2018-07-08T11:47:55Z</time>
      </trkpt>
      <trkpt lat="49.62092" lon="4.98239">
        <ele>271.23</ele>
        <time>2018-07-08T11:47:58Z</time>
      </trkpt>
      <trkpt lat="49.62096" lon="4.98239">
        <ele>270.75</ele>
        <time>2018-07-08T11:48:01Z</time>
      </trkpt>
      <trkpt lat="49.62106" lon="4.98247">
        <ele>270.75</ele>
        <time>2018-07-08T11:48:09Z</time>
      </trkpt>
      <trkpt lat="49.62117" lon="4.98265">
        <ele>272.19</ele>
        <time>2018-07-08T11:48:22Z</time>
      </trkpt>
      <trkpt lat="49.62122" lon="4.98268">
        <ele>273.63</ele>
        <time>2018-07-08T11:48:34Z</time>
      </trkpt>
      <trkpt lat="49.62139" lon="4.98277">
        <ele>275.07</ele>
        <time>2018-07-08T11:48:50Z</time>
      </trkpt>
      <trkpt lat="49.62159" lon="4.98283">
        <ele>275.56</ele>
        <time>2018-07-08T11:49:07Z</time>
      </trkpt>
      <trkpt lat="49.62177" lon="4.98284">
        <ele>275.56</ele>
        <time>2018-07-08T11:49:26Z</time>
      </trkpt>
      <trkpt lat="49.6219" lon="4.98288">
        <ele>274.59</ele>
        <time>2018-07-08T11:49:40Z</time>
      </trkpt>
      <trkpt lat="49.62205" lon="4.9829">
        <ele>275.07</ele>
        <time>2018-07-08T11:49:53Z</time>
      </trkpt>
      <trkpt lat="49.62215" lon="4.98298">
        <ele>273.63</ele>
        <time>2018-07-08T11:50:10Z</time>
      </trkpt>
      <trkpt lat="49.62228" lon="4.98305">
        <ele>272.67</ele>
        <time>2018-07-08T11:50:23Z</time>
      </trkpt>
      <trkpt lat="49.62248" lon="4.98326">
        <ele>272.19</ele>
        <time>2018-07-08T11:50:40Z</time>
      </trkpt>
      <trkpt lat="49.6226" lon="4.98348">
        <ele>273.63</ele>
        <time>2018-07-08T11:50:52Z</time>
      </trkpt>
      <trkpt lat="49.62261" lon="4.98356">
        <ele>274.11</ele>
        <time>2018-07-08T11:50:56Z</time>
      </trkpt>
      <trkpt lat="49.62273" lon="4.98368">
        <ele>276.04</ele>
        <time>2018-07-08T11:51:08Z</time>
      </trkpt>
      <trkpt lat="49.62284" lon="4.98384">
        <ele>276.52</ele>
        <time>2018-07-08T11:51:25Z</time>
      </trkpt>
      <trkpt lat="49.62285" lon="4.98385">
        <ele>276.52</ele>
        <time>2018-07-08T11:51:26Z</time>
      </trkpt>
      <trkpt lat="49.623" lon="4.9841">
        <ele>275.56</ele>
        <time>2018-07-08T11:51:43Z</time>
      </trkpt>
      <trkpt lat="49.62316" lon="4.98424">
        <ele>269.79</ele>
        <time>2018-07-08T11:51:58Z</time>
      </trkpt>
      <trkpt lat="49.62319" lon="4.98424">
        <ele>267.86</ele>
        <time>2018-07-08T11:52:07Z</time>
      </trkpt>
      <trkpt lat="49.62325" lon="4.98428">
        <ele>267.38</ele>
        <time>2018-07-08T11:52:19Z</time>
      </trkpt>
      <trkpt lat="49.62331" lon="4.98434">
        <ele>265.94</ele>
        <time>2018-07-08T11:52:30Z</time>
      </trkpt>
      <trkpt lat="49.62344" lon="4.98446">
        <ele>264.98</ele>
        <time>2018-07-08T11:52:45Z</time>
      </trkpt>
      <trkpt lat="49.62346" lon="4.98447">
        <ele>264.98</ele>
        <time>2018-07-08T11:52:47Z</time>
      </trkpt>
      <trkpt lat="49.62351" lon="4.98452">
        <ele>265.46</ele>
        <time>2018-07-08T11:52:51Z</time>
      </trkpt>
      <trkpt lat="49.62354" lon="4.98455">
        <ele>264.5</ele>
        <time>2018-07-08T11:53:05Z</time>
      </trkpt>
      <trkpt lat="49.62355" lon="4.98455">
        <ele>264.5</ele>
        <time>2018-07-08T11:53:17Z</time>
      </trkpt>
      <trkpt lat="49.62355" lon="4.98455">
        <ele>264.02</ele>
        <time>2018-07-08T11:53:23Z</time>
      </trkpt>
      <trkpt lat="49.62357" lon="4.98457">
        <ele>264.02</ele>
        <time>2018-07-08T11:53:34Z</time>
      </trkpt>
      <trkpt lat="49.62363" lon="4.98461">
        <ele>264.02</ele>
        <time>2018-07-08T11:53:41Z</time>
      </trkpt>
      <trkpt lat="49.62367" lon="4.98464">
        <ele>264.02</ele>
        <time>2018-07-08T11:53:44Z</time>
      </trkpt>
      <trkpt lat="49.62373" lon="4.98468">
        <ele>263.54</ele>
        <time>2018-07-08T11:53:49Z</time>
      </trkpt>
      <trkpt lat="49.62381" lon="4.9847">
        <ele>262.1</ele>
        <time>2018-07-08T11:53:59Z</time>
      </trkpt>
      <trkpt lat="49.62386" lon="4.98474">
        <ele>262.58</ele>
        <time>2018-07-08T11:54:03Z</time>
      </trkpt>
      <trkpt lat="49.62391" lon="4.98477">
        <ele>263.06</ele>
        <time>2018-07-08T11:54:18Z</time>
      </trkpt>
      <trkpt lat="49.62395" lon="4.98479">
        <ele>262.58</ele>
        <time>2018-07-08T11:54:30Z</time>
      </trkpt>
      <trkpt lat="49.62405" lon="4.98484">
        <ele>262.1</ele>
        <time>2018-07-08T11:54:37Z</time>
      </trkpt>
      <trkpt lat="49.62417" lon="4.98495">
        <ele>261.62</ele>
        <time>2018-07-08T11:54:51Z</time>
      </trkpt>
      <trkpt lat="49.62433" lon="4.98508">
        <ele>262.58</ele>
        <time>2018-07-08T11:55:05Z</time>
      </trkpt>
      <trkpt lat="49.62438" lon="4.98513">
        <ele>263.06</ele>
        <time>2018-07-08T11:55:17Z</time>
      </trkpt>
      <trkpt lat="49.62451" lon="4.98524">
        <ele>262.1</ele>
        <time>2018-07-08T11:55:33Z</time>
      </trkpt>
      <trkpt lat="49.62456" lon="4.98528">
        <ele>262.1</ele>
        <time>2018-07-08T11:55:37Z</time>
      </trkpt>
      <trkpt lat="49.62458" lon="4.98532">
        <ele>261.62</ele>
        <time>2018-07-08T11:55:40Z</time>
      </trkpt>
      <trkpt lat="49.62464" lon="4.98537">
        <ele>261.62</ele>
        <time>2018-07-08T11:55:45Z</time>
      </trkpt>
      <trkpt lat="49.62477" lon="4.98545">
        <ele>261.62</ele>
        <time>2018-07-08T11:55:54Z</time>
      </trkpt>
      <trkpt lat="49.62485" lon="4.98555">
        <ele>262.1</ele>
        <time>2018-07-08T11:56:03Z</time>
      </trkpt>
      <trkpt lat="49.6249" lon="4.98558">
        <ele>262.58</ele>
        <time>2018-07-08T11:56:18Z</time>
      </trkpt>
      <trkpt lat="49.62491" lon="4.98558">
        <ele>262.1</ele>
        <time>2018-07-08T11:56:22Z</time>
      </trkpt>
      <trkpt lat="49.62509" lon="4.98567">
        <ele>264.5</ele>
        <time>2018-07-08T11:56:37Z</time>
      </trkpt>
      <trkpt lat="49.62525" lon="4.98567">
        <ele>263.54</ele>
        <time>2018-07-08T11:56:49Z</time>
      </trkpt>
      <trkpt lat="49.62541" lon="4.98564">
        <ele>262.1</ele>
        <time>2018-07-08T11:57:03Z</time>
      </trkpt>
      <trkpt lat="49.62541" lon="4.98564">
        <ele>262.1</ele>
        <time>2018-07-08T11:57:04Z</time>
      </trkpt>
      <trkpt lat="49.6255" lon="4.98571">
        <ele>262.1</ele>
        <time>2018-07-08T11:57:16Z</time>
      </trkpt>
      <trkpt lat="49.62549" lon="4.98571">
        <ele>262.1</ele>
        <time>2018-07-08T11:57:19Z</time>
      </trkpt>
      <trkpt lat="49.62549" lon="4.98581">
        <ele>262.58</ele>
        <time>2018-07-08T11:57:31Z</time>
      </trkpt>
      <trkpt lat="49.62551" lon="4.98586">
        <ele>261.62</ele>
        <time>2018-07-08T11:57:37Z</time>
      </trkpt>
      <trkpt lat="49.62562" lon="4.98579">
        <ele>261.14</ele>
        <time>2018-07-08T11:57:50Z</time>
      </trkpt>
      <trkpt lat="49.62576" lon="4.98567">
        <ele>259.69</ele>
        <time>2018-07-08T11:58:06Z</time>
      </trkpt>
      <trkpt lat="49.62588" lon="4.9856">
        <ele>259.69</ele>
        <time>2018-07-08T11:58:20Z</time>
      </trkpt>
      <trkpt lat="49.62601" lon="4.98548">
        <ele>259.69</ele>
        <time>2018-07-08T11:58:33Z</time>
      </trkpt>
      <trkpt lat="49.62614" lon="4.98539">
        <ele>256.81</ele>
        <time>2018-07-08T11:58:49Z</time>
      </trkpt>
      <trkpt lat="49.62615" lon="4.98537">
        <ele>257.77</ele>
        <time>2018-07-08T11:59:08Z</time>
      </trkpt>
      <trkpt lat="49.62625" lon="4.98531">
        <ele>258.73</ele>
        <time>2018-07-08T11:59:24Z</time>
      </trkpt>
      <trkpt lat="49.62635" lon="4.98523">
        <ele>260.17</ele>
        <time>2018-07-08T11:59:35Z</time>
      </trkpt>
      <trkpt lat="49.62643" lon="4.98515">
        <ele>260.65</ele>
        <time>2018-07-08T11:59:51Z</time>
      </trkpt>
      <trkpt lat="49.62655" lon="4.98505">
        <ele>264.98</ele>
        <time>2018-07-08T12:00:06Z</time>
      </trkpt>
      <trkpt lat="49.62667" lon="4.98497">
        <ele>264.98</ele>
        <time>2018-07-08T12:00:23Z</time>
      </trkpt>
      <trkpt lat="49.62679" lon="4.98484">
        <ele>264.02</ele>
        <time>2018-07-08T12:00:36Z</time>
      </trkpt>
      <trkpt lat="49.62682" lon="4.98481">
        <ele>262.1</ele>
        <time>2018-07-08T12:00:39Z</time>
      </trkpt>
      <trkpt lat="49.62694" lon="4.98472">
        <ele>258.25</ele>
        <time>2018-07-08T12:00:42Z</time>
      </trkpt>
      <trkpt lat="49.62716" lon="4.98453">
        <ele>255.37</ele>
        <time>2018-07-08T12:00:59Z</time>
      </trkpt>
      <trkpt lat="49.62731" lon="4.98437">
        <ele>252</ele>
        <time>2018-07-08T12:01:13Z</time>
      </trkpt>
      <trkpt lat="49.62746" lon="4.98426">
        <ele>252</ele>
        <time>2018-07-08T12:01:29Z</time>
      </trkpt>
      <trkpt lat="49.62756" lon="4.98419">
        <ele>252.96</ele>
        <time>2018-07-08T12:01:41Z</time>
      </trkpt>
      <trkpt lat="49.62767" lon="4.98407">
        <ele>252</ele>
        <time>2018-07-08T12:01:52Z</time>
      </trkpt>
      <trkpt lat="49.6277" lon="4.98405">
        <ele>251.04</ele>
        <time>2018-07-08T12:02:04Z</time>
      </trkpt>
      <trkpt lat="49.62777" lon="4.98399">
        <ele>249.6</ele>
        <time>2018-07-08T12:02:14Z</time>
      </trkpt>
      <trkpt lat="49.6279" lon="4.9839">
        <ele>247.68</ele>
        <time>2018-07-08T12:02:28Z</time>
      </trkpt>
      <trkpt lat="49.62797" lon="4.98384">
        <ele>245.27</ele>
        <time>2018-07-08T12:02:39Z</time>
      </trkpt>
      <trkpt lat="49.62812" lon="4.98372">
        <ele>244.31</ele>
        <time>2018-07-08T12:02:51Z</time>
      </trkpt>
      <trkpt lat="49.62822" lon="4.98366">
        <ele>245.27</ele>
        <time>2018-07-08T12:03:03Z</time>
      </trkpt>
      <trkpt lat="49.62834" lon="4.98358">
        <ele>241.91</ele>
        <time>2018-07-08T12:03:16Z</time>
      </trkpt>
      <trkpt lat="49.62842" lon="4.98356">
        <ele>240.47</ele>
        <time>2018-07-08T12:03:28Z</time>
      </trkpt>
      <trkpt lat="49.62852" lon="4.9835">
        <ele>239.51</ele>
        <time>2018-07-08T12:03:44Z</time>
      </trkpt>
      <trkpt lat="49.62865" lon="4.98345">
        <ele>240.47</ele>
        <time>2018-07-08T12:03:57Z</time>
      </trkpt>
      <trkpt lat="49.6288" lon="4.98339">
        <ele>243.35</ele>
        <time>2018-07-08T12:04:12Z</time>
      </trkpt>
      <trkpt lat="49.62887" lon="4.98334">
        <ele>244.31</ele>
        <time>2018-07-08T12:04:27Z</time>
      </trkpt>
      <trkpt lat="49.62887" lon="4.98334">
        <ele>244.79</ele>
        <time>2018-07-08T12:04:39Z</time>
      </trkpt>
      <trkpt lat="49.62895" lon="4.98332">
        <ele>244.31</ele>
        <time>2018-07-08T12:04:51Z</time>
      </trkpt>
      <trkpt lat="49.62899" lon="4.98328">
        <ele>244.31</ele>
        <time>2018-07-08T12:05:10Z</time>
      </trkpt>
      <trkpt lat="49.62905" lon="4.98326">
        <ele>245.27</ele>
        <time>2018-07-08T12:05:23Z</time>
      </trkpt>
      <trkpt lat="49.62911" lon="4.98324">
        <ele>245.75</ele>
        <time>2018-07-08T12:05:39Z</time>
      </trkpt>
      <trkpt lat="49.6292" lon="4.98321">
        <ele>245.75</ele>
        <time>2018-07-08T12:05:54Z</time>
      </trkpt>
      <trkpt lat="49.62923" lon="4.9832">
        <ele>245.75</ele>
        <time>2018-07-08T12:06:07Z</time>
      </trkpt>
      <trkpt lat="49.62925" lon="4.98321">
        <ele>245.75</ele>
        <time>2018-07-08T12:06:10Z</time>
      </trkpt>
      <trkpt lat="49.62933" lon="4.98318">
        <ele>245.75</ele>
        <time>2018-07-08T12:06:26Z</time>
      </trkpt>
      <trkpt lat="49.62945" lon="4.98318">
        <ele>246.23</ele>
        <time>2018-07-08T12:06:40Z</time>
      </trkpt>
      <trkpt lat="49.62947" lon="4.98318">
        <ele>246.23</ele>
        <time>2018-07-08T12:06:42Z</time>
      </trkpt>
      <trkpt lat="49.62971" lon="4.98321">
        <ele>250.08</ele>
        <time>2018-07-08T12:07:02Z</time>
      </trkpt>
      <trkpt lat="49.62977" lon="4.98318">
        <ele>250.08</ele>
        <time>2018-07-08T12:07:17Z</time>
      </trkpt>
      <trkpt lat="49.62994" lon="4.98314">
        <ele>254.41</ele>
        <time>2018-07-08T12:07:29Z</time>
      </trkpt>
      <trkpt lat="49.62995" lon="4.98314">
        <ele>254.41</ele>
        <time>2018-07-08T12:07:38Z</time>
      </trkpt>
      <trkpt lat="49.63013" lon="4.98311">
        <ele>253.44</ele>
        <time>2018-07-08T12:07:52Z</time>
      </trkpt>
      <trkpt lat="49.63023" lon="4.98309">
        <ele>251.52</ele>
        <time>2018-07-08T12:08:11Z</time>
      </trkpt>
      <trkpt lat="49.63039" lon="4.98308">
        <ele>250.56</ele>
        <time>2018-07-08T12:08:29Z</time>
      </trkpt>
      <trkpt lat="49.63048" lon="4.98312">
        <ele>249.12</ele>
        <time>2018-07-08T12:08:43Z</time>
      </trkpt>
      <trkpt lat="49.6306" lon="4.98313">
        <ele>247.68</ele>
        <time>2018-07-08T12:08:58Z</time>
      </trkpt>
      <trkpt lat="49.63073" lon="4.98313">
        <ele>246.23</ele>
        <time>2018-07-08T12:09:17Z</time>
      </trkpt>
      <trkpt lat="49.63095" lon="4.98314">
        <ele>245.27</ele>
        <time>2018-07-08T12:09:32Z</time>
      </trkpt>
      <trkpt lat="49.63099" lon="4.98321">
        <ele>244.31</ele>
        <time>2018-07-08T12:09:50Z</time>
      </trkpt>
      <trkpt lat="49.63112" lon="4.98316">
        <ele>244.31</ele>
        <time>2018-07-08T12:10:07Z</time>
      </trkpt>
      <trkpt lat="49.6312" lon="4.98315">
        <ele>244.31</ele>
        <time>2018-07-08T12:10:22Z</time>
      </trkpt>
      <trkpt lat="49.63125" lon="4.98311">
        <ele>243.83</ele>
        <time>2018-07-08T12:10:38Z</time>
      </trkpt>
      <trkpt lat="49.63132" lon="4.9831">
        <ele>244.31</ele>
        <time>2018-07-08T12:10:52Z</time>
      </trkpt>
      <trkpt lat="49.63149" lon="4.98306">
        <ele>243.83</ele>
        <time>2018-07-08T12:11:07Z</time>
      </trkpt>
      <trkpt lat="49.63171" lon="4.98305">
        <ele>245.27</ele>
        <time>2018-07-08T12:11:25Z</time>
      </trkpt>
      <trkpt lat="49.63188" lon="4.98308">
        <ele>247.68</ele>
        <time>2018-07-08T12:11:40Z</time>
      </trkpt>
      <trkpt lat="49.6319" lon="4.98318">
        <ele>246.72</ele>
        <time>2018-07-08T12:11:56Z</time>
      </trkpt>
      <trkpt lat="49.63191" lon="4.98319">
        <ele>246.23</ele>
        <time>2018-07-08T12:12:02Z</time>
      </trkpt>
      <trkpt lat="49.63199" lon="4.98315">
        <ele>245.75</ele>
        <time>2018-07-08T12:12:16Z</time>
      </trkpt>
      <trkpt lat="49.63205" lon="4.98322">
        <ele>244.79</ele>
        <time>2018-07-08T12:12:29Z</time>
      </trkpt>
      <trkpt lat="49.63214" lon="4.98327">
        <ele>243.83</ele>
        <time>2018-07-08T12:12:42Z</time>
      </trkpt>
      <trkpt lat="49.63217" lon="4.98332">
        <ele>243.35</ele>
        <time>2018-07-08T12:13:01Z</time>
      </trkpt>
      <trkpt lat="49.63233" lon="4.98332">
        <ele>241.91</ele>
        <time>2018-07-08T12:13:15Z</time>
      </trkpt>
      <trkpt lat="49.63251" lon="4.98328">
        <ele>240.95</ele>
        <time>2018-07-08T12:13:32Z</time>
      </trkpt>
      <trkpt lat="49.63268" lon="4.98319">
        <ele>239.02</ele>
        <time>2018-07-08T12:13:47Z</time>
      </trkpt>
      <trkpt lat="49.63272" lon="4.9832">
        <ele>238.54</ele>
        <time>2018-07-08T12:13:53Z</time>
      </trkpt>
      <trkpt lat="49.63283" lon="4.98325">
        <ele>239.99</ele>
        <time>2018-07-08T12:14:06Z</time>
      </trkpt>
      <trkpt lat="49.63285" lon="4.98326">
        <ele>239.51</ele>
        <time>2018-07-08T12:14:08Z</time>
      </trkpt>
      <trkpt lat="49.633" lon="4.98327">
        <ele>239.99</ele>
        <time>2018-07-08T12:14:22Z</time>
      </trkpt>
      <trkpt lat="49.63301" lon="4.98327">
        <ele>239.99</ele>
        <time>2018-07-08T12:14:23Z</time>
      </trkpt>
      <trkpt lat="49.63305" lon="4.98333">
        <ele>239.02</ele>
        <time>2018-07-08T12:14:37Z</time>
      </trkpt>
      <trkpt lat="49.63308" lon="4.98333">
        <ele>238.06</ele>
        <time>2018-07-08T12:14:55Z</time>
      </trkpt>
      <trkpt lat="49.63316" lon="4.98328">
        <ele>237.58</ele>
        <time>2018-07-08T12:15:11Z</time>
      </trkpt>
      <trkpt lat="49.63327" lon="4.98325">
        <ele>236.14</ele>
        <time>2018-07-08T12:15:22Z</time>
      </trkpt>
      <trkpt lat="49.63346" lon="4.9832">
        <ele>227.97</ele>
        <time>2018-07-08T12:15:36Z</time>
      </trkpt>
      <trkpt lat="49.63362" lon="4.98317">
        <ele>217.88</ele>
        <time>2018-07-08T12:15:45Z</time>
      </trkpt>
      <trkpt lat="49.63383" lon="4.98309">
        <ele>210.67</ele>
        <time>2018-07-08T12:15:57Z</time>
      </trkpt>
      <trkpt lat="49.63387" lon="4.98309">
        <ele>209.7</ele>
        <time>2018-07-08T12:16:00Z</time>
      </trkpt>
      <trkpt lat="49.634" lon="4.98304">
        <ele>203.94</ele>
        <time>2018-07-08T12:16:13Z</time>
      </trkpt>
      <trkpt lat="49.63411" lon="4.98293">
        <ele>202.01</ele>
        <time>2018-07-08T12:16:25Z</time>
      </trkpt>
      <trkpt lat="49.63415" lon="4.98287">
        <ele>201.53</ele>
        <time>2018-07-08T12:16:29Z</time>
      </trkpt>
      <trkpt lat="49.63426" lon="4.98273">
        <ele>199.13</ele>
        <time>2018-07-08T12:16:43Z</time>
      </trkpt>
      <trkpt lat="49.63438" lon="4.98258">
        <ele>198.17</ele>
        <time>2018-07-08T12:16:58Z</time>
      </trkpt>
      <trkpt lat="49.63444" lon="4.98251">
        <ele>196.73</ele>
        <time>2018-07-08T12:17:14Z</time>
      </trkpt>
      <trkpt lat="49.63447" lon="4.98249">
        <ele>195.77</ele>
        <time>2018-07-08T12:17:17Z</time>
      </trkpt>
      <trkpt lat="49.63451" lon="4.98242">
        <ele>195.28</ele>
        <time>2018-07-08T12:17:22Z</time>
      </trkpt>
      <trkpt lat="49.63457" lon="4.98229">
        <ele>192.4</ele>
        <time>2018-07-08T12:17:34Z</time>
      </trkpt>
      <trkpt lat="49.63467" lon="4.98212">
        <ele>191.44</ele>
        <time>2018-07-08T12:17:47Z</time>
      </trkpt>
      <trkpt lat="49.63475" lon="4.98194">
        <ele>189.52</ele>
        <time>2018-07-08T12:18:01Z</time>
      </trkpt>
      <trkpt lat="49.63482" lon="4.98175">
        <ele>188.08</ele>
        <time>2018-07-08T12:18:20Z</time>
      </trkpt>
      <trkpt lat="49.63486" lon="4.98165">
        <ele>186.63</ele>
        <time>2018-07-08T12:18:36Z</time>
      </trkpt>
      <trkpt lat="49.63489" lon="4.98155">
        <ele>185.67</ele>
        <time>2018-07-08T12:18:50Z</time>
      </trkpt>
      <trkpt lat="49.6349" lon="4.98153">
        <ele>185.19</ele>
        <time>2018-07-08T12:18:51Z</time>
      </trkpt>
      <trkpt lat="49.63495" lon="4.98144">
        <ele>184.71</ele>
        <time>2018-07-08T12:18:57Z</time>
      </trkpt>
      <trkpt lat="49.63488" lon="4.98113">
        <ele>185.67</ele>
        <time>2018-07-08T12:19:15Z</time>
      </trkpt>
      <trkpt lat="49.63482" lon="4.98103">
        <ele>187.11</ele>
        <time>2018-07-08T12:19:25Z</time>
      </trkpt>
      <trkpt lat="49.63472" lon="4.9809">
        <ele>188.56</ele>
        <time>2018-07-08T12:19:36Z</time>
      </trkpt>
      <trkpt lat="49.63466" lon="4.98077">
        <ele>186.15</ele>
        <time>2018-07-08T12:19:52Z</time>
      </trkpt>
      <trkpt lat="49.63459" lon="4.98069">
        <ele>183.27</ele>
        <time>2018-07-08T12:20:05Z</time>
      </trkpt>
      <trkpt lat="49.63459" lon="4.98068">
        <ele>182.79</ele>
        <time>2018-07-08T12:20:06Z</time>
      </trkpt>
    </trkseg>
  </trk>
</gpx>